<?xml version="1.0" encoding="utf-8"?>
<gpx xmlns:xsi="http://www.w3.org/2001/XMLSchema-instance" xmlns:xsd="http://www.w3.org/2001/XMLSchema" version="1.1" creator="Shapelink.com" xmlns="http://www.topografix.com/GPX/1/1" xmlns:gpxtpx="http://www.garmin.com/xmlschemas/TrackPointExtension/v1">
  <metadata>
    <name>Löpning 6.03 km, 2018-02-12</name>
    <desc></desc>
    <author><name>Bengt-Åke Forslund</name></author> 
    <time>2018-02-12T18:04:46Z</time>
  </metadata>
  <trk>
    <name>Löpning 6.03 km, 2018-02-12</name>
    <trkseg>
      <trkpt lat="62.637156584911" lon="17.966036620293">
        <ele>79.8</ele>
        <time>2018-02-12T18:04:46Z</time>
      </trkpt>
      <trkpt lat="62.637155579083" lon="17.966050701885">
        <ele>79.6</ele>
        <time>2018-02-12T18:04:47Z</time>
      </trkpt>
      <trkpt lat="62.637160775861" lon="17.966050450428">
        <ele>79.6</ele>
        <time>2018-02-12T18:04:48Z</time>
      </trkpt>
      <trkpt lat="62.637161949327" lon="17.966059754337">
        <ele>79.4</ele>
        <time>2018-02-12T18:04:49Z</time>
      </trkpt>
      <trkpt lat="62.637203272094" lon="17.966262177222">
        <ele>78.6</ele>
        <time>2018-02-12T18:05:27Z</time>
      </trkpt>
      <trkpt lat="62.637197237126" lon="17.966283131972">
        <ele>78.6</ele>
        <time>2018-02-12T18:05:28Z</time>
      </trkpt>
      <trkpt lat="62.637146107536" lon="17.966259578833">
        <ele>78.6</ele>
        <time>2018-02-12T18:05:29Z</time>
      </trkpt>
      <trkpt lat="62.637124314596" lon="17.966268128371">
        <ele>78.6</ele>
        <time>2018-02-12T18:05:30Z</time>
      </trkpt>
      <trkpt lat="62.637122889673" lon="17.966275504443">
        <ele>78.4</ele>
        <time>2018-02-12T18:05:31Z</time>
      </trkpt>
      <trkpt lat="62.637118531085" lon="17.966278019013">
        <ele>78.4</ele>
        <time>2018-02-12T18:05:32Z</time>
      </trkpt>
      <trkpt lat="62.637114423954" lon="17.966276510271">
        <ele>78.6</ele>
        <time>2018-02-12T18:05:33Z</time>
      </trkpt>
      <trkpt lat="62.637129259917" lon="17.966251113114">
        <ele>78.4</ele>
        <time>2018-02-12T18:05:34Z</time>
      </trkpt>
      <trkpt lat="62.637144682613" lon="17.96623887554">
        <ele>78.4</ele>
        <time>2018-02-12T18:05:35Z</time>
      </trkpt>
      <trkpt lat="62.637097743973" lon="17.966223536663">
        <ele>78.6</ele>
        <time>2018-02-12T18:05:36Z</time>
      </trkpt>
      <trkpt lat="62.637100593819" lon="17.966221105912">
        <ele>78.6</ele>
        <time>2018-02-12T18:05:37Z</time>
      </trkpt>
      <trkpt lat="62.637104365674" lon="17.966224039577">
        <ele>78.6</ele>
        <time>2018-02-12T18:05:38Z</time>
      </trkpt>
      <trkpt lat="62.637096486688" lon="17.966184896104">
        <ele>78.8</ele>
        <time>2018-02-12T18:05:39Z</time>
      </trkpt>
      <trkpt lat="62.637103946579" lon="17.966173999634">
        <ele>79</ele>
        <time>2018-02-12T18:05:40Z</time>
      </trkpt>
      <trkpt lat="62.637112915212" lon="17.966157822567">
        <ele>78.8</ele>
        <time>2018-02-12T18:05:41Z</time>
      </trkpt>
      <trkpt lat="62.637115932696" lon="17.966145249717">
        <ele>78.6</ele>
        <time>2018-02-12T18:05:42Z</time>
      </trkpt>
      <trkpt lat="62.637118195809" lon="17.966141477862">
        <ele>78.6</ele>
        <time>2018-02-12T18:05:43Z</time>
      </trkpt>
      <trkpt lat="62.637125488062" lon="17.966140723491">
        <ele>78.4</ele>
        <time>2018-02-12T18:05:44Z</time>
      </trkpt>
      <trkpt lat="62.637125990976" lon="17.966141896957">
        <ele>78.2</ele>
        <time>2018-02-12T18:05:45Z</time>
      </trkpt>
      <trkpt lat="62.63712733208" lon="17.966151200866">
        <ele>78.4</ele>
        <time>2018-02-12T18:05:46Z</time>
      </trkpt>
      <trkpt lat="62.637195309289" lon="17.966125636071">
        <ele>78.6</ele>
        <time>2018-02-12T18:06:08Z</time>
      </trkpt>
      <trkpt lat="62.637194471099" lon="17.966122786225">
        <ele>78.6</ele>
        <time>2018-02-12T18:06:09Z</time>
      </trkpt>
      <trkpt lat="62.637196818031" lon="17.966134017971">
        <ele>78.4</ele>
        <time>2018-02-12T18:06:10Z</time>
      </trkpt>
      <trkpt lat="62.63719690185" lon="17.966131671039">
        <ele>78.6</ele>
        <time>2018-02-12T18:06:11Z</time>
      </trkpt>
      <trkpt lat="62.63719941642" lon="17.96610644152">
        <ele>78.6</ele>
        <time>2018-02-12T18:06:12Z</time>
      </trkpt>
      <trkpt lat="62.637238476074" lon="17.966162264974">
        <ele>78.8</ele>
        <time>2018-02-12T18:06:13Z</time>
      </trkpt>
      <trkpt lat="62.637237554065" lon="17.966162432612">
        <ele>78.8</ele>
        <time>2018-02-12T18:06:14Z</time>
      </trkpt>
      <trkpt lat="62.637193968185" lon="17.965768148036">
        <ele>78.8</ele>
        <time>2018-02-12T18:07:33Z</time>
      </trkpt>
      <trkpt lat="62.63718349081" lon="17.965737051187">
        <ele>79</ele>
        <time>2018-02-12T18:07:34Z</time>
      </trkpt>
      <trkpt lat="62.637175695643" lon="17.965705954338">
        <ele>79</ele>
        <time>2018-02-12T18:07:35Z</time>
      </trkpt>
      <trkpt lat="62.637172761978" lon="17.965672762014">
        <ele>79</ele>
        <time>2018-02-12T18:07:36Z</time>
      </trkpt>
      <trkpt lat="62.63717427072" lon="17.965642000441">
        <ele>78.8</ele>
        <time>2018-02-12T18:07:37Z</time>
      </trkpt>
      <trkpt lat="62.637173683987" lon="17.965613250524">
        <ele>78.8</ele>
        <time>2018-02-12T18:07:38Z</time>
      </trkpt>
      <trkpt lat="62.637170750322" lon="17.965588859195">
        <ele>78.8</ele>
        <time>2018-02-12T18:07:39Z</time>
      </trkpt>
      <trkpt lat="62.637165302087" lon="17.965547787885">
        <ele>78.8</ele>
        <time>2018-02-12T18:07:40Z</time>
      </trkpt>
      <trkpt lat="62.637153232151" lon="17.965508476774">
        <ele>78.8</ele>
        <time>2018-02-12T18:07:41Z</time>
      </trkpt>
      <trkpt lat="62.637144179699" lon="17.965479643038">
        <ele>79</ele>
        <time>2018-02-12T18:07:42Z</time>
      </trkpt>
      <trkpt lat="62.63713571398" lon="17.965441840669">
        <ele>79</ele>
        <time>2018-02-12T18:07:43Z</time>
      </trkpt>
      <trkpt lat="62.637127667356" lon="17.965400266445">
        <ele>79</ele>
        <time>2018-02-12T18:07:44Z</time>
      </trkpt>
      <trkpt lat="62.637115178325" lon="17.965359027497">
        <ele>79</ele>
        <time>2018-02-12T18:07:45Z</time>
      </trkpt>
      <trkpt lat="62.637104198036" lon="17.965322817689">
        <ele>78.8</ele>
        <time>2018-02-12T18:07:46Z</time>
      </trkpt>
      <trkpt lat="62.637095061765" lon="17.965291385564">
        <ele>78.8</ele>
        <time>2018-02-12T18:07:47Z</time>
      </trkpt>
      <trkpt lat="62.637086009313" lon="17.965251236263">
        <ele>78.6</ele>
        <time>2018-02-12T18:07:48Z</time>
      </trkpt>
      <trkpt lat="62.637075783395" lon="17.965216032283">
        <ele>78.6</ele>
        <time>2018-02-12T18:07:49Z</time>
      </trkpt>
      <trkpt lat="62.637062288536" lon="17.96518191795">
        <ele>78.8</ele>
        <time>2018-02-12T18:07:50Z</time>
      </trkpt>
      <trkpt lat="62.6370502186" lon="17.965143025934">
        <ele>78.8</ele>
        <time>2018-02-12T18:07:51Z</time>
      </trkpt>
      <trkpt lat="62.637037813388" lon="17.965102541357">
        <ele>78.6</ele>
        <time>2018-02-12T18:07:52Z</time>
      </trkpt>
      <trkpt lat="62.637025743452" lon="17.965052082319">
        <ele>78.8</ele>
        <time>2018-02-12T18:07:53Z</time>
      </trkpt>
      <trkpt lat="62.637014679344" lon="17.964997097055">
        <ele>78.6</ele>
        <time>2018-02-12T18:07:54Z</time>
      </trkpt>
      <trkpt lat="62.637005375435" lon="17.96496063579">
        <ele>78.6</ele>
        <time>2018-02-12T18:07:55Z</time>
      </trkpt>
      <trkpt lat="62.636991880576" lon="17.964921911412">
        <ele>78.6</ele>
        <time>2018-02-12T18:07:56Z</time>
      </trkpt>
      <trkpt lat="62.636985426513" lon="17.964888132355">
        <ele>78.6</ele>
        <time>2018-02-12T18:07:57Z</time>
      </trkpt>
      <trkpt lat="62.636971344921" lon="17.964846306674">
        <ele>78.6</ele>
        <time>2018-02-12T18:07:58Z</time>
      </trkpt>
      <trkpt lat="62.636960783727" lon="17.964814874549">
        <ele>78.6</ele>
        <time>2018-02-12T18:07:59Z</time>
      </trkpt>
      <trkpt lat="62.636948127058" lon="17.964784951166">
        <ele>78.6</ele>
        <time>2018-02-12T18:08:00Z</time>
      </trkpt>
      <trkpt lat="62.636931447077" lon="17.964760140742">
        <ele>78.6</ele>
        <time>2018-02-12T18:08:01Z</time>
      </trkpt>
      <trkpt lat="62.636914096544" lon="17.964729882083">
        <ele>78.6</ele>
        <time>2018-02-12T18:08:02Z</time>
      </trkpt>
      <trkpt lat="62.636901188418" lon="17.964694342827">
        <ele>78.4</ele>
        <time>2018-02-12T18:08:03Z</time>
      </trkpt>
      <trkpt lat="62.636886603912" lon="17.964655115535">
        <ele>78.4</ele>
        <time>2018-02-12T18:08:04Z</time>
      </trkpt>
      <trkpt lat="62.63687336051" lon="17.964614044225">
        <ele>78.4</ele>
        <time>2018-02-12T18:08:06Z</time>
      </trkpt>
      <trkpt lat="62.636857853995" lon="17.964595687864">
        <ele>78.4</ele>
        <time>2018-02-12T18:08:07Z</time>
      </trkpt>
      <trkpt lat="62.636845951697" lon="17.964571045078">
        <ele>78.2</ele>
        <time>2018-02-12T18:08:08Z</time>
      </trkpt>
      <trkpt lat="62.63682893644" lon="17.964543552446">
        <ele>78</ele>
        <time>2018-02-12T18:08:09Z</time>
      </trkpt>
      <trkpt lat="62.636817537056" lon="17.964519831669">
        <ele>77.8</ele>
        <time>2018-02-12T18:08:10Z</time>
      </trkpt>
      <trkpt lat="62.636801108532" lon="17.964485214422">
        <ele>77.8</ele>
        <time>2018-02-12T18:08:11Z</time>
      </trkpt>
      <trkpt lat="62.636793564822" lon="17.9644485017">
        <ele>77.6</ele>
        <time>2018-02-12T18:08:12Z</time>
      </trkpt>
      <trkpt lat="62.636789122415" lon="17.96440156306">
        <ele>77.6</ele>
        <time>2018-02-12T18:08:13Z</time>
      </trkpt>
      <trkpt lat="62.636781913981" lon="17.964349427642">
        <ele>77.4</ele>
        <time>2018-02-12T18:08:14Z</time>
      </trkpt>
      <trkpt lat="62.636772526253" lon="17.96431187673">
        <ele>77.4</ele>
        <time>2018-02-12T18:08:15Z</time>
      </trkpt>
      <trkpt lat="62.636764982543" lon="17.964284719374">
        <ele>77.4</ele>
        <time>2018-02-12T18:08:16Z</time>
      </trkpt>
      <trkpt lat="62.636748218743" lon="17.964227303359">
        <ele>77.4</ele>
        <time>2018-02-12T18:08:17Z</time>
      </trkpt>
      <trkpt lat="62.636735562074" lon="17.964195535958">
        <ele>77.4</ele>
        <time>2018-02-12T18:08:18Z</time>
      </trkpt>
      <trkpt lat="62.636720558473" lon="17.964157482132">
        <ele>77.4</ele>
        <time>2018-02-12T18:08:19Z</time>
      </trkpt>
      <trkpt lat="62.636707566528" lon="17.964117835745">
        <ele>77.4</ele>
        <time>2018-02-12T18:08:20Z</time>
      </trkpt>
      <trkpt lat="62.636692646746" lon="17.964079781919">
        <ele>77.4</ele>
        <time>2018-02-12T18:08:21Z</time>
      </trkpt>
      <trkpt lat="62.63667973862" lon="17.964049858536">
        <ele>77.2</ele>
        <time>2018-02-12T18:08:22Z</time>
      </trkpt>
      <trkpt lat="62.636665740847" lon="17.964009876873">
        <ele>77.2</ele>
        <time>2018-02-12T18:08:23Z</time>
      </trkpt>
      <trkpt lat="62.636649228504" lon="17.963970146667">
        <ele>77.2</ele>
        <time>2018-02-12T18:08:24Z</time>
      </trkpt>
      <trkpt lat="62.636635482188" lon="17.96393301485">
        <ele>77.4</ele>
        <time>2018-02-12T18:08:25Z</time>
      </trkpt>
      <trkpt lat="62.636621568234" lon="17.963892111178">
        <ele>77.4</ele>
        <time>2018-02-12T18:08:26Z</time>
      </trkpt>
      <trkpt lat="62.636606899909" lon="17.963849614945">
        <ele>77.4</ele>
        <time>2018-02-12T18:08:27Z</time>
      </trkpt>
      <trkpt lat="62.636596506353" lon="17.963817512268">
        <ele>77.4</ele>
        <time>2018-02-12T18:08:28Z</time>
      </trkpt>
      <trkpt lat="62.6365808322" lon="17.963770992723">
        <ele>77.4</ele>
        <time>2018-02-12T18:08:29Z</time>
      </trkpt>
      <trkpt lat="62.636564236038" lon="17.963739057684">
        <ele>77.4</ele>
        <time>2018-02-12T18:08:30Z</time>
      </trkpt>
      <trkpt lat="62.63654646641" lon="17.963710223948">
        <ele>77.4</ele>
        <time>2018-02-12T18:08:31Z</time>
      </trkpt>
      <trkpt lat="62.636527774773" lon="17.963686503171">
        <ele>77.4</ele>
        <time>2018-02-12T18:08:32Z</time>
      </trkpt>
      <trkpt lat="62.636510675697" lon="17.963676444891">
        <ele>77.4</ele>
        <time>2018-02-12T18:08:33Z</time>
      </trkpt>
      <trkpt lat="62.636488044567" lon="17.963676361072">
        <ele>77.4</ele>
        <time>2018-02-12T18:08:34Z</time>
      </trkpt>
      <trkpt lat="62.636463737057" lon="17.963680132927">
        <ele>77.4</ele>
        <time>2018-02-12T18:08:35Z</time>
      </trkpt>
      <trkpt lat="62.636444291049" lon="17.963686419352">
        <ele>77.2</ele>
        <time>2018-02-12T18:08:36Z</time>
      </trkpt>
      <trkpt lat="62.636425180317" lon="17.963697399641">
        <ele>77.2</ele>
        <time>2018-02-12T18:08:37Z</time>
      </trkpt>
      <trkpt lat="62.636407410689" lon="17.963709134301">
        <ele>77.2</ele>
        <time>2018-02-12T18:08:38Z</time>
      </trkpt>
      <trkpt lat="62.636390311613" lon="17.963726736291">
        <ele>77.2</ele>
        <time>2018-02-12T18:08:39Z</time>
      </trkpt>
      <trkpt lat="62.636372877261" lon="17.963750540887">
        <ele>77.4</ele>
        <time>2018-02-12T18:08:40Z</time>
      </trkpt>
      <trkpt lat="62.636355694366" lon="17.963787505066">
        <ele>77.4</ele>
        <time>2018-02-12T18:08:41Z</time>
      </trkpt>
      <trkpt lat="62.636341612774" lon="17.963828911652">
        <ele>77.4</ele>
        <time>2018-02-12T18:08:42Z</time>
      </trkpt>
      <trkpt lat="62.63632853701" lon="17.9638701506">
        <ele>77.4</ele>
        <time>2018-02-12T18:08:43Z</time>
      </trkpt>
      <trkpt lat="62.636313114314" lon="17.963913652661">
        <ele>77.4</ele>
        <time>2018-02-12T18:08:44Z</time>
      </trkpt>
      <trkpt lat="62.636295931419" lon="17.963947347899">
        <ele>77.6</ele>
        <time>2018-02-12T18:08:45Z</time>
      </trkpt>
      <trkpt lat="62.63627573104" lon="17.963971739228">
        <ele>77.6</ele>
        <time>2018-02-12T18:08:46Z</time>
      </trkpt>
      <trkpt lat="62.636255698299" lon="17.963994789453">
        <ele>77.6</ele>
        <time>2018-02-12T18:08:47Z</time>
      </trkpt>
      <trkpt lat="62.63623549792" lon="17.964019683696">
        <ele>77.4</ele>
        <time>2018-02-12T18:08:48Z</time>
      </trkpt>
      <trkpt lat="62.636213537342" lon="17.964044745577">
        <ele>77.6</ele>
        <time>2018-02-12T18:08:49Z</time>
      </trkpt>
      <trkpt lat="62.636195683895" lon="17.964066370879">
        <ele>77.6</ele>
        <time>2018-02-12T18:08:50Z</time>
      </trkpt>
      <trkpt lat="62.636176237887" lon="17.964092690045">
        <ele>77.4</ele>
        <time>2018-02-12T18:08:51Z</time>
      </trkpt>
      <trkpt lat="62.636159893182" lon="17.964115153537">
        <ele>77.4</ele>
        <time>2018-02-12T18:08:52Z</time>
      </trkpt>
      <trkpt lat="62.636141704459" lon="17.964141137427">
        <ele>77.4</ele>
        <time>2018-02-12T18:08:53Z</time>
      </trkpt>
      <trkpt lat="62.636119240967" lon="17.964164606747">
        <ele>77.4</ele>
        <time>2018-02-12T18:08:54Z</time>
      </trkpt>
      <trkpt lat="62.636100716968" lon="17.964184304212">
        <ele>77.6</ele>
        <time>2018-02-12T18:08:55Z</time>
      </trkpt>
      <trkpt lat="62.636082360607" lon="17.964209030817">
        <ele>77.6</ele>
        <time>2018-02-12T18:08:56Z</time>
      </trkpt>
      <trkpt lat="62.636057969278" lon="17.964234344155">
        <ele>77.8</ele>
        <time>2018-02-12T18:08:57Z</time>
      </trkpt>
      <trkpt lat="62.636040618745" lon="17.964252700516">
        <ele>78</ele>
        <time>2018-02-12T18:08:58Z</time>
      </trkpt>
      <trkpt lat="62.636015137769" lon="17.964278516768">
        <ele>78</ele>
        <time>2018-02-12T18:08:59Z</time>
      </trkpt>
      <trkpt lat="62.635994518295" lon="17.964299806794">
        <ele>78</ele>
        <time>2018-02-12T18:09:00Z</time>
      </trkpt>
      <trkpt lat="62.635974401735" lon="17.964317492603">
        <ele>78</ele>
        <time>2018-02-12T18:09:01Z</time>
      </trkpt>
      <trkpt lat="62.635952860252" lon="17.964336268059">
        <ele>78.2</ele>
        <time>2018-02-12T18:09:02Z</time>
      </trkpt>
      <trkpt lat="62.63593626409" lon="17.964352864221">
        <ele>78</ele>
        <time>2018-02-12T18:09:03Z</time>
      </trkpt>
      <trkpt lat="62.635919584109" lon="17.964369292745">
        <ele>78</ele>
        <time>2018-02-12T18:09:04Z</time>
      </trkpt>
      <trkpt lat="62.635898461721" lon="17.964387230011">
        <ele>78.2</ele>
        <time>2018-02-12T18:09:05Z</time>
      </trkpt>
      <trkpt lat="62.635882871387" lon="17.96440323944">
        <ele>78.2</ele>
        <time>2018-02-12T18:09:06Z</time>
      </trkpt>
      <trkpt lat="62.635864682664" lon="17.964414471186">
        <ele>78.2</ele>
        <time>2018-02-12T18:09:07Z</time>
      </trkpt>
      <trkpt lat="62.635848170321" lon="17.964424529466">
        <ele>78.2</ele>
        <time>2018-02-12T18:09:08Z</time>
      </trkpt>
      <trkpt lat="62.635828305218" lon="17.964442885827">
        <ele>78.2</ele>
        <time>2018-02-12T18:09:09Z</time>
      </trkpt>
      <trkpt lat="62.635807769563" lon="17.964458308523">
        <ele>78.2</ele>
        <time>2018-02-12T18:09:10Z</time>
      </trkpt>
      <trkpt lat="62.635785222252" lon="17.964474820866">
        <ele>78.4</ele>
        <time>2018-02-12T18:09:11Z</time>
      </trkpt>
      <trkpt lat="62.635762674941" lon="17.964496781444">
        <ele>78.4</ele>
        <time>2018-02-12T18:09:12Z</time>
      </trkpt>
      <trkpt lat="62.635741552553" lon="17.964514048158">
        <ele>78.4</ele>
        <time>2018-02-12T18:09:13Z</time>
      </trkpt>
      <trkpt lat="62.635718669966" lon="17.964534164718">
        <ele>78.4</ele>
        <time>2018-02-12T18:09:14Z</time>
      </trkpt>
      <trkpt lat="62.635695619741" lon="17.964552269622">
        <ele>78.6</ele>
        <time>2018-02-12T18:09:15Z</time>
      </trkpt>
      <trkpt lat="62.63568061614" lon="17.964564758653">
        <ele>78.8</ele>
        <time>2018-02-12T18:09:16Z</time>
      </trkpt>
      <trkpt lat="62.635651614766" lon="17.964586467774">
        <ele>79</ele>
        <time>2018-02-12T18:09:17Z</time>
      </trkpt>
      <trkpt lat="62.635628396903" lon="17.964599208262">
        <ele>79.2</ele>
        <time>2018-02-12T18:09:18Z</time>
      </trkpt>
      <trkpt lat="62.635606436325" lon="17.96461865427">
        <ele>79.4</ele>
        <time>2018-02-12T18:09:19Z</time>
      </trkpt>
      <trkpt lat="62.635583889014" lon="17.964633322595">
        <ele>79.2</ele>
        <time>2018-02-12T18:09:20Z</time>
      </trkpt>
      <trkpt lat="62.635562347531" lon="17.964648577653">
        <ele>79.2</ele>
        <time>2018-02-12T18:09:21Z</time>
      </trkpt>
      <trkpt lat="62.635542650066" lon="17.964666347281">
        <ele>79.2</ele>
        <time>2018-02-12T18:09:22Z</time>
      </trkpt>
      <trkpt lat="62.635518174918" lon="17.964682859624">
        <ele>79</ele>
        <time>2018-02-12T18:09:23Z</time>
      </trkpt>
      <trkpt lat="62.635493783589" lon="17.964699371967">
        <ele>79</ele>
        <time>2018-02-12T18:09:24Z</time>
      </trkpt>
      <trkpt lat="62.63547106864" lon="17.964713285921">
        <ele>79</ele>
        <time>2018-02-12T18:09:25Z</time>
      </trkpt>
      <trkpt lat="62.635447850777" lon="17.964724852943">
        <ele>79.2</ele>
        <time>2018-02-12T18:09:26Z</time>
      </trkpt>
      <trkpt lat="62.635426225475" lon="17.96474019182">
        <ele>79</ele>
        <time>2018-02-12T18:09:27Z</time>
      </trkpt>
      <trkpt lat="62.635407198562" lon="17.964753183765">
        <ele>79</ele>
        <time>2018-02-12T18:09:28Z</time>
      </trkpt>
      <trkpt lat="62.635380711758" lon="17.964768774099">
        <ele>79</ele>
        <time>2018-02-12T18:09:29Z</time>
      </trkpt>
      <trkpt lat="62.635360679017" lon="17.964779335293">
        <ele>79.2</ele>
        <time>2018-02-12T18:09:30Z</time>
      </trkpt>
      <trkpt lat="62.635339053715" lon="17.964789225935">
        <ele>79.2</ele>
        <time>2018-02-12T18:09:31Z</time>
      </trkpt>
      <trkpt lat="62.635318350422" lon="17.964797691654">
        <ele>79.4</ele>
        <time>2018-02-12T18:09:32Z</time>
      </trkpt>
      <trkpt lat="62.635299323509" lon="17.964808336667">
        <ele>79.2</ele>
        <time>2018-02-12T18:09:33Z</time>
      </trkpt>
      <trkpt lat="62.635280464234" lon="17.964814036359">
        <ele>79.4</ele>
        <time>2018-02-12T18:09:34Z</time>
      </trkpt>
      <trkpt lat="62.635258419837" lon="17.964823424087">
        <ele>79.6</ele>
        <time>2018-02-12T18:09:35Z</time>
      </trkpt>
      <trkpt lat="62.635236626897" lon="17.964829626693">
        <ele>79.8</ele>
        <time>2018-02-12T18:09:36Z</time>
      </trkpt>
      <trkpt lat="62.635214163405" lon="17.964837505679">
        <ele>79.8</ele>
        <time>2018-02-12T18:09:37Z</time>
      </trkpt>
      <trkpt lat="62.635193376293" lon="17.964844462656">
        <ele>80</ele>
        <time>2018-02-12T18:09:38Z</time>
      </trkpt>
      <trkpt lat="62.635172337724" lon="17.964854269479">
        <ele>80.2</ele>
        <time>2018-02-12T18:09:39Z</time>
      </trkpt>
      <trkpt lat="62.635151885888" lon="17.964863992483">
        <ele>80.2</ele>
        <time>2018-02-12T18:09:40Z</time>
      </trkpt>
      <trkpt lat="62.635129841491" lon="17.964868602528">
        <ele>80</ele>
        <time>2018-02-12T18:09:41Z</time>
      </trkpt>
      <trkpt lat="62.635108048551" lon="17.964873966944">
        <ele>80</ele>
        <time>2018-02-12T18:09:42Z</time>
      </trkpt>
      <trkpt lat="62.635087931991" lon="17.964884444319">
        <ele>80.2</ele>
        <time>2018-02-12T18:09:43Z</time>
      </trkpt>
      <trkpt lat="62.635063456843" lon="17.964895759884">
        <ele>80</ele>
        <time>2018-02-12T18:09:44Z</time>
      </trkpt>
      <trkpt lat="62.635042082998" lon="17.964901040481">
        <ele>80</ele>
        <time>2018-02-12T18:09:45Z</time>
      </trkpt>
      <trkpt lat="62.6350217988" lon="17.964904812336">
        <ele>80</ele>
        <time>2018-02-12T18:09:46Z</time>
      </trkpt>
      <trkpt lat="62.635001430783" lon="17.964906404897">
        <ele>80</ele>
        <time>2018-02-12T18:09:47Z</time>
      </trkpt>
      <trkpt lat="62.634975363074" lon="17.964911014942">
        <ele>80</ele>
        <time>2018-02-12T18:09:48Z</time>
      </trkpt>
      <trkpt lat="62.634950804107" lon="17.964911098761">
        <ele>80</ele>
        <time>2018-02-12T18:09:49Z</time>
      </trkpt>
      <trkpt lat="62.63492875971" lon="17.964912439865">
        <ele>80</ele>
        <time>2018-02-12T18:09:50Z</time>
      </trkpt>
      <trkpt lat="62.634906463856" lon="17.964915792625">
        <ele>80.2</ele>
        <time>2018-02-12T18:09:51Z</time>
      </trkpt>
      <trkpt lat="62.634884587097" lon="17.964918642471">
        <ele>80.4</ele>
        <time>2018-02-12T18:09:52Z</time>
      </trkpt>
      <trkpt lat="62.634861620691" lon="17.964921827593">
        <ele>80.6</ele>
        <time>2018-02-12T18:09:53Z</time>
      </trkpt>
      <trkpt lat="62.634836223534" lon="17.96492291724">
        <ele>80.6</ele>
        <time>2018-02-12T18:09:54Z</time>
      </trkpt>
      <trkpt lat="62.634813508585" lon="17.964922749602">
        <ele>80.8</ele>
        <time>2018-02-12T18:09:55Z</time>
      </trkpt>
      <trkpt lat="62.634793475844" lon="17.964921827593">
        <ele>81</ele>
        <time>2018-02-12T18:09:56Z</time>
      </trkpt>
      <trkpt lat="62.634768497782" lon="17.964921911412">
        <ele>80.8</ele>
        <time>2018-02-12T18:09:57Z</time>
      </trkpt>
      <trkpt lat="62.63475022524" lon="17.964924425982">
        <ele>80.8</ele>
        <time>2018-02-12T18:09:58Z</time>
      </trkpt>
      <trkpt lat="62.634725582454" lon="17.964926186181">
        <ele>80.6</ele>
        <time>2018-02-12T18:09:59Z</time>
      </trkpt>
      <trkpt lat="62.634701358763" lon="17.96492459362">
        <ele>80.8</ele>
        <time>2018-02-12T18:10:00Z</time>
      </trkpt>
      <trkpt lat="62.634679565823" lon="17.964926018543">
        <ele>81</ele>
        <time>2018-02-12T18:10:01Z</time>
      </trkpt>
      <trkpt lat="62.634657437607" lon="17.964929790398">
        <ele>81</ele>
        <time>2018-02-12T18:10:02Z</time>
      </trkpt>
      <trkpt lat="62.634636566676" lon="17.964932304968">
        <ele>81.2</ele>
        <time>2018-02-12T18:10:03Z</time>
      </trkpt>
      <trkpt lat="62.634613684089" lon="17.964931466778">
        <ele>81.2</ele>
        <time>2018-02-12T18:10:04Z</time>
      </trkpt>
      <trkpt lat="62.634590214769" lon="17.964928533113">
        <ele>81.2</ele>
        <time>2018-02-12T18:10:05Z</time>
      </trkpt>
      <trkpt lat="62.63456666163" lon="17.964925515629">
        <ele>81.4</ele>
        <time>2018-02-12T18:10:06Z</time>
      </trkpt>
      <trkpt lat="62.634543695224" lon="17.964927359647">
        <ele>81.6</ele>
        <time>2018-02-12T18:10:07Z</time>
      </trkpt>
      <trkpt lat="62.634522991931" lon="17.964930712407">
        <ele>81.8</ele>
        <time>2018-02-12T18:10:08Z</time>
      </trkpt>
      <trkpt lat="62.634497762412" lon="17.964929706579">
        <ele>81.8</ele>
        <time>2018-02-12T18:10:09Z</time>
      </trkpt>
      <trkpt lat="62.63447781349" lon="17.964933478434">
        <ele>81.8</ele>
        <time>2018-02-12T18:10:10Z</time>
      </trkpt>
      <trkpt lat="62.63445350598" lon="17.964937417927">
        <ele>81.8</ele>
        <time>2018-02-12T18:10:11Z</time>
      </trkpt>
      <trkpt lat="62.634429869022" lon="17.964939764859">
        <ele>81.8</ele>
        <time>2018-02-12T18:10:12Z</time>
      </trkpt>
      <trkpt lat="62.634408998091" lon="17.964938507574">
        <ele>81.8</ele>
        <time>2018-02-12T18:10:13Z</time>
      </trkpt>
      <trkpt lat="62.634384355305" lon="17.96493381371">
        <ele>81.6</ele>
        <time>2018-02-12T18:10:14Z</time>
      </trkpt>
      <trkpt lat="62.634356527397" lon="17.964935406271">
        <ele>81.6</ele>
        <time>2018-02-12T18:10:15Z</time>
      </trkpt>
      <trkpt lat="62.634335488828" lon="17.964935825366">
        <ele>81.4</ele>
        <time>2018-02-12T18:10:16Z</time>
      </trkpt>
      <trkpt lat="62.634308582929" lon="17.964934148986">
        <ele>81.4</ele>
        <time>2018-02-12T18:10:17Z</time>
      </trkpt>
      <trkpt lat="62.634289807473" lon="17.964936663556">
        <ele>81.6</ele>
        <time>2018-02-12T18:10:18Z</time>
      </trkpt>
      <trkpt lat="62.634262650117" lon="17.964942698524">
        <ele>81.6</ele>
        <time>2018-02-12T18:10:19Z</time>
      </trkpt>
      <trkpt lat="62.634240521901" lon="17.964944458723">
        <ele>81.4</ele>
        <time>2018-02-12T18:10:20Z</time>
      </trkpt>
      <trkpt lat="62.634216884943" lon="17.964946218922">
        <ele>81.6</ele>
        <time>2018-02-12T18:10:21Z</time>
      </trkpt>
      <trkpt lat="62.634191823062" lon="17.964945716008">
        <ele>81.6</ele>
        <time>2018-02-12T18:10:22Z</time>
      </trkpt>
      <trkpt lat="62.634169108113" lon="17.964946218922">
        <ele>81.8</ele>
        <time>2018-02-12T18:10:23Z</time>
      </trkpt>
      <trkpt lat="62.634144130051" lon="17.964944793999">
        <ele>81.8</ele>
        <time>2018-02-12T18:10:24Z</time>
      </trkpt>
      <trkpt lat="62.634120241636" lon="17.964942447067">
        <ele>82</ele>
        <time>2018-02-12T18:10:25Z</time>
      </trkpt>
      <trkpt lat="62.634096939954" lon="17.964938339936">
        <ele>82</ele>
        <time>2018-02-12T18:10:26Z</time>
      </trkpt>
      <trkpt lat="62.634071626616" lon="17.964937250289">
        <ele>82.2</ele>
        <time>2018-02-12T18:10:27Z</time>
      </trkpt>
      <trkpt lat="62.634051845332" lon="17.964934232805">
        <ele>82.2</ele>
        <time>2018-02-12T18:10:28Z</time>
      </trkpt>
      <trkpt lat="62.634025861442" lon="17.96493297552">
        <ele>82.2</ele>
        <time>2018-02-12T18:10:29Z</time>
      </trkpt>
      <trkpt lat="62.633999374638" lon="17.96492878457">
        <ele>82.2</ele>
        <time>2018-02-12T18:10:30Z</time>
      </trkpt>
      <trkpt lat="62.633977162603" lon="17.964930963864">
        <ele>82.4</ele>
        <time>2018-02-12T18:10:31Z</time>
      </trkpt>
      <trkpt lat="62.63395226836" lon="17.964932640244">
        <ele>82.4</ele>
        <time>2018-02-12T18:10:32Z</time>
      </trkpt>
      <trkpt lat="62.633931062153" lon="17.96493381371">
        <ele>82.2</ele>
        <time>2018-02-12T18:10:33Z</time>
      </trkpt>
      <trkpt lat="62.633909436851" lon="17.964937082651">
        <ele>82.4</ele>
        <time>2018-02-12T18:10:34Z</time>
      </trkpt>
      <trkpt lat="62.633886805721" lon="17.964942111791">
        <ele>82.4</ele>
        <time>2018-02-12T18:10:35Z</time>
      </trkpt>
      <trkpt lat="62.633869371369" lon="17.964961809256">
        <ele>82.6</ele>
        <time>2018-02-12T18:10:36Z</time>
      </trkpt>
      <trkpt lat="62.633856882338" lon="17.964996175046">
        <ele>82.6</ele>
        <time>2018-02-12T18:10:37Z</time>
      </trkpt>
      <trkpt lat="62.633848751895" lon="17.965036491985">
        <ele>82.6</ele>
        <time>2018-02-12T18:10:38Z</time>
      </trkpt>
      <trkpt lat="62.633844225669" lon="17.965075300182">
        <ele>82.8</ele>
        <time>2018-02-12T18:10:39Z</time>
      </trkpt>
      <trkpt lat="62.633842046375" lon="17.965115449483">
        <ele>82.8</ele>
        <time>2018-02-12T18:10:40Z</time>
      </trkpt>
      <trkpt lat="62.633841543461" lon="17.965165573245">
        <ele>83</ele>
        <time>2018-02-12T18:10:41Z</time>
      </trkpt>
      <trkpt lat="62.633844896221" lon="17.965205303451">
        <ele>83</ele>
        <time>2018-02-12T18:10:42Z</time>
      </trkpt>
      <trkpt lat="62.633845482954" lon="17.965246877675">
        <ele>83.2</ele>
        <time>2018-02-12T18:10:43Z</time>
      </trkpt>
      <trkpt lat="62.63384581823" lon="17.965292810487">
        <ele>83.4</ele>
        <time>2018-02-12T18:10:44Z</time>
      </trkpt>
      <trkpt lat="62.633848584257" lon="17.965330780494">
        <ele>83.6</ele>
        <time>2018-02-12T18:10:45Z</time>
      </trkpt>
      <trkpt lat="62.633849422447" lon="17.965369001958">
        <ele>83.8</ele>
        <time>2018-02-12T18:10:46Z</time>
      </trkpt>
      <trkpt lat="62.633853445759" lon="17.965413593666">
        <ele>84</ele>
        <time>2018-02-12T18:10:47Z</time>
      </trkpt>
      <trkpt lat="62.63385503832" lon="17.965451144578">
        <ele>84.2</ele>
        <time>2018-02-12T18:10:48Z</time>
      </trkpt>
      <trkpt lat="62.633858726356" lon="17.965503950548">
        <ele>84.4</ele>
        <time>2018-02-12T18:10:49Z</time>
      </trkpt>
      <trkpt lat="62.633861324745" lon="17.965544099849">
        <ele>84.6</ele>
        <time>2018-02-12T18:10:50Z</time>
      </trkpt>
      <trkpt lat="62.633862162935" lon="17.965587769548">
        <ele>84.8</ele>
        <time>2018-02-12T18:10:51Z</time>
      </trkpt>
      <trkpt lat="62.633863671677" lon="17.965630936333">
        <ele>85</ele>
        <time>2018-02-12T18:10:52Z</time>
      </trkpt>
      <trkpt lat="62.633865850971" lon="17.96567561186">
        <ele>85.2</ele>
        <time>2018-02-12T18:10:53Z</time>
      </trkpt>
      <trkpt lat="62.633867192075" lon="17.965729507477">
        <ele>85.4</ele>
        <time>2018-02-12T18:10:54Z</time>
      </trkpt>
      <trkpt lat="62.633867192075" lon="17.965772506624">
        <ele>85.6</ele>
        <time>2018-02-12T18:10:55Z</time>
      </trkpt>
      <trkpt lat="62.633865683333" lon="17.965822714205">
        <ele>85.6</ele>
        <time>2018-02-12T18:10:56Z</time>
      </trkpt>
      <trkpt lat="62.633864928962" lon="17.965874430528">
        <ele>86</ele>
        <time>2018-02-12T18:10:57Z</time>
      </trkpt>
      <trkpt lat="62.633865850971" lon="17.965914160734">
        <ele>86</ele>
        <time>2018-02-12T18:10:58Z</time>
      </trkpt>
      <trkpt lat="62.633863587858" lon="17.965976857346">
        <ele>86</ele>
        <time>2018-02-12T18:10:59Z</time>
      </trkpt>
      <trkpt lat="62.633860486555" lon="17.966022119606">
        <ele>86.2</ele>
        <time>2018-02-12T18:11:00Z</time>
      </trkpt>
      <trkpt lat="62.633853864854" lon="17.966066878952">
        <ele>86.6</ele>
        <time>2018-02-12T18:11:01Z</time>
      </trkpt>
      <trkpt lat="62.633846740239" lon="17.966111051565">
        <ele>86.6</ele>
        <time>2018-02-12T18:11:02Z</time>
      </trkpt>
      <trkpt lat="62.633839699443" lon="17.96614416007">
        <ele>86.6</ele>
        <time>2018-02-12T18:11:03Z</time>
      </trkpt>
      <trkpt lat="62.633825785489" lon="17.96618439319">
        <ele>86.8</ele>
        <time>2018-02-12T18:11:04Z</time>
      </trkpt>
      <trkpt lat="62.633809105508" lon="17.966219178075">
        <ele>86.8</ele>
        <time>2018-02-12T18:11:05Z</time>
      </trkpt>
      <trkpt lat="62.633790246233" lon="17.966249017639">
        <ele>87</ele>
        <time>2018-02-12T18:11:06Z</time>
      </trkpt>
      <trkpt lat="62.633768369474" lon="17.96627491771">
        <ele>87</ele>
        <time>2018-02-12T18:11:07Z</time>
      </trkpt>
      <trkpt lat="62.633748336733" lon="17.966292435881">
        <ele>87</ele>
        <time>2018-02-12T18:11:08Z</time>
      </trkpt>
      <trkpt lat="62.633724867413" lon="17.966308696767">
        <ele>87.2</ele>
        <time>2018-02-12T18:11:09Z</time>
      </trkpt>
      <trkpt lat="62.63370081136" lon="17.966311714251">
        <ele>87.4</ele>
        <time>2018-02-12T18:11:10Z</time>
      </trkpt>
      <trkpt lat="62.633677090583" lon="17.966317497762">
        <ele>87.6</ele>
        <time>2018-02-12T18:11:11Z</time>
      </trkpt>
      <trkpt lat="62.633653621263" lon="17.966320515246">
        <ele>87.6</ele>
        <time>2018-02-12T18:11:12Z</time>
      </trkpt>
      <trkpt lat="62.63362956521" lon="17.966319844694">
        <ele>87.6</ele>
        <time>2018-02-12T18:11:13Z</time>
      </trkpt>
      <trkpt lat="62.633605760614" lon="17.966320682884">
        <ele>87.8</ele>
        <time>2018-02-12T18:11:14Z</time>
      </trkpt>
      <trkpt lat="62.633580531095" lon="17.966319844694">
        <ele>87.8</ele>
        <time>2018-02-12T18:11:15Z</time>
      </trkpt>
      <trkpt lat="62.633557648508" lon="17.966314396459">
        <ele>87.8</ele>
        <time>2018-02-12T18:11:16Z</time>
      </trkpt>
      <trkpt lat="62.633535436473" lon="17.966311881889">
        <ele>87.6</ele>
        <time>2018-02-12T18:11:17Z</time>
      </trkpt>
      <trkpt lat="62.633512805343" lon="17.96631347445">
        <ele>87.6</ele>
        <time>2018-02-12T18:11:18Z</time>
      </trkpt>
      <trkpt lat="62.633482965779" lon="17.966318335952">
        <ele>87.4</ele>
        <time>2018-02-12T18:11:19Z</time>
      </trkpt>
      <trkpt lat="62.633459580278" lon="17.966326969309">
        <ele>87.4</ele>
        <time>2018-02-12T18:11:20Z</time>
      </trkpt>
      <trkpt lat="62.633434686035" lon="17.966324454739">
        <ele>87.2</ele>
        <time>2018-02-12T18:11:21Z</time>
      </trkpt>
      <trkpt lat="62.633410629982" lon="17.966327556042">
        <ele>87.2</ele>
        <time>2018-02-12T18:11:22Z</time>
      </trkpt>
      <trkpt lat="62.63338816649" lon="17.966334345381">
        <ele>87.2</ele>
        <time>2018-02-12T18:11:23Z</time>
      </trkpt>
      <trkpt lat="62.633361176772" lon="17.966337111408">
        <ele>87.2</ele>
        <time>2018-02-12T18:11:24Z</time>
      </trkpt>
      <trkpt lat="62.633336114891" lon="17.966336859951">
        <ele>87.2</ele>
        <time>2018-02-12T18:11:25Z</time>
      </trkpt>
      <trkpt lat="62.633314741046" lon="17.966335770304">
        <ele>87</ele>
        <time>2018-02-12T18:11:26Z</time>
      </trkpt>
      <trkpt lat="62.633288086604" lon="17.966336021761">
        <ele>86.8</ele>
        <time>2018-02-12T18:11:27Z</time>
      </trkpt>
      <trkpt lat="62.633267048035" lon="17.966334093924">
        <ele>86.8</ele>
        <time>2018-02-12T18:11:28Z</time>
      </trkpt>
      <trkpt lat="62.633240393593" lon="17.96633945834">
        <ele>86.8</ele>
        <time>2018-02-12T18:11:29Z</time>
      </trkpt>
      <trkpt lat="62.633213655332" lon="17.966342392005">
        <ele>86.6</ele>
        <time>2018-02-12T18:11:30Z</time>
      </trkpt>
      <trkpt lat="62.633190102193" lon="17.966350019534">
        <ele>86.6</ele>
        <time>2018-02-12T18:11:31Z</time>
      </trkpt>
      <trkpt lat="62.633166381416" lon="17.96635873671">
        <ele>86.8</ele>
        <time>2018-02-12T18:11:32Z</time>
      </trkpt>
      <trkpt lat="62.633143666467" lon="17.966353623751">
        <ele>86.8</ele>
        <time>2018-02-12T18:11:33Z</time>
      </trkpt>
      <trkpt lat="62.633117934034" lon="17.966351109181">
        <ele>86.8</ele>
        <time>2018-02-12T18:11:34Z</time>
      </trkpt>
      <trkpt lat="62.633093207429" lon="17.966344738937">
        <ele>87</ele>
        <time>2018-02-12T18:11:35Z</time>
      </trkpt>
      <trkpt lat="62.633066469168" lon="17.966342392005">
        <ele>87</ele>
        <time>2018-02-12T18:11:36Z</time>
      </trkpt>
      <trkpt lat="62.633043838038" lon="17.9663428111">
        <ele>87</ele>
        <time>2018-02-12T18:11:37Z</time>
      </trkpt>
      <trkpt lat="62.633023134745" lon="17.966341721453">
        <ele>86.8</ele>
        <time>2018-02-12T18:11:38Z</time>
      </trkpt>
      <trkpt lat="62.632995474475" lon="17.966341805272">
        <ele>86.8</ele>
        <time>2018-02-12T18:11:39Z</time>
      </trkpt>
      <trkpt lat="62.632972675707" lon="17.966348007878">
        <ele>86.4</ele>
        <time>2018-02-12T18:11:40Z</time>
      </trkpt>
      <trkpt lat="62.632946524179" lon="17.966348762249">
        <ele>86.4</ele>
        <time>2018-02-12T18:11:41Z</time>
      </trkpt>
      <trkpt lat="62.632920121194" lon="17.966352198828">
        <ele>86.4</ele>
        <time>2018-02-12T18:11:42Z</time>
      </trkpt>
      <trkpt lat="62.632896568055" lon="17.966357647063">
        <ele>86.4</ele>
        <time>2018-02-12T18:11:43Z</time>
      </trkpt>
      <trkpt lat="62.632869159242" lon="17.966364855497">
        <ele>86.4</ele>
        <time>2018-02-12T18:11:44Z</time>
      </trkpt>
      <trkpt lat="62.632843762085" lon="17.96636292766">
        <ele>86.4</ele>
        <time>2018-02-12T18:11:45Z</time>
      </trkpt>
      <trkpt lat="62.632821466231" lon="17.966366699515">
        <ele>86.4</ele>
        <time>2018-02-12T18:11:46Z</time>
      </trkpt>
      <trkpt lat="62.632795398522" lon="17.966367705343">
        <ele>86.4</ele>
        <time>2018-02-12T18:11:47Z</time>
      </trkpt>
      <trkpt lat="62.632774276134" lon="17.966371393379">
        <ele>86.2</ele>
        <time>2018-02-12T18:11:48Z</time>
      </trkpt>
      <trkpt lat="62.63274695114" lon="17.966374075587">
        <ele>86.2</ele>
        <time>2018-02-12T18:11:49Z</time>
      </trkpt>
      <trkpt lat="62.632723230363" lon="17.966376673976">
        <ele>86.2</ele>
        <time>2018-02-12T18:11:50Z</time>
      </trkpt>
      <trkpt lat="62.632697078835" lon="17.9663763387">
        <ele>86.2</ele>
        <time>2018-02-12T18:11:51Z</time>
      </trkpt>
      <trkpt lat="62.632674699162" lon="17.966376003424">
        <ele>86</ele>
        <time>2018-02-12T18:11:52Z</time>
      </trkpt>
      <trkpt lat="62.632647793263" lon="17.966384552962">
        <ele>86</ele>
        <time>2018-02-12T18:11:53Z</time>
      </trkpt>
      <trkpt lat="62.632619797717" lon="17.966374243225">
        <ele>85.8</ele>
        <time>2018-02-12T18:11:54Z</time>
      </trkpt>
      <trkpt lat="62.632596747492" lon="17.96636292766">
        <ele>85.8</ele>
        <time>2018-02-12T18:11:55Z</time>
      </trkpt>
      <trkpt lat="62.632573110534" lon="17.966359407262">
        <ele>85.6</ele>
        <time>2018-02-12T18:11:56Z</time>
      </trkpt>
      <trkpt lat="62.632547881015" lon="17.966353456113">
        <ele>85.4</ele>
        <time>2018-02-12T18:11:57Z</time>
      </trkpt>
      <trkpt lat="62.632527932093" lon="17.966353204656">
        <ele>85.2</ele>
        <time>2018-02-12T18:11:58Z</time>
      </trkpt>
      <trkpt lat="62.632499601271" lon="17.96634700205">
        <ele>85</ele>
        <time>2018-02-12T18:11:59Z</time>
      </trkpt>
      <trkpt lat="62.632474707028" lon="17.966339542159">
        <ele>84.8</ele>
        <time>2018-02-12T18:12:00Z</time>
      </trkpt>
      <trkpt lat="62.632452327355" lon="17.966338452512">
        <ele>84.8</ele>
        <time>2018-02-12T18:12:01Z</time>
      </trkpt>
      <trkpt lat="62.632427349293" lon="17.966330070612">
        <ele>84.6</ele>
        <time>2018-02-12T18:12:02Z</time>
      </trkpt>
      <trkpt lat="62.632405221077" lon="17.966323365092">
        <ele>84.4</ele>
        <time>2018-02-12T18:12:03Z</time>
      </trkpt>
      <trkpt lat="62.632380829748" lon="17.966316240477">
        <ele>84.4</ele>
        <time>2018-02-12T18:12:04Z</time>
      </trkpt>
      <trkpt lat="62.63235384003" lon="17.966305427826">
        <ele>84.4</ele>
        <time>2018-02-12T18:12:05Z</time>
      </trkpt>
      <trkpt lat="62.632327353226" lon="17.966297800297">
        <ele>84.2</ele>
        <time>2018-02-12T18:12:06Z</time>
      </trkpt>
      <trkpt lat="62.632303716268" lon="17.966297045926">
        <ele>84.2</ele>
        <time>2018-02-12T18:12:07Z</time>
      </trkpt>
      <trkpt lat="62.632278235292" lon="17.966301320695">
        <ele>84.2</ele>
        <time>2018-02-12T18:12:08Z</time>
      </trkpt>
      <trkpt lat="62.632249317737" lon="17.966319174142">
        <ele>84.2</ele>
        <time>2018-02-12T18:12:09Z</time>
      </trkpt>
      <trkpt lat="62.63222978791" lon="17.966340967082">
        <ele>84.2</ele>
        <time>2018-02-12T18:12:10Z</time>
      </trkpt>
      <trkpt lat="62.632206821504" lon="17.966377679804">
        <ele>84</ele>
        <time>2018-02-12T18:12:11Z</time>
      </trkpt>
      <trkpt lat="62.632194164835" lon="17.966414560164">
        <ele>83.8</ele>
        <time>2018-02-12T18:12:12Z</time>
      </trkpt>
      <trkpt lat="62.632186285849" lon="17.966456218207">
        <ele>83.6</ele>
        <time>2018-02-12T18:12:13Z</time>
      </trkpt>
      <trkpt lat="62.632178993596" lon="17.966506761064">
        <ele>83.6</ele>
        <time>2018-02-12T18:12:14Z</time>
      </trkpt>
      <trkpt lat="62.632177903949" lon="17.966549173478">
        <ele>83.6</ele>
        <time>2018-02-12T18:12:15Z</time>
      </trkpt>
      <trkpt lat="62.632174802646" lon="17.966594016643">
        <ele>83.6</ele>
        <time>2018-02-12T18:12:16Z</time>
      </trkpt>
      <trkpt lat="62.632171785162" lon="17.966632405745">
        <ele>83.8</ele>
        <time>2018-02-12T18:12:17Z</time>
      </trkpt>
      <trkpt lat="62.632168264764" lon="17.966677668005">
        <ele>84</ele>
        <time>2018-02-12T18:12:18Z</time>
      </trkpt>
      <trkpt lat="62.632166336927" lon="17.966732150355">
        <ele>84.2</ele>
        <time>2018-02-12T18:12:19Z</time>
      </trkpt>
      <trkpt lat="62.632161223968" lon="17.966780933013">
        <ele>84.4</ele>
        <time>2018-02-12T18:12:20Z</time>
      </trkpt>
      <trkpt lat="62.632160469597" lon="17.966825357083">
        <ele>84.6</ele>
        <time>2018-02-12T18:12:21Z</time>
      </trkpt>
      <trkpt lat="62.632160301959" lon="17.966851927706">
        <ele>85</ele>
        <time>2018-02-12T18:12:22Z</time>
      </trkpt>
      <trkpt lat="62.632155524276" lon="17.966911858291">
        <ele>85.2</ele>
        <time>2018-02-12T18:12:23Z</time>
      </trkpt>
      <trkpt lat="62.632151920059" lon="17.966951672316">
        <ele>85.6</ele>
        <time>2018-02-12T18:12:24Z</time>
      </trkpt>
      <trkpt lat="62.632148818756" lon="17.966997186033">
        <ele>85.8</ele>
        <time>2018-02-12T18:12:25Z</time>
      </trkpt>
      <trkpt lat="62.632144460168" lon="17.967045633415">
        <ele>86.2</ele>
        <time>2018-02-12T18:12:26Z</time>
      </trkpt>
      <trkpt lat="62.632143286702" lon="17.967089386933">
        <ele>86.4</ele>
        <time>2018-02-12T18:12:27Z</time>
      </trkpt>
      <trkpt lat="62.632138844295" lon="17.967128362768">
        <ele>86.6</ele>
        <time>2018-02-12T18:12:28Z</time>
      </trkpt>
      <trkpt lat="62.632131049128" lon="17.96718183929">
        <ele>86.8</ele>
        <time>2018-02-12T18:12:29Z</time>
      </trkpt>
      <trkpt lat="62.632126355264" lon="17.96722458698">
        <ele>87</ele>
        <time>2018-02-12T18:12:30Z</time>
      </trkpt>
      <trkpt lat="62.632119063011" lon="17.967272782905">
        <ele>87</ele>
        <time>2018-02-12T18:12:31Z</time>
      </trkpt>
      <trkpt lat="62.632107998903" lon="17.967317123156">
        <ele>87.2</ele>
        <time>2018-02-12T18:12:32Z</time>
      </trkpt>
      <trkpt lat="62.632099784641" lon="17.967345370159">
        <ele>87.2</ele>
        <time>2018-02-12T18:12:33Z</time>
      </trkpt>
      <trkpt lat="62.632087379429" lon="17.967389542772">
        <ele>87.4</ele>
        <time>2018-02-12T18:12:34Z</time>
      </trkpt>
      <trkpt lat="62.632072711104" lon="17.967430697901">
        <ele>87.6</ele>
        <time>2018-02-12T18:12:35Z</time>
      </trkpt>
      <trkpt lat="62.632061898453" lon="17.967466320976">
        <ele>87.6</ele>
        <time>2018-02-12T18:12:36Z</time>
      </trkpt>
      <trkpt lat="62.632049157965" lon="17.967507476105">
        <ele>87.8</ele>
        <time>2018-02-12T18:12:37Z</time>
      </trkpt>
      <trkpt lat="62.632037423305" lon="17.96754645194">
        <ele>88</ele>
        <time>2018-02-12T18:12:38Z</time>
      </trkpt>
      <trkpt lat="62.632025940102" lon="17.96758081773">
        <ele>88.2</ele>
        <time>2018-02-12T18:12:39Z</time>
      </trkpt>
      <trkpt lat="62.6320126967" lon="17.967615518796">
        <ele>88.6</ele>
        <time>2018-02-12T18:12:40Z</time>
      </trkpt>
      <trkpt lat="62.631999537117" lon="17.9676503875">
        <ele>88.6</ele>
        <time>2018-02-12T18:12:41Z</time>
      </trkpt>
      <trkpt lat="62.631987886276" lon="17.967684501833">
        <ele>89</ele>
        <time>2018-02-12T18:12:42Z</time>
      </trkpt>
      <trkpt lat="62.631974894331" lon="17.96772163365">
        <ele>89</ele>
        <time>2018-02-12T18:12:43Z</time>
      </trkpt>
      <trkpt lat="62.631967350621" lon="17.96776857229">
        <ele>89.4</ele>
        <time>2018-02-12T18:12:44Z</time>
      </trkpt>
      <trkpt lat="62.631964416956" lon="17.967810230333">
        <ele>89.6</ele>
        <time>2018-02-12T18:12:45Z</time>
      </trkpt>
      <trkpt lat="62.63195569978" lon="17.967852978023">
        <ele>89.8</ele>
        <time>2018-02-12T18:12:46Z</time>
      </trkpt>
      <trkpt lat="62.631941869645" lon="17.967892456772">
        <ele>90</ele>
        <time>2018-02-12T18:12:47Z</time>
      </trkpt>
      <trkpt lat="62.631933152469" lon="17.967919362671">
        <ele>90.2</ele>
        <time>2018-02-12T18:12:48Z</time>
      </trkpt>
      <trkpt lat="62.631920831076" lon="17.967959511972">
        <ele>90.2</ele>
        <time>2018-02-12T18:12:49Z</time>
      </trkpt>
      <trkpt lat="62.631909515511" lon="17.967993123391">
        <ele>90.4</ele>
        <time>2018-02-12T18:12:50Z</time>
      </trkpt>
      <trkpt lat="62.631898786679" lon="17.968022040946">
        <ele>90.4</ele>
        <time>2018-02-12T18:12:51Z</time>
      </trkpt>
      <trkpt lat="62.631886884381" lon="17.968049952673">
        <ele>90.6</ele>
        <time>2018-02-12T18:12:52Z</time>
      </trkpt>
      <trkpt lat="62.631877161377" lon="17.968079037866">
        <ele>90.6</ele>
        <time>2018-02-12T18:12:53Z</time>
      </trkpt>
      <trkpt lat="62.631866935459" lon="17.968110889086">
        <ele>90.8</ele>
        <time>2018-02-12T18:12:54Z</time>
      </trkpt>
      <trkpt lat="62.631854111152" lon="17.96813821408">
        <ele>90.8</ele>
        <time>2018-02-12T18:12:55Z</time>
      </trkpt>
      <trkpt lat="62.631844471967" lon="17.968166377264">
        <ele>91</ele>
        <time>2018-02-12T18:12:56Z</time>
      </trkpt>
      <trkpt lat="62.631833659316" lon="17.968192528792">
        <ele>91.2</ele>
        <time>2018-02-12T18:12:57Z</time>
      </trkpt>
      <trkpt lat="62.631823768674" lon="17.968222787451">
        <ele>91.4</ele>
        <time>2018-02-12T18:12:58Z</time>
      </trkpt>
      <trkpt lat="62.631812956023" lon="17.968256315051">
        <ele>91.6</ele>
        <time>2018-02-12T18:12:59Z</time>
      </trkpt>
      <trkpt lat="62.631801389001" lon="17.968289172099">
        <ele>91.8</ele>
        <time>2018-02-12T18:13:00Z</time>
      </trkpt>
      <trkpt lat="62.631787726504" lon="17.968319095482">
        <ele>92</ele>
        <time>2018-02-12T18:13:01Z</time>
      </trkpt>
      <trkpt lat="62.63177884169" lon="17.968353964186">
        <ele>92</ele>
        <time>2018-02-12T18:13:02Z</time>
      </trkpt>
      <trkpt lat="62.631769118686" lon="17.968384558121">
        <ele>92.2</ele>
        <time>2018-02-12T18:13:03Z</time>
      </trkpt>
      <trkpt lat="62.631757635483" lon="17.968417666626">
        <ele>92.2</ele>
        <time>2018-02-12T18:13:04Z</time>
      </trkpt>
      <trkpt lat="62.631749840316" lon="17.968452116235">
        <ele>92.6</ele>
        <time>2018-02-12T18:13:05Z</time>
      </trkpt>
      <trkpt lat="62.631738524751" lon="17.968492349355">
        <ele>92.8</ele>
        <time>2018-02-12T18:13:06Z</time>
      </trkpt>
      <trkpt lat="62.631728131195" lon="17.968525374041">
        <ele>93</ele>
        <time>2018-02-12T18:13:07Z</time>
      </trkpt>
      <trkpt lat="62.631722934417" lon="17.968550855017">
        <ele>93</ele>
        <time>2018-02-12T18:13:08Z</time>
      </trkpt>
      <trkpt lat="62.631714720155" lon="17.968586813368">
        <ele>93</ele>
        <time>2018-02-12T18:13:09Z</time>
      </trkpt>
      <trkpt lat="62.631705500065" lon="17.968618748407">
        <ele>93</ele>
        <time>2018-02-12T18:13:10Z</time>
      </trkpt>
      <trkpt lat="62.631699800373" lon="17.968653868568">
        <ele>93</ele>
        <time>2018-02-12T18:13:11Z</time>
      </trkpt>
      <trkpt lat="62.631691753749" lon="17.96868387577">
        <ele>93.2</ele>
        <time>2018-02-12T18:13:12Z</time>
      </trkpt>
      <trkpt lat="62.631683455668" lon="17.968708937651">
        <ele>93.2</ele>
        <time>2018-02-12T18:13:13Z</time>
      </trkpt>
      <trkpt lat="62.631679851451" lon="17.968737939025">
        <ele>93.4</ele>
        <time>2018-02-12T18:13:14Z</time>
      </trkpt>
      <trkpt lat="62.631676414872" lon="17.968766940399">
        <ele>93.6</ele>
        <time>2018-02-12T18:13:15Z</time>
      </trkpt>
      <trkpt lat="62.631672307741" lon="17.968801976741">
        <ele>94</ele>
        <time>2018-02-12T18:13:16Z</time>
      </trkpt>
      <trkpt lat="62.631671050456" lon="17.968840282024">
        <ele>94.2</ele>
        <time>2018-02-12T18:13:17Z</time>
      </trkpt>
      <trkpt lat="62.631673313569" lon="17.968876491832">
        <ele>94.2</ele>
        <time>2018-02-12T18:13:18Z</time>
      </trkpt>
      <trkpt lat="62.631672559198" lon="17.96893365639">
        <ele>94.4</ele>
        <time>2018-02-12T18:13:19Z</time>
      </trkpt>
      <trkpt lat="62.631676163415" lon="17.968972548406">
        <ele>94.6</ele>
        <time>2018-02-12T18:13:20Z</time>
      </trkpt>
      <trkpt lat="62.631680522003" lon="17.969012613888">
        <ele>95</ele>
        <time>2018-02-12T18:13:21Z</time>
      </trkpt>
      <trkpt lat="62.631683204211" lon="17.969052176456">
        <ele>95.2</ele>
        <time>2018-02-12T18:13:22Z</time>
      </trkpt>
      <trkpt lat="62.631687981894" lon="17.969089140635">
        <ele>95.4</ele>
        <time>2018-02-12T18:13:23Z</time>
      </trkpt>
      <trkpt lat="62.631696363794" lon="17.969126607728">
        <ele>95.6</ele>
        <time>2018-02-12T18:13:24Z</time>
      </trkpt>
      <trkpt lat="62.631703991323" lon="17.969170277427">
        <ele>96</ele>
        <time>2018-02-12T18:13:25Z</time>
      </trkpt>
      <trkpt lat="62.631709691015" lon="17.969207409244">
        <ele>96.2</ele>
        <time>2018-02-12T18:13:26Z</time>
      </trkpt>
      <trkpt lat="62.631717150906" lon="17.969244960156">
        <ele>96.4</ele>
        <time>2018-02-12T18:13:27Z</time>
      </trkpt>
      <trkpt lat="62.631725532806" lon="17.96928150524">
        <ele>96.6</ele>
        <time>2018-02-12T18:13:28Z</time>
      </trkpt>
      <trkpt lat="62.631735423448" lon="17.969321570722">
        <ele>96.6</ele>
        <time>2018-02-12T18:13:29Z</time>
      </trkpt>
      <trkpt lat="62.631746068461" lon="17.969354176313">
        <ele>96.8</ele>
        <time>2018-02-12T18:13:30Z</time>
      </trkpt>
      <trkpt lat="62.63175621056" lon="17.969387452456">
        <ele>97</ele>
        <time>2018-02-12T18:13:31Z</time>
      </trkpt>
      <trkpt lat="62.631766436478" lon="17.969416202373">
        <ele>97</ele>
        <time>2018-02-12T18:13:32Z</time>
      </trkpt>
      <trkpt lat="62.631777332948" lon="17.96943908496">
        <ele>97.2</ele>
        <time>2018-02-12T18:13:33Z</time>
      </trkpt>
      <trkpt lat="62.631791582178" lon="17.969470349447">
        <ele>97.4</ele>
        <time>2018-02-12T18:13:34Z</time>
      </trkpt>
      <trkpt lat="62.631805496132" lon="17.969494573138">
        <ele>97.4</ele>
        <time>2018-02-12T18:13:35Z</time>
      </trkpt>
      <trkpt lat="62.631818990991" lon="17.969514605879">
        <ele>97.6</ele>
        <time>2018-02-12T18:13:36Z</time>
      </trkpt>
      <trkpt lat="62.631838939913" lon="17.969535895905">
        <ele>97.6</ele>
        <time>2018-02-12T18:13:37Z</time>
      </trkpt>
      <trkpt lat="62.63185427879" lon="17.969546121823">
        <ele>97.8</ele>
        <time>2018-02-12T18:13:38Z</time>
      </trkpt>
      <trkpt lat="62.631875149721" lon="17.969556515379">
        <ele>97.8</ele>
        <time>2018-02-12T18:13:39Z</time>
      </trkpt>
      <trkpt lat="62.631893757539" lon="17.969563807632">
        <ele>98</ele>
        <time>2018-02-12T18:13:40Z</time>
      </trkpt>
      <trkpt lat="62.631914377013" lon="17.969571267523">
        <ele>97.8</ele>
        <time>2018-02-12T18:13:41Z</time>
      </trkpt>
      <trkpt lat="62.631933990659" lon="17.969573111541">
        <ele>98</ele>
        <time>2018-02-12T18:13:42Z</time>
      </trkpt>
      <trkpt lat="62.631953520486" lon="17.969576715758">
        <ele>98.2</ele>
        <time>2018-02-12T18:13:43Z</time>
      </trkpt>
      <trkpt lat="62.631974056141" lon="17.969578140681">
        <ele>98.4</ele>
        <time>2018-02-12T18:13:44Z</time>
      </trkpt>
      <trkpt lat="62.631993753606" lon="17.969576129025">
        <ele>98.6</ele>
        <time>2018-02-12T18:13:45Z</time>
      </trkpt>
      <trkpt lat="62.632017474383" lon="17.969568333858">
        <ele>98.8</ele>
        <time>2018-02-12T18:13:46Z</time>
      </trkpt>
      <trkpt lat="62.632039015866" lon="17.969562215071">
        <ele>99</ele>
        <time>2018-02-12T18:13:47Z</time>
      </trkpt>
      <trkpt lat="62.632056534037" lon="17.969557940302">
        <ele>99</ele>
        <time>2018-02-12T18:13:48Z</time>
      </trkpt>
      <trkpt lat="62.632080254814" lon="17.969542769063">
        <ele>99.2</ele>
        <time>2018-02-12T18:13:49Z</time>
      </trkpt>
      <trkpt lat="62.632101125745" lon="17.969534890077">
        <ele>99.2</ele>
        <time>2018-02-12T18:13:50Z</time>
      </trkpt>
      <trkpt lat="62.632121745219" lon="17.969530196213">
        <ele>99</ele>
        <time>2018-02-12T18:13:51Z</time>
      </trkpt>
      <trkpt lat="62.632141275046" lon="17.969523658331">
        <ele>99</ele>
        <time>2018-02-12T18:13:52Z</time>
      </trkpt>
      <trkpt lat="62.632165917832" lon="17.96952038939">
        <ele>99.2</ele>
        <time>2018-02-12T18:13:53Z</time>
      </trkpt>
      <trkpt lat="62.632189135695" lon="17.969510750205">
        <ele>99</ele>
        <time>2018-02-12T18:13:54Z</time>
      </trkpt>
      <trkpt lat="62.632208330246" lon="17.969502871219">
        <ele>99</ele>
        <time>2018-02-12T18:13:55Z</time>
      </trkpt>
      <trkpt lat="62.632232805394" lon="17.969490717464">
        <ele>99.2</ele>
        <time>2018-02-12T18:13:56Z</time>
      </trkpt>
      <trkpt lat="62.632254011601" lon="17.969485353048">
        <ele>99</ele>
        <time>2018-02-12T18:13:57Z</time>
      </trkpt>
      <trkpt lat="62.632271948867" lon="17.969478060795">
        <ele>99.2</ele>
        <time>2018-02-12T18:13:58Z</time>
      </trkpt>
      <trkpt lat="62.632295334368" lon="17.969469427438">
        <ele>99</ele>
        <time>2018-02-12T18:13:59Z</time>
      </trkpt>
      <trkpt lat="62.632316875851" lon="17.969461967547">
        <ele>99</ele>
        <time>2018-02-12T18:14:00Z</time>
      </trkpt>
      <trkpt lat="62.632336824773" lon="17.969456603131">
        <ele>99</ele>
        <time>2018-02-12T18:14:01Z</time>
      </trkpt>
      <trkpt lat="62.632359455903" lon="17.969456016398">
        <ele>99</ele>
        <time>2018-02-12T18:14:02Z</time>
      </trkpt>
      <trkpt lat="62.632379572463" lon="17.969457189864">
        <ele>99</ele>
        <time>2018-02-12T18:14:03Z</time>
      </trkpt>
      <trkpt lat="62.632401952136" lon="17.969463643927">
        <ele>99</ele>
        <time>2018-02-12T18:14:04Z</time>
      </trkpt>
      <trkpt lat="62.632428187483" lon="17.969470517085">
        <ele>99.2</ele>
        <time>2018-02-12T18:14:05Z</time>
      </trkpt>
      <trkpt lat="62.632449812785" lon="17.969478144614">
        <ele>99.2</ele>
        <time>2018-02-12T18:14:06Z</time>
      </trkpt>
      <trkpt lat="62.632470851354" lon="17.969480323908">
        <ele>99.6</ele>
        <time>2018-02-12T18:14:07Z</time>
      </trkpt>
      <trkpt lat="62.632494488312" lon="17.969483676668">
        <ele>99.6</ele>
        <time>2018-02-12T18:14:08Z</time>
      </trkpt>
      <trkpt lat="62.63251728708" lon="17.969491723292">
        <ele>99.6</ele>
        <time>2018-02-12T18:14:09Z</time>
      </trkpt>
      <trkpt lat="62.632537571278" lon="17.969490801283">
        <ele>99.8</ele>
        <time>2018-02-12T18:14:10Z</time>
      </trkpt>
      <trkpt lat="62.632560956779" lon="17.969498680269">
        <ele>99.8</ele>
        <time>2018-02-12T18:14:11Z</time>
      </trkpt>
      <trkpt lat="62.632579648416" lon="17.969503541771">
        <ele>99.8</ele>
        <time>2018-02-12T18:14:12Z</time>
      </trkpt>
      <trkpt lat="62.63259691513" lon="17.969503374133">
        <ele>99.8</ele>
        <time>2018-02-12T18:14:13Z</time>
      </trkpt>
      <trkpt lat="62.632621809373" lon="17.969506559255">
        <ele>99.8</ele>
        <time>2018-02-12T18:14:14Z</time>
      </trkpt>
      <trkpt lat="62.632642428847" lon="17.9695111693">
        <ele>99.8</ele>
        <time>2018-02-12T18:14:15Z</time>
      </trkpt>
      <trkpt lat="62.632662461588" lon="17.96951536025">
        <ele>99.8</ele>
        <time>2018-02-12T18:14:16Z</time>
      </trkpt>
      <trkpt lat="62.632688026383" lon="17.969517958639">
        <ele>99.6</ele>
        <time>2018-02-12T18:14:17Z</time>
      </trkpt>
      <trkpt lat="62.63270420345" lon="17.969519467381">
        <ele>99.4</ele>
        <time>2018-02-12T18:14:18Z</time>
      </trkpt>
      <trkpt lat="62.632727086037" lon="17.969524161245">
        <ele>99.4</ele>
        <time>2018-02-12T18:14:19Z</time>
      </trkpt>
      <trkpt lat="62.632746196769" lon="17.96953128586">
        <ele>99.4</ele>
        <time>2018-02-12T18:14:20Z</time>
      </trkpt>
      <trkpt lat="62.632766397148" lon="17.969539919217">
        <ele>99.4</ele>
        <time>2018-02-12T18:14:21Z</time>
      </trkpt>
      <trkpt lat="62.632784837328" lon="17.969545954185">
        <ele>99.4</ele>
        <time>2018-02-12T18:14:22Z</time>
      </trkpt>
      <trkpt lat="62.632806965544" lon="17.969551989153">
        <ele>99.4</ele>
        <time>2018-02-12T18:14:23Z</time>
      </trkpt>
      <trkpt lat="62.632829429036" lon="17.969549306945">
        <ele>99.4</ele>
        <time>2018-02-12T18:14:24Z</time>
      </trkpt>
      <trkpt lat="62.632855245288" lon="17.969552827343">
        <ele>99.6</ele>
        <time>2018-02-12T18:14:25Z</time>
      </trkpt>
      <trkpt lat="62.632875278029" lon="17.969555844827">
        <ele>99.6</ele>
        <time>2018-02-12T18:14:26Z</time>
      </trkpt>
      <trkpt lat="62.632893299114" lon="17.969557688845">
        <ele>99.6</ele>
        <time>2018-02-12T18:14:27Z</time>
      </trkpt>
      <trkpt lat="62.632912409846" lon="17.969563304718">
        <ele>99.6</ele>
        <time>2018-02-12T18:14:28Z</time>
      </trkpt>
      <trkpt lat="62.632935040976" lon="17.969565903107">
        <ele>99.8</ele>
        <time>2018-02-12T18:14:29Z</time>
      </trkpt>
      <trkpt lat="62.632956331002" lon="17.96955391699">
        <ele>100</ele>
        <time>2018-02-12T18:14:30Z</time>
      </trkpt>
      <trkpt lat="62.632978878313" lon="17.969543439615">
        <ele>100.2</ele>
        <time>2018-02-12T18:14:31Z</time>
      </trkpt>
      <trkpt lat="62.633001006529" lon="17.969541930873">
        <ele>100.2</ele>
        <time>2018-02-12T18:14:32Z</time>
      </trkpt>
      <trkpt lat="62.633018776157" lon="17.969543188158">
        <ele>100.4</ele>
        <time>2018-02-12T18:14:33Z</time>
      </trkpt>
      <trkpt lat="62.633043335124" lon="17.969550396592">
        <ele>100.4</ele>
        <time>2018-02-12T18:14:34Z</time>
      </trkpt>
      <trkpt lat="62.633069151376" lon="17.969561041605">
        <ele>100.4</ele>
        <time>2018-02-12T18:14:35Z</time>
      </trkpt>
      <trkpt lat="62.633090441402" lon="17.969577553948">
        <ele>100.6</ele>
        <time>2018-02-12T18:14:36Z</time>
      </trkpt>
      <trkpt lat="62.633115168007" lon="17.969594233929">
        <ele>100.4</ele>
        <time>2018-02-12T18:14:37Z</time>
      </trkpt>
      <trkpt lat="62.633138804965" lon="17.969603454019">
        <ele>100.4</ele>
        <time>2018-02-12T18:14:38Z</time>
      </trkpt>
      <trkpt lat="62.63316269338" lon="17.969610410996">
        <ele>100.4</ele>
        <time>2018-02-12T18:14:39Z</time>
      </trkpt>
      <trkpt lat="62.633182474664" lon="17.969620050181">
        <ele>100.2</ele>
        <time>2018-02-12T18:14:40Z</time>
      </trkpt>
      <trkpt lat="62.633208542373" lon="17.96962432495">
        <ele>100.2</ele>
        <time>2018-02-12T18:14:41Z</time>
      </trkpt>
      <trkpt lat="62.633230251494" lon="17.969628767357">
        <ele>100.2</ele>
        <time>2018-02-12T18:14:42Z</time>
      </trkpt>
      <trkpt lat="62.633253050262" lon="17.969638993275">
        <ele>100</ele>
        <time>2018-02-12T18:14:43Z</time>
      </trkpt>
      <trkpt lat="62.633274340288" lon="17.969646872261">
        <ele>100</ele>
        <time>2018-02-12T18:14:44Z</time>
      </trkpt>
      <trkpt lat="62.633296887599" lon="17.969661372948">
        <ele>100.2</ele>
        <time>2018-02-12T18:14:45Z</time>
      </trkpt>
      <trkpt lat="62.633318261444" lon="17.969687775933">
        <ele>100.2</ele>
        <time>2018-02-12T18:14:46Z</time>
      </trkpt>
      <trkpt lat="62.633340724936" lon="17.969710742339">
        <ele>100.4</ele>
        <time>2018-02-12T18:14:47Z</time>
      </trkpt>
      <trkpt lat="62.6333538007" lon="17.969739240799">
        <ele>100.6</ele>
        <time>2018-02-12T18:14:48Z</time>
      </trkpt>
      <trkpt lat="62.633372492337" lon="17.969789532199">
        <ele>100.6</ele>
        <time>2018-02-12T18:14:49Z</time>
      </trkpt>
      <trkpt lat="62.633382466798" lon="17.969828424215">
        <ele>100.8</ele>
        <time>2018-02-12T18:14:50Z</time>
      </trkpt>
      <trkpt lat="62.63338984287" lon="17.969871674819">
        <ele>100.8</ele>
        <time>2018-02-12T18:14:51Z</time>
      </trkpt>
      <trkpt lat="62.633391100155" lon="17.969903693677">
        <ele>101</ele>
        <time>2018-02-12T18:14:52Z</time>
      </trkpt>
      <trkpt lat="62.633392860354" lon="17.969964043357">
        <ele>101</ele>
        <time>2018-02-12T18:14:53Z</time>
      </trkpt>
      <trkpt lat="62.633396464571" lon="17.970010395264">
        <ele>101.2</ele>
        <time>2018-02-12T18:14:54Z</time>
      </trkpt>
      <trkpt lat="62.633399398236" lon="17.970057501542">
        <ele>101</ele>
        <time>2018-02-12T18:14:55Z</time>
      </trkpt>
      <trkpt lat="62.633403002453" lon="17.970102512345">
        <ele>101.2</ele>
        <time>2018-02-12T18:14:56Z</time>
      </trkpt>
      <trkpt lat="62.633406271394" lon="17.970146098225">
        <ele>101.2</ele>
        <time>2018-02-12T18:14:57Z</time>
      </trkpt>
      <trkpt lat="62.633406271394" lon="17.970188845915">
        <ele>101.2</ele>
        <time>2018-02-12T18:14:58Z</time>
      </trkpt>
      <trkpt lat="62.633408785964" lon="17.970244837007">
        <ele>101.4</ele>
        <time>2018-02-12T18:14:59Z</time>
      </trkpt>
      <trkpt lat="62.633413396009" lon="17.970290937457">
        <ele>101.6</ele>
        <time>2018-02-12T18:15:00Z</time>
      </trkpt>
      <trkpt lat="62.633416748769" lon="17.970342821418">
        <ele>101.8</ele>
        <time>2018-02-12T18:15:01Z</time>
      </trkpt>
      <trkpt lat="62.633420520624" lon="17.970392609904">
        <ele>102</ele>
        <time>2018-02-12T18:15:02Z</time>
      </trkpt>
      <trkpt lat="62.633423705746" lon="17.970431669558">
        <ele>102.2</ele>
        <time>2018-02-12T18:15:03Z</time>
      </trkpt>
      <trkpt lat="62.633426555592" lon="17.97048598427">
        <ele>102.4</ele>
        <time>2018-02-12T18:15:04Z</time>
      </trkpt>
      <trkpt lat="62.633430327447" lon="17.970539963706">
        <ele>102.6</ele>
        <time>2018-02-12T18:15:05Z</time>
      </trkpt>
      <trkpt lat="62.633434602216" lon="17.970587237622">
        <ele>102.8</ele>
        <time>2018-02-12T18:15:06Z</time>
      </trkpt>
      <trkpt lat="62.633436362415" lon="17.970635852642">
        <ele>102.8</ele>
        <time>2018-02-12T18:15:07Z</time>
      </trkpt>
      <trkpt lat="62.633438206433" lon="17.97067709159">
        <ele>102.8</ele>
        <time>2018-02-12T18:15:08Z</time>
      </trkpt>
      <trkpt lat="62.633440385727" lon="17.970721850936">
        <ele>102.8</ele>
        <time>2018-02-12T18:15:09Z</time>
      </trkpt>
      <trkpt lat="62.6334460016" lon="17.970766358825">
        <ele>102.6</ele>
        <time>2018-02-12T18:15:10Z</time>
      </trkpt>
      <trkpt lat="62.633450527826" lon="17.970816901682">
        <ele>102.6</ele>
        <time>2018-02-12T18:15:11Z</time>
      </trkpt>
      <trkpt lat="62.633452958577" lon="17.970863002132">
        <ele>102.6</ele>
        <time>2018-02-12T18:15:12Z</time>
      </trkpt>
      <trkpt lat="62.633452874758" lon="17.970913628808">
        <ele>102.8</ele>
        <time>2018-02-12T18:15:13Z</time>
      </trkpt>
      <trkpt lat="62.633453210034" lon="17.970964926036">
        <ele>102.8</ele>
        <time>2018-02-12T18:15:14Z</time>
      </trkpt>
      <trkpt lat="62.633456478975" lon="17.97101069121">
        <ele>103</ele>
        <time>2018-02-12T18:15:15Z</time>
      </trkpt>
      <trkpt lat="62.63345689807" lon="17.971058300402">
        <ele>103</ele>
        <time>2018-02-12T18:15:16Z</time>
      </trkpt>
      <trkpt lat="62.633457149527" lon="17.97110540668">
        <ele>103.2</ele>
        <time>2018-02-12T18:15:17Z</time>
      </trkpt>
      <trkpt lat="62.633457820079" lon="17.971145723619">
        <ele>103.2</ele>
        <time>2018-02-12T18:15:18Z</time>
      </trkpt>
      <trkpt lat="62.633455640785" lon="17.971205570385">
        <ele>103.4</ele>
        <time>2018-02-12T18:15:19Z</time>
      </trkpt>
      <trkpt lat="62.633456478975" lon="17.971249072446">
        <ele>103.4</ele>
        <time>2018-02-12T18:15:20Z</time>
      </trkpt>
      <trkpt lat="62.633456311337" lon="17.971294250887">
        <ele>103.6</ele>
        <time>2018-02-12T18:15:21Z</time>
      </trkpt>
      <trkpt lat="62.633455724604" lon="17.97134177626">
        <ele>103.8</ele>
        <time>2018-02-12T18:15:22Z</time>
      </trkpt>
      <trkpt lat="62.633454718776" lon="17.971387122339">
        <ele>103.8</ele>
        <time>2018-02-12T18:15:23Z</time>
      </trkpt>
      <trkpt lat="62.633455137871" lon="17.971433474246">
        <ele>104</ele>
        <time>2018-02-12T18:15:24Z</time>
      </trkpt>
      <trkpt lat="62.633452539482" lon="17.971483849465">
        <ele>104</ele>
        <time>2018-02-12T18:15:25Z</time>
      </trkpt>
      <trkpt lat="62.633450444007" lon="17.97153036901">
        <ele>104</ele>
        <time>2018-02-12T18:15:26Z</time>
      </trkpt>
      <trkpt lat="62.63344683979" lon="17.971575463632">
        <ele>104</ele>
        <time>2018-02-12T18:15:27Z</time>
      </trkpt>
      <trkpt lat="62.633442816478" lon="17.971618546598">
        <ele>104.2</ele>
        <time>2018-02-12T18:15:28Z</time>
      </trkpt>
      <trkpt lat="62.633437954976" lon="17.971677638993">
        <ele>104.2</ele>
        <time>2018-02-12T18:15:29Z</time>
      </trkpt>
      <trkpt lat="62.633435524225" lon="17.971721560149">
        <ele>104.4</ele>
        <time>2018-02-12T18:15:30Z</time>
      </trkpt>
      <trkpt lat="62.633430243628" lon="17.971770594264">
        <ele>104.4</ele>
        <time>2018-02-12T18:15:31Z</time>
      </trkpt>
      <trkpt lat="62.633425298307" lon="17.971812922859">
        <ele>104.4</ele>
        <time>2018-02-12T18:15:32Z</time>
      </trkpt>
      <trkpt lat="62.63342169409" lon="17.971853994169">
        <ele>104.4</ele>
        <time>2018-02-12T18:15:33Z</time>
      </trkpt>
      <trkpt lat="62.63341498857" lon="17.971904704664">
        <ele>104.4</ele>
        <time>2018-02-12T18:15:34Z</time>
      </trkpt>
      <trkpt lat="62.633410210887" lon="17.971947117078">
        <ele>104.6</ele>
        <time>2018-02-12T18:15:35Z</time>
      </trkpt>
      <trkpt lat="62.633404762652" lon="17.971992546976">
        <ele>104.8</ele>
        <time>2018-02-12T18:15:36Z</time>
      </trkpt>
      <trkpt lat="62.633397302761" lon="17.972035965218">
        <ele>105.2</ele>
        <time>2018-02-12T18:15:37Z</time>
      </trkpt>
      <trkpt lat="62.633393866182" lon="17.972073683768">
        <ele>105.2</ele>
        <time>2018-02-12T18:15:38Z</time>
      </trkpt>
      <trkpt lat="62.633387915033" lon="17.972118024019">
        <ele>105.4</ele>
        <time>2018-02-12T18:15:39Z</time>
      </trkpt>
      <trkpt lat="62.633381880065" lon="17.972162028994">
        <ele>105.2</ele>
        <time>2018-02-12T18:15:40Z</time>
      </trkpt>
      <trkpt lat="62.633374168717" lon="17.972211901299">
        <ele>105.2</ele>
        <time>2018-02-12T18:15:41Z</time>
      </trkpt>
      <trkpt lat="62.633367044102" lon="17.972259175215">
        <ele>105</ele>
        <time>2018-02-12T18:15:42Z</time>
      </trkpt>
      <trkpt lat="62.633360003306" lon="17.972301336172">
        <ele>105</ele>
        <time>2018-02-12T18:15:43Z</time>
      </trkpt>
      <trkpt lat="62.633351789044" lon="17.972344838233">
        <ele>105</ele>
        <time>2018-02-12T18:15:44Z</time>
      </trkpt>
      <trkpt lat="62.63334458061" lon="17.972388424113">
        <ele>105</ele>
        <time>2018-02-12T18:15:45Z</time>
      </trkpt>
      <trkpt lat="62.633338126547" lon="17.9724196886">
        <ele>105.2</ele>
        <time>2018-02-12T18:15:46Z</time>
      </trkpt>
      <trkpt lat="62.633328990276" lon="17.972472829846">
        <ele>105.2</ele>
        <time>2018-02-12T18:15:47Z</time>
      </trkpt>
      <trkpt lat="62.633322536213" lon="17.972516248088">
        <ele>105.2</ele>
        <time>2018-02-12T18:15:48Z</time>
      </trkpt>
      <trkpt lat="62.633311639743" lon="17.972567629135">
        <ele>105.4</ele>
        <time>2018-02-12T18:15:49Z</time>
      </trkpt>
      <trkpt lat="62.633304179852" lon="17.972610879739">
        <ele>105.4</ele>
        <time>2018-02-12T18:15:50Z</time>
      </trkpt>
      <trkpt lat="62.633294037753" lon="17.972656561094">
        <ele>105.4</ele>
        <time>2018-02-12T18:15:51Z</time>
      </trkpt>
      <trkpt lat="62.633283811835" lon="17.972699560241">
        <ele>105.6</ele>
        <time>2018-02-12T18:15:52Z</time>
      </trkpt>
      <trkpt lat="62.633275597573" lon="17.972739206628">
        <ele>105.6</ele>
        <time>2018-02-12T18:15:53Z</time>
      </trkpt>
      <trkpt lat="62.633265874569" lon="17.972788911295">
        <ele>105.8</ele>
        <time>2018-02-12T18:15:54Z</time>
      </trkpt>
      <trkpt lat="62.633254810461" lon="17.972837610134">
        <ele>105.8</ele>
        <time>2018-02-12T18:15:55Z</time>
      </trkpt>
      <trkpt lat="62.633246428561" lon="17.972876418331">
        <ele>105.6</ele>
        <time>2018-02-12T18:15:56Z</time>
      </trkpt>
      <trkpt lat="62.633235280634" lon="17.972924362799">
        <ele>105.8</ele>
        <time>2018-02-12T18:15:57Z</time>
      </trkpt>
      <trkpt lat="62.633227317829" lon="17.972959650598">
        <ele>105.8</ele>
        <time>2018-02-12T18:15:58Z</time>
      </trkpt>
      <trkpt lat="62.633219941757" lon="17.973002649745">
        <ele>106</ele>
        <time>2018-02-12T18:15:59Z</time>
      </trkpt>
      <trkpt lat="62.63320963202" lon="17.973047241453">
        <ele>105.8</ele>
        <time>2018-02-12T18:16:00Z</time>
      </trkpt>
      <trkpt lat="62.633200495749" lon="17.973092336075">
        <ele>105.8</ele>
        <time>2018-02-12T18:16:01Z</time>
      </trkpt>
      <trkpt lat="62.633190688926" lon="17.973137933611">
        <ele>105.8</ele>
        <time>2018-02-12T18:16:02Z</time>
      </trkpt>
      <trkpt lat="62.633180463008" lon="17.973179004921">
        <ele>106</ele>
        <time>2018-02-12T18:16:03Z</time>
      </trkpt>
      <trkpt lat="62.633171410556" lon="17.973224099543">
        <ele>106</ele>
        <time>2018-02-12T18:16:04Z</time>
      </trkpt>
      <trkpt lat="62.633164537398" lon="17.973269026527">
        <ele>106.2</ele>
        <time>2018-02-12T18:16:05Z</time>
      </trkpt>
      <trkpt lat="62.633153138014" lon="17.973310181656">
        <ele>106.2</ele>
        <time>2018-02-12T18:16:06Z</time>
      </trkpt>
      <trkpt lat="62.633145426666" lon="17.973346810559">
        <ele>106.2</ele>
        <time>2018-02-12T18:16:07Z</time>
      </trkpt>
      <trkpt lat="62.633138804965" lon="17.973385367299">
        <ele>106.6</ele>
        <time>2018-02-12T18:16:08Z</time>
      </trkpt>
      <trkpt lat="62.633128746685" lon="17.973428198808">
        <ele>106.4</ele>
        <time>2018-02-12T18:16:09Z</time>
      </trkpt>
      <trkpt lat="62.633120700061" lon="17.973466336453">
        <ele>106.4</ele>
        <time>2018-02-12T18:16:10Z</time>
      </trkpt>
      <trkpt lat="62.633111982885" lon="17.97351017379">
        <ele>106.4</ele>
        <time>2018-02-12T18:16:11Z</time>
      </trkpt>
      <trkpt lat="62.63310150551" lon="17.973555184593">
        <ele>106.4</ele>
        <time>2018-02-12T18:16:12Z</time>
      </trkpt>
      <trkpt lat="62.633092704515" lon="17.973589466564">
        <ele>106.2</ele>
        <time>2018-02-12T18:16:13Z</time>
      </trkpt>
      <trkpt lat="62.63308474171" lon="17.973631627521">
        <ele>106.4</ele>
        <time>2018-02-12T18:16:14Z</time>
      </trkpt>
      <trkpt lat="62.633072587955" lon="17.973672950288">
        <ele>106.6</ele>
        <time>2018-02-12T18:16:15Z</time>
      </trkpt>
      <trkpt lat="62.633061607666" lon="17.97370798663">
        <ele>106.8</ele>
        <time>2018-02-12T18:16:16Z</time>
      </trkpt>
      <trkpt lat="62.633049873006" lon="17.973756517831">
        <ele>107.2</ele>
        <time>2018-02-12T18:16:17Z</time>
      </trkpt>
      <trkpt lat="62.633040904373" lon="17.973795493666">
        <ele>107.2</ele>
        <time>2018-02-12T18:16:18Z</time>
      </trkpt>
      <trkpt lat="62.633028750618" lon="17.973844276324">
        <ele>107.6</ele>
        <time>2018-02-12T18:16:19Z</time>
      </trkpt>
      <trkpt lat="62.633020452537" lon="17.973883587435">
        <ele>107.6</ele>
        <time>2018-02-12T18:16:20Z</time>
      </trkpt>
      <trkpt lat="62.63300679004" lon="17.973930777532">
        <ele>107.8</ele>
        <time>2018-02-12T18:16:21Z</time>
      </trkpt>
      <trkpt lat="62.632996396484" lon="17.97397453105">
        <ele>107.8</ele>
        <time>2018-02-12T18:16:22Z</time>
      </trkpt>
      <trkpt lat="62.632985919109" lon="17.97402230788">
        <ele>108</ele>
        <time>2018-02-12T18:16:23Z</time>
      </trkpt>
      <trkpt lat="62.632973346259" lon="17.974074191841">
        <ele>108.2</ele>
        <time>2018-02-12T18:16:24Z</time>
      </trkpt>
      <trkpt lat="62.63296404235" lon="17.974113335314">
        <ele>108.2</ele>
        <time>2018-02-12T18:16:25Z</time>
      </trkpt>
      <trkpt lat="62.632952726785" lon="17.974157424108">
        <ele>108.2</ele>
        <time>2018-02-12T18:16:26Z</time>
      </trkpt>
      <trkpt lat="62.632939986297" lon="17.97420335692">
        <ele>108.2</ele>
        <time>2018-02-12T18:16:27Z</time>
      </trkpt>
      <trkpt lat="62.632930682388" lon="17.974239482909">
        <ele>108.2</ele>
        <time>2018-02-12T18:16:28Z</time>
      </trkpt>
      <trkpt lat="62.632918612452" lon="17.97429639601">
        <ele>108.2</ele>
        <time>2018-02-12T18:16:29Z</time>
      </trkpt>
      <trkpt lat="62.632903860308" lon="17.974340736261">
        <ele>108.2</ele>
        <time>2018-02-12T18:16:30Z</time>
      </trkpt>
      <trkpt lat="62.632892209467" lon="17.97438021501">
        <ele>108</ele>
        <time>2018-02-12T18:16:31Z</time>
      </trkpt>
      <trkpt lat="62.632877541142" lon="17.974426566917">
        <ele>107.8</ele>
        <time>2018-02-12T18:16:32Z</time>
      </trkpt>
      <trkpt lat="62.632859603876" lon="17.97445816668">
        <ele>108</ele>
        <time>2018-02-12T18:16:33Z</time>
      </trkpt>
      <trkpt lat="62.632836469832" lon="17.974492364832">
        <ele>107.8</ele>
        <time>2018-02-12T18:16:34Z</time>
      </trkpt>
      <trkpt lat="62.63280981539" lon="17.974508038985">
        <ele>108</ele>
        <time>2018-02-12T18:16:35Z</time>
      </trkpt>
      <trkpt lat="62.63278299331" lon="17.974510050641">
        <ele>107.8</ele>
        <time>2018-02-12T18:16:36Z</time>
      </trkpt>
      <trkpt lat="62.632758937257" lon="17.974506614062">
        <ele>107.8</ele>
        <time>2018-02-12T18:16:37Z</time>
      </trkpt>
      <trkpt lat="62.632734043014" lon="17.974492364832">
        <ele>107.6</ele>
        <time>2018-02-12T18:16:38Z</time>
      </trkpt>
      <trkpt lat="62.632709148771" lon="17.974465291295">
        <ele>107.6</ele>
        <time>2018-02-12T18:16:39Z</time>
      </trkpt>
      <trkpt lat="62.632689367487" lon="17.974465207476">
        <ele>107.6</ele>
        <time>2018-02-12T18:16:40Z</time>
      </trkpt>
      <trkpt lat="62.632661707217" lon="17.974448862771">
        <ele>107.8</ele>
        <time>2018-02-12T18:16:41Z</time>
      </trkpt>
      <trkpt lat="62.632639159906" lon="17.974423884709">
        <ele>108</ele>
        <time>2018-02-12T18:16:42Z</time>
      </trkpt>
      <trkpt lat="62.632616612595" lon="17.974407959099">
        <ele>108.4</ele>
        <time>2018-02-12T18:16:43Z</time>
      </trkpt>
      <trkpt lat="62.632591466895" lon="17.974379628277">
        <ele>108.6</ele>
        <time>2018-02-12T18:16:44Z</time>
      </trkpt>
      <trkpt lat="62.632568332851" lon="17.974357164785">
        <ele>108.8</ele>
        <time>2018-02-12T18:16:45Z</time>
      </trkpt>
      <trkpt lat="62.632549892671" lon="17.974336712949">
        <ele>108.8</ele>
        <time>2018-02-12T18:16:46Z</time>
      </trkpt>
      <trkpt lat="62.632526423351" lon="17.974311315792">
        <ele>109</ele>
        <time>2018-02-12T18:16:47Z</time>
      </trkpt>
      <trkpt lat="62.63251141975" lon="17.974294803449">
        <ele>109</ele>
        <time>2018-02-12T18:16:48Z</time>
      </trkpt>
      <trkpt lat="62.632487866611" lon="17.9742720885">
        <ele>109</ele>
        <time>2018-02-12T18:16:49Z</time>
      </trkpt>
      <trkpt lat="62.632464732567" lon="17.974246858981">
        <ele>109</ele>
        <time>2018-02-12T18:16:50Z</time>
      </trkpt>
      <trkpt lat="62.632441179428" lon="17.974219701625">
        <ele>109</ele>
        <time>2018-02-12T18:16:51Z</time>
      </trkpt>
      <trkpt lat="62.632421062868" lon="17.974199249789">
        <ele>109.2</ele>
        <time>2018-02-12T18:16:52Z</time>
      </trkpt>
      <trkpt lat="62.632398599376" lon="17.974182150713">
        <ele>109.2</ele>
        <time>2018-02-12T18:16:53Z</time>
      </trkpt>
      <trkpt lat="62.632376806436" lon="17.97415222733">
        <ele>109.2</ele>
        <time>2018-02-12T18:16:54Z</time>
      </trkpt>
      <trkpt lat="62.632355600229" lon="17.974131188761">
        <ele>109.2</ele>
        <time>2018-02-12T18:16:55Z</time>
      </trkpt>
      <trkpt lat="62.632325006294" lon="17.974100511007">
        <ele>109</ele>
        <time>2018-02-12T18:16:56Z</time>
      </trkpt>
      <trkpt lat="62.632306314657" lon="17.974079975352">
        <ele>109</ele>
        <time>2018-02-12T18:16:57Z</time>
      </trkpt>
      <trkpt lat="62.632287036287" lon="17.974064301199">
        <ele>109</ele>
        <time>2018-02-12T18:16:58Z</time>
      </trkpt>
      <trkpt lat="62.63225744818" lon="17.974036808567">
        <ele>109</ele>
        <time>2018-02-12T18:16:59Z</time>
      </trkpt>
      <trkpt lat="62.632230709919" lon="17.974014093618">
        <ele>109</ele>
        <time>2018-02-12T18:17:00Z</time>
      </trkpt>
      <trkpt lat="62.632205228943" lon="17.973990875755">
        <ele>109</ele>
        <time>2018-02-12T18:17:01Z</time>
      </trkpt>
      <trkpt lat="62.632181256709" lon="17.973964640408">
        <ele>109</ele>
        <time>2018-02-12T18:17:02Z</time>
      </trkpt>
      <trkpt lat="62.632161140149" lon="17.973946786961">
        <ele>108.8</ele>
        <time>2018-02-12T18:17:03Z</time>
      </trkpt>
      <trkpt lat="62.632136581182" lon="17.973922814727">
        <ele>108.8</ele>
        <time>2018-02-12T18:17:04Z</time>
      </trkpt>
      <trkpt lat="62.632109759102" lon="17.973890209136">
        <ele>108.8</ele>
        <time>2018-02-12T18:17:05Z</time>
      </trkpt>
      <trkpt lat="62.632083859031" lon="17.973869086748">
        <ele>108.6</ele>
        <time>2018-02-12T18:17:06Z</time>
      </trkpt>
      <trkpt lat="62.632060222073" lon="17.97384209703">
        <ele>108.6</ele>
        <time>2018-02-12T18:17:07Z</time>
      </trkpt>
      <trkpt lat="62.632035746925" lon="17.973820136452">
        <ele>108.4</ele>
        <time>2018-02-12T18:17:08Z</time>
      </trkpt>
      <trkpt lat="62.632011774691" lon="17.973795493666">
        <ele>108.4</ele>
        <time>2018-02-12T18:17:09Z</time>
      </trkpt>
      <trkpt lat="62.631988556828" lon="17.973770683242">
        <ele>108.2</ele>
        <time>2018-02-12T18:17:10Z</time>
      </trkpt>
      <trkpt lat="62.631963662585" lon="17.973739083479">
        <ele>108.4</ele>
        <time>2018-02-12T18:17:11Z</time>
      </trkpt>
      <trkpt lat="62.631941618188" lon="17.973708154268">
        <ele>108.4</ele>
        <time>2018-02-12T18:17:12Z</time>
      </trkpt>
      <trkpt lat="62.631917729773" lon="17.973672531193">
        <ele>108.4</ele>
        <time>2018-02-12T18:17:13Z</time>
      </trkpt>
      <trkpt lat="62.631894092815" lon="17.973626849838">
        <ele>108.6</ele>
        <time>2018-02-12T18:17:14Z</time>
      </trkpt>
      <trkpt lat="62.631870455857" lon="17.973599273387">
        <ele>108.6</ele>
        <time>2018-02-12T18:17:15Z</time>
      </trkpt>
      <trkpt lat="62.63184673508" lon="17.973564572321">
        <ele>108.8</ele>
        <time>2018-02-12T18:17:16Z</time>
      </trkpt>
      <trkpt lat="62.631820415914" lon="17.973529787436">
        <ele>109</ele>
        <time>2018-02-12T18:17:17Z</time>
      </trkpt>
      <trkpt lat="62.631797700965" lon="17.97350682103">
        <ele>109</ele>
        <time>2018-02-12T18:17:18Z</time>
      </trkpt>
      <trkpt lat="62.631766939392" lon="17.973464827711">
        <ele>109</ele>
        <time>2018-02-12T18:17:19Z</time>
      </trkpt>
      <trkpt lat="62.631745230271" lon="17.97343306031">
        <ele>109</ele>
        <time>2018-02-12T18:17:20Z</time>
      </trkpt>
      <trkpt lat="62.631719078743" lon="17.973401460547">
        <ele>109</ele>
        <time>2018-02-12T18:17:21Z</time>
      </trkpt>
      <trkpt lat="62.631695441785" lon="17.973360724513">
        <ele>109</ele>
        <time>2018-02-12T18:17:22Z</time>
      </trkpt>
      <trkpt lat="62.631671888646" lon="17.973325520533">
        <ele>108.8</ele>
        <time>2018-02-12T18:17:23Z</time>
      </trkpt>
      <trkpt lat="62.631648754602" lon="17.973287801983">
        <ele>108.8</ele>
        <time>2018-02-12T18:17:24Z</time>
      </trkpt>
      <trkpt lat="62.631624866187" lon="17.973243880827">
        <ele>108.8</ele>
        <time>2018-02-12T18:17:25Z</time>
      </trkpt>
      <trkpt lat="62.631605755455" lon="17.973198953843">
        <ele>108.8</ele>
        <time>2018-02-12T18:17:26Z</time>
      </trkpt>
      <trkpt lat="62.63158270523" lon="17.973162157302">
        <ele>108.8</ele>
        <time>2018-02-12T18:17:27Z</time>
      </trkpt>
      <trkpt lat="62.631562169575" lon="17.973121337449">
        <ele>108.8</ele>
        <time>2018-02-12T18:17:28Z</time>
      </trkpt>
      <trkpt lat="62.631541717739" lon="17.973070040221">
        <ele>108.6</ele>
        <time>2018-02-12T18:17:29Z</time>
      </trkpt>
      <trkpt lat="62.631521684998" lon="17.973023353038">
        <ele>108.6</ele>
        <time>2018-02-12T18:17:30Z</time>
      </trkpt>
      <trkpt lat="62.631501065524" lon="17.972973229276">
        <ele>108.6</ele>
        <time>2018-02-12T18:17:31Z</time>
      </trkpt>
      <trkpt lat="62.631481703335" lon="17.972931571233">
        <ele>108.6</ele>
        <time>2018-02-12T18:17:32Z</time>
      </trkpt>
      <trkpt lat="62.631465945363" lon="17.972890919018">
        <ele>108.4</ele>
        <time>2018-02-12T18:17:33Z</time>
      </trkpt>
      <trkpt lat="62.631444655337" lon="17.972835514659">
        <ele>108.4</ele>
        <time>2018-02-12T18:17:34Z</time>
      </trkpt>
      <trkpt lat="62.631424622596" lon="17.972789414209">
        <ele>108.2</ele>
        <time>2018-02-12T18:17:35Z</time>
      </trkpt>
      <trkpt lat="62.63140584714" lon="17.972743732854">
        <ele>108.2</ele>
        <time>2018-02-12T18:17:36Z</time>
      </trkpt>
      <trkpt lat="62.631386904046" lon="17.97269545311">
        <ele>108</ele>
        <time>2018-02-12T18:17:37Z</time>
      </trkpt>
      <trkpt lat="62.631372570997" lon="17.972652621601">
        <ele>107.6</ele>
        <time>2018-02-12T18:17:38Z</time>
      </trkpt>
      <trkpt lat="62.631354382274" lon="17.972606437332">
        <ele>107.4</ele>
        <time>2018-02-12T18:17:39Z</time>
      </trkpt>
      <trkpt lat="62.631336780284" lon="17.972558325226">
        <ele>107</ele>
        <time>2018-02-12T18:17:40Z</time>
      </trkpt>
      <trkpt lat="62.631320938493" lon="17.972511638043">
        <ele>106.8</ele>
        <time>2018-02-12T18:17:41Z</time>
      </trkpt>
      <trkpt lat="62.631301576304" lon="17.972451875096">
        <ele>106.4</ele>
        <time>2018-02-12T18:17:42Z</time>
      </trkpt>
      <trkpt lat="62.631287997626" lon="17.972401080782">
        <ele>106.4</ele>
        <time>2018-02-12T18:17:43Z</time>
      </trkpt>
      <trkpt lat="62.631271401464" lon="17.972351543753">
        <ele>106</ele>
        <time>2018-02-12T18:17:44Z</time>
      </trkpt>
      <trkpt lat="62.631256481682" lon="17.97230401838">
        <ele>105.8</ele>
        <time>2018-02-12T18:17:45Z</time>
      </trkpt>
      <trkpt lat="62.631244411746" lon="17.972264120536">
        <ele>105.8</ele>
        <time>2018-02-12T18:17:46Z</time>
      </trkpt>
      <trkpt lat="62.631225720109" lon="17.972203351761">
        <ele>105.6</ele>
        <time>2018-02-12T18:17:47Z</time>
      </trkpt>
      <trkpt lat="62.631211889974" lon="17.972156413121">
        <ele>105.6</ele>
        <time>2018-02-12T18:17:48Z</time>
      </trkpt>
      <trkpt lat="62.631195126174" lon="17.972101427857">
        <ele>105.4</ele>
        <time>2018-02-12T18:17:49Z</time>
      </trkpt>
      <trkpt lat="62.631181882772" lon="17.972049124801">
        <ele>105.4</ele>
        <time>2018-02-12T18:17:50Z</time>
      </trkpt>
      <trkpt lat="62.631165789524" lon="17.971994558632">
        <ele>105.2</ele>
        <time>2018-02-12T18:17:51Z</time>
      </trkpt>
      <trkpt lat="62.631154809235" lon="17.971944518689">
        <ele>105.2</ele>
        <time>2018-02-12T18:17:52Z</time>
      </trkpt>
      <trkpt lat="62.63114181729" lon="17.971891712719">
        <ele>105</ele>
        <time>2018-02-12T18:17:53Z</time>
      </trkpt>
      <trkpt lat="62.631124299119" lon="17.971829519021">
        <ele>105</ele>
        <time>2018-02-12T18:17:54Z</time>
      </trkpt>
      <trkpt lat="62.631111307174" lon="17.971778389431">
        <ele>104.8</ele>
        <time>2018-02-12T18:17:55Z</time>
      </trkpt>
      <trkpt lat="62.631094543374" lon="17.971721811606">
        <ele>104.6</ele>
        <time>2018-02-12T18:17:56Z</time>
      </trkpt>
      <trkpt lat="62.631083395447" lon="17.971668335084">
        <ele>104.4</ele>
        <time>2018-02-12T18:17:57Z</time>
      </trkpt>
      <trkpt lat="62.631072582796" lon="17.971628101964">
        <ele>104.4</ele>
        <time>2018-02-12T18:17:58Z</time>
      </trkpt>
      <trkpt lat="62.63105632191" lon="17.97156138204">
        <ele>104.2</ele>
        <time>2018-02-12T18:17:59Z</time>
      </trkpt>
      <trkpt lat="62.631045760716" lon="17.971506145319">
        <ele>104.2</ele>
        <time>2018-02-12T18:18:00Z</time>
      </trkpt>
      <trkpt lat="62.631033774599" lon="17.971452584978">
        <ele>104</ele>
        <time>2018-02-12T18:18:01Z</time>
      </trkpt>
      <trkpt lat="62.631019190093" lon="17.971397767352">
        <ele>104</ele>
        <time>2018-02-12T18:18:02Z</time>
      </trkpt>
      <trkpt lat="62.631012316935" lon="17.971350661074">
        <ele>103.8</ele>
        <time>2018-02-12T18:18:03Z</time>
      </trkpt>
      <trkpt lat="62.631002929207" lon="17.971286958634">
        <ele>103.6</ele>
        <time>2018-02-12T18:18:04Z</time>
      </trkpt>
      <trkpt lat="62.630992116556" lon="17.971222501823">
        <ele>103.4</ele>
        <time>2018-02-12T18:18:05Z</time>
      </trkpt>
      <trkpt lat="62.630985494855" lon="17.97116575636">
        <ele>103.2</ele>
        <time>2018-02-12T18:18:06Z</time>
      </trkpt>
      <trkpt lat="62.630977364412" lon="17.971105574318">
        <ele>103.2</ele>
        <time>2018-02-12T18:18:07Z</time>
      </trkpt>
      <trkpt lat="62.630972335272" lon="17.971049834683">
        <ele>103</ele>
        <time>2018-02-12T18:18:08Z</time>
      </trkpt>
      <trkpt lat="62.630967809046" lon="17.970989485003">
        <ele>103.2</ele>
        <time>2018-02-12T18:18:09Z</time>
      </trkpt>
      <trkpt lat="62.63096412101" lon="17.970935589386">
        <ele>103.2</ele>
        <time>2018-02-12T18:18:10Z</time>
      </trkpt>
      <trkpt lat="62.630958672775" lon="17.97087574262">
        <ele>103.2</ele>
        <time>2018-02-12T18:18:11Z</time>
      </trkpt>
      <trkpt lat="62.630951799617" lon="17.970824696849">
        <ele>103</ele>
        <time>2018-02-12T18:18:12Z</time>
      </trkpt>
      <trkpt lat="62.630944255907" lon="17.97076426335">
        <ele>103</ele>
        <time>2018-02-12T18:18:13Z</time>
      </trkpt>
      <trkpt lat="62.630935287274" lon="17.970701315281">
        <ele>103</ele>
        <time>2018-02-12T18:18:14Z</time>
      </trkpt>
      <trkpt lat="62.630925312813" lon="17.970648928406">
        <ele>102.8</ele>
        <time>2018-02-12T18:18:15Z</time>
      </trkpt>
      <trkpt lat="62.6309146678" lon="17.970588997821">
        <ele>102.6</ele>
        <time>2018-02-12T18:18:16Z</time>
      </trkpt>
      <trkpt lat="62.630907291728" lon="17.970529067236">
        <ele>102.6</ele>
        <time>2018-02-12T18:18:17Z</time>
      </trkpt>
      <trkpt lat="62.63090125676" lon="17.970479362569">
        <ele>102.6</ele>
        <time>2018-02-12T18:18:18Z</time>
      </trkpt>
      <trkpt lat="62.630894048326" lon="17.970413313197">
        <ele>102.4</ele>
        <time>2018-02-12T18:18:19Z</time>
      </trkpt>
      <trkpt lat="62.630882062209" lon="17.970361177779">
        <ele>102.4</ele>
        <time>2018-02-12T18:18:20Z</time>
      </trkpt>
      <trkpt lat="62.630862197106" lon="17.970319100641">
        <ele>102.4</ele>
        <time>2018-02-12T18:18:21Z</time>
      </trkpt>
      <trkpt lat="62.630840739442" lon="17.970284567213">
        <ele>102.2</ele>
        <time>2018-02-12T18:18:22Z</time>
      </trkpt>
      <trkpt lat="62.630822131624" lon="17.970259086237">
        <ele>102</ele>
        <time>2018-02-12T18:18:23Z</time>
      </trkpt>
      <trkpt lat="62.630802853254" lon="17.970244082636">
        <ele>102</ele>
        <time>2018-02-12T18:18:24Z</time>
      </trkpt>
      <trkpt lat="62.630780389762" lon="17.970241484247">
        <ele>101.8</ele>
        <time>2018-02-12T18:18:25Z</time>
      </trkpt>
      <trkpt lat="62.630760608478" lon="17.970247770672">
        <ele>101.8</ele>
        <time>2018-02-12T18:18:26Z</time>
      </trkpt>
      <trkpt lat="62.630742168298" lon="17.970253554183">
        <ele>101.8</ele>
        <time>2018-02-12T18:18:27Z</time>
      </trkpt>
      <trkpt lat="62.630722973747" lon="17.970260259703">
        <ele>101.8</ele>
        <time>2018-02-12T18:18:28Z</time>
      </trkpt>
      <trkpt lat="62.630700007341" lon="17.970267049042">
        <ele>102</ele>
        <time>2018-02-12T18:18:29Z</time>
      </trkpt>
      <trkpt lat="62.63068165098" lon="17.970275347123">
        <ele>101.8</ele>
        <time>2018-02-12T18:18:30Z</time>
      </trkpt>
      <trkpt lat="62.630661618239" lon="17.970286662688">
        <ele>102</ele>
        <time>2018-02-12T18:18:31Z</time>
      </trkpt>
      <trkpt lat="62.630641585498" lon="17.97029571514">
        <ele>102</ele>
        <time>2018-02-12T18:18:32Z</time>
      </trkpt>
      <trkpt lat="62.630627252449" lon="17.970301163375">
        <ele>101.8</ele>
        <time>2018-02-12T18:18:33Z</time>
      </trkpt>
      <trkpt lat="62.630604705138" lon="17.970317256623">
        <ele>102</ele>
        <time>2018-02-12T18:18:34Z</time>
      </trkpt>
      <trkpt lat="62.630583079836" lon="17.9703325955">
        <ele>102</ele>
        <time>2018-02-12T18:18:35Z</time>
      </trkpt>
      <trkpt lat="62.630563885285" lon="17.970350700404">
        <ele>102</ele>
        <time>2018-02-12T18:18:36Z</time>
      </trkpt>
      <trkpt lat="62.630543852544" lon="17.970353885526">
        <ele>102.2</ele>
        <time>2018-02-12T18:18:37Z</time>
      </trkpt>
      <trkpt lat="62.630528178391" lon="17.970344916893">
        <ele>102.2</ele>
        <time>2018-02-12T18:18:38Z</time>
      </trkpt>
      <trkpt lat="62.630506553089" lon="17.97032840455">
        <ele>102.2</ele>
        <time>2018-02-12T18:18:39Z</time>
      </trkpt>
      <trkpt lat="62.630496746266" lon="17.970309461456">
        <ele>102.2</ele>
        <time>2018-02-12T18:18:40Z</time>
      </trkpt>
      <trkpt lat="62.63048802909" lon="17.970269982707">
        <ele>102.4</ele>
        <time>2018-02-12T18:18:41Z</time>
      </trkpt>
      <trkpt lat="62.630485933615" lon="17.970228827578">
        <ele>102.4</ele>
        <time>2018-02-12T18:18:42Z</time>
      </trkpt>
      <trkpt lat="62.630487861452" lon="17.970191947218">
        <ele>102.4</ele>
        <time>2018-02-12T18:18:43Z</time>
      </trkpt>
      <trkpt lat="62.630486268891" lon="17.9701481937">
        <ele>102.6</ele>
        <time>2018-02-12T18:18:44Z</time>
      </trkpt>
      <trkpt lat="62.630482664674" lon="17.970097818481">
        <ele>102.6</ele>
        <time>2018-02-12T18:18:45Z</time>
      </trkpt>
      <trkpt lat="62.630482580855" lon="17.970055489886">
        <ele>102.6</ele>
        <time>2018-02-12T18:18:46Z</time>
      </trkpt>
      <trkpt lat="62.630481491208" lon="17.970015089128">
        <ele>102.6</ele>
        <time>2018-02-12T18:18:47Z</time>
      </trkpt>
      <trkpt lat="62.630477886991" lon="17.969987512677">
        <ele>102.6</ele>
        <time>2018-02-12T18:18:48Z</time>
      </trkpt>
      <trkpt lat="62.630474282774" lon="17.969954739448">
        <ele>102.4</ele>
        <time>2018-02-12T18:18:49Z</time>
      </trkpt>
      <trkpt lat="62.630470762376" lon="17.969932192137">
        <ele>102.2</ele>
        <time>2018-02-12T18:18:50Z</time>
      </trkpt>
      <trkpt lat="62.630467325797" lon="17.9699218824">
        <ele>102.2</ele>
        <time>2018-02-12T18:18:51Z</time>
      </trkpt>
      <trkpt lat="62.630467158159" lon="17.969926324807">
        <ele>102.2</ele>
        <time>2018-02-12T18:18:52Z</time>
      </trkpt>
      <trkpt lat="62.630496746266" lon="17.970257661314">
        <ele>101.6</ele>
        <time>2018-02-12T18:19:57Z</time>
      </trkpt>
      <trkpt lat="62.630506888365" lon="17.970273586924">
        <ele>101.6</ele>
        <time>2018-02-12T18:19:58Z</time>
      </trkpt>
      <trkpt lat="62.630526753468" lon="17.970299403176">
        <ele>101.6</ele>
        <time>2018-02-12T18:19:59Z</time>
      </trkpt>
      <trkpt lat="62.630545612743" lon="17.970307868895">
        <ele>101.8</ele>
        <time>2018-02-12T18:20:00Z</time>
      </trkpt>
      <trkpt lat="62.630562544181" lon="17.970301163375">
        <ele>101.8</ele>
        <time>2018-02-12T18:20:01Z</time>
      </trkpt>
      <trkpt lat="62.630585678225" lon="17.970285573041">
        <ele>101.8</ele>
        <time>2018-02-12T18:20:02Z</time>
      </trkpt>
      <trkpt lat="62.630604956595" lon="17.970272748734">
        <ele>102</ele>
        <time>2018-02-12T18:20:03Z</time>
      </trkpt>
      <trkpt lat="62.630627587725" lon="17.970257493676">
        <ele>102</ele>
        <time>2018-02-12T18:20:04Z</time>
      </trkpt>
      <trkpt lat="62.63065231433" lon="17.97024710012">
        <ele>102.2</ele>
        <time>2018-02-12T18:20:05Z</time>
      </trkpt>
      <trkpt lat="62.630676118926" lon="17.970236538926">
        <ele>102.2</ele>
        <time>2018-02-12T18:20:06Z</time>
      </trkpt>
      <trkpt lat="62.630696989857" lon="17.970222876429">
        <ele>102.4</ele>
        <time>2018-02-12T18:20:07Z</time>
      </trkpt>
      <trkpt lat="62.630720710634" lon="17.970209633027">
        <ele>102.4</ele>
        <time>2018-02-12T18:20:08Z</time>
      </trkpt>
      <trkpt lat="62.630744431411" lon="17.970197982186">
        <ele>102.6</ele>
        <time>2018-02-12T18:20:09Z</time>
      </trkpt>
      <trkpt lat="62.630764464152" lon="17.970193036865">
        <ele>102.4</ele>
        <time>2018-02-12T18:20:10Z</time>
      </trkpt>
      <trkpt lat="62.630790699499" lon="17.970183565318">
        <ele>102.4</ele>
        <time>2018-02-12T18:20:11Z</time>
      </trkpt>
      <trkpt lat="62.630813582086" lon="17.970173507038">
        <ele>102.2</ele>
        <time>2018-02-12T18:20:12Z</time>
      </trkpt>
      <trkpt lat="62.630831770809" lon="17.970161018007">
        <ele>102.2</ele>
        <time>2018-02-12T18:20:13Z</time>
      </trkpt>
      <trkpt lat="62.630855575405" lon="17.970146098225">
        <ele>102</ele>
        <time>2018-02-12T18:20:14Z</time>
      </trkpt>
      <trkpt lat="62.630879212363" lon="17.970143835112">
        <ele>102</ele>
        <time>2018-02-12T18:20:15Z</time>
      </trkpt>
      <trkpt lat="62.630896395258" lon="17.970139392705">
        <ele>101.8</ele>
        <time>2018-02-12T18:20:16Z</time>
      </trkpt>
      <trkpt lat="62.63091131504" lon="17.970136542859">
        <ele>101.6</ele>
        <time>2018-02-12T18:20:17Z</time>
      </trkpt>
      <trkpt lat="62.63092053513" lon="17.970134363565">
        <ele>101.6</ele>
        <time>2018-02-12T18:20:18Z</time>
      </trkpt>
      <trkpt lat="62.630927911202" lon="17.970134195927">
        <ele>101.6</ele>
        <time>2018-02-12T18:20:19Z</time>
      </trkpt>
      <trkpt lat="62.630932437428" lon="17.970130843167">
        <ele>101.6</ele>
        <time>2018-02-12T18:20:20Z</time>
      </trkpt>
      <trkpt lat="62.630931766876" lon="17.970133609194">
        <ele>101.6</ele>
        <time>2018-02-12T18:20:21Z</time>
      </trkpt>
      <trkpt lat="62.631110385165" lon="17.970029422177">
        <ele>101.4</ele>
        <time>2018-02-12T18:22:19Z</time>
      </trkpt>
      <trkpt lat="62.631131591372" lon="17.970020369725">
        <ele>101.4</ele>
        <time>2018-02-12T18:22:20Z</time>
      </trkpt>
      <trkpt lat="62.631151791751" lon="17.970012658377">
        <ele>101.2</ele>
        <time>2018-02-12T18:22:21Z</time>
      </trkpt>
      <trkpt lat="62.631171908311" lon="17.970002181002">
        <ele>101</ele>
        <time>2018-02-12T18:22:22Z</time>
      </trkpt>
      <trkpt lat="62.631192360147" lon="17.969991703627">
        <ele>100.8</ele>
        <time>2018-02-12T18:22:23Z</time>
      </trkpt>
      <trkpt lat="62.631216332381" lon="17.969981226252">
        <ele>100.6</ele>
        <time>2018-02-12T18:22:24Z</time>
      </trkpt>
      <trkpt lat="62.631237622407" lon="17.969969407773">
        <ele>100.6</ele>
        <time>2018-02-12T18:22:25Z</time>
      </trkpt>
      <trkpt lat="62.631260169718" lon="17.969958930398">
        <ele>100.4</ele>
        <time>2018-02-12T18:22:26Z</time>
      </trkpt>
      <trkpt lat="62.631274754224" lon="17.969948872118">
        <ele>100.4</ele>
        <time>2018-02-12T18:22:27Z</time>
      </trkpt>
      <trkpt lat="62.631298894096" lon="17.969933197965">
        <ele>100.4</ele>
        <time>2018-02-12T18:22:28Z</time>
      </trkpt>
      <trkpt lat="62.631317334276" lon="17.969920625115">
        <ele>100.4</ele>
        <time>2018-02-12T18:22:29Z</time>
      </trkpt>
      <trkpt lat="62.631336528827" lon="17.969911572663">
        <ele>100.2</ele>
        <time>2018-02-12T18:22:30Z</time>
      </trkpt>
      <trkpt lat="62.631361842165" lon="17.969900508555">
        <ele>100.2</ele>
        <time>2018-02-12T18:22:31Z</time>
      </trkpt>
      <trkpt lat="62.631383970381" lon="17.969889695904">
        <ele>100.2</ele>
        <time>2018-02-12T18:22:32Z</time>
      </trkpt>
      <trkpt lat="62.631404422217" lon="17.969873602656">
        <ele>100.2</ele>
        <time>2018-02-12T18:22:33Z</time>
      </trkpt>
      <trkpt lat="62.631427472442" lon="17.969860275435">
        <ele>100.2</ele>
        <time>2018-02-12T18:22:34Z</time>
      </trkpt>
      <trkpt lat="62.631451528495" lon="17.969849965698">
        <ele>100.2</ele>
        <time>2018-02-12T18:22:35Z</time>
      </trkpt>
      <trkpt lat="62.631473656711" lon="17.969838733952">
        <ele>100</ele>
        <time>2018-02-12T18:22:36Z</time>
      </trkpt>
      <trkpt lat="62.6314930189" lon="17.969824317084">
        <ele>100</ele>
        <time>2018-02-12T18:22:37Z</time>
      </trkpt>
      <trkpt lat="62.631514644202" lon="17.969810906044">
        <ele>100</ele>
        <time>2018-02-12T18:22:38Z</time>
      </trkpt>
      <trkpt lat="62.631532916744" lon="17.969799255203">
        <ele>100</ele>
        <time>2018-02-12T18:22:39Z</time>
      </trkpt>
      <trkpt lat="62.631552614209" lon="17.969782156127">
        <ele>100</ele>
        <time>2018-02-12T18:22:40Z</time>
      </trkpt>
      <trkpt lat="62.631574658606" lon="17.969769667096">
        <ele>100</ele>
        <time>2018-02-12T18:22:41Z</time>
      </trkpt>
      <trkpt lat="62.631593769338" lon="17.969756926608">
        <ele>100</ele>
        <time>2018-02-12T18:22:42Z</time>
      </trkpt>
      <trkpt lat="62.63161539464" lon="17.969739911351">
        <ele>100</ele>
        <time>2018-02-12T18:22:43Z</time>
      </trkpt>
      <trkpt lat="62.631638361046" lon="17.969721974085">
        <ele>100</ele>
        <time>2018-02-12T18:22:44Z</time>
      </trkpt>
      <trkpt lat="62.631659231977" lon="17.969702528077">
        <ele>100</ele>
        <time>2018-02-12T18:22:45Z</time>
      </trkpt>
      <trkpt lat="62.631678091252" lon="17.969681824784">
        <ele>100</ele>
        <time>2018-02-12T18:22:46Z</time>
      </trkpt>
      <trkpt lat="62.631697285803" lon="17.969658020188">
        <ele>100</ele>
        <time>2018-02-12T18:22:47Z</time>
      </trkpt>
      <trkpt lat="62.631721593313" lon="17.969636813981">
        <ele>99.8</ele>
        <time>2018-02-12T18:22:48Z</time>
      </trkpt>
      <trkpt lat="62.631740536407" lon="17.969614937222">
        <ele>99.6</ele>
        <time>2018-02-12T18:22:49Z</time>
      </trkpt>
      <trkpt lat="62.631761910252" lon="17.969590378255">
        <ele>99.4</ele>
        <time>2018-02-12T18:22:50Z</time>
      </trkpt>
      <trkpt lat="62.631782697364" lon="17.969572105713">
        <ele>99.4</ele>
        <time>2018-02-12T18:22:51Z</time>
      </trkpt>
      <trkpt lat="62.631803065381" lon="17.969560287234">
        <ele>99.2</ele>
        <time>2018-02-12T18:22:52Z</time>
      </trkpt>
      <trkpt lat="62.631824606864" lon="17.969544193986">
        <ele>99.2</ele>
        <time>2018-02-12T18:22:53Z</time>
      </trkpt>
      <trkpt lat="62.631846399804" lon="17.969531453498">
        <ele>99.2</ele>
        <time>2018-02-12T18:22:54Z</time>
      </trkpt>
      <trkpt lat="62.63186852802" lon="17.969525167073">
        <ele>99.2</ele>
        <time>2018-02-12T18:22:55Z</time>
      </trkpt>
      <trkpt lat="62.631890991512" lon="17.969524245064">
        <ele>99.4</ele>
        <time>2018-02-12T18:22:56Z</time>
      </trkpt>
      <trkpt lat="62.631909683149" lon="17.969527346367">
        <ele>99.4</ele>
        <time>2018-02-12T18:22:57Z</time>
      </trkpt>
      <trkpt lat="62.631933739202" lon="17.96953212405">
        <ele>99.4</ele>
        <time>2018-02-12T18:22:58Z</time>
      </trkpt>
      <trkpt lat="62.63195569978" lon="17.96953296224">
        <ele>99.4</ele>
        <time>2018-02-12T18:22:59Z</time>
      </trkpt>
      <trkpt lat="62.631980174928" lon="17.969532375507">
        <ele>99.4</ele>
        <time>2018-02-12T18:23:00Z</time>
      </trkpt>
      <trkpt lat="62.632000207669" lon="17.96953044767">
        <ele>99.4</ele>
        <time>2018-02-12T18:23:01Z</time>
      </trkpt>
      <trkpt lat="62.632019988953" lon="17.969523071598">
        <ele>99.6</ele>
        <time>2018-02-12T18:23:02Z</time>
      </trkpt>
      <trkpt lat="62.63204203335" lon="17.969515276431">
        <ele>99.6</ele>
        <time>2018-02-12T18:23:03Z</time>
      </trkpt>
      <trkpt lat="62.63206382629" lon="17.969511085481">
        <ele>99.6</ele>
        <time>2018-02-12T18:23:04Z</time>
      </trkpt>
      <trkpt lat="62.632085954506" lon="17.969497590622">
        <ele>99.6</ele>
        <time>2018-02-12T18:23:05Z</time>
      </trkpt>
      <trkpt lat="62.632110010559" lon="17.969491304197">
        <ele>99.6</ele>
        <time>2018-02-12T18:23:06Z</time>
      </trkpt>
      <trkpt lat="62.632128869834" lon="17.969485436867">
        <ele>99.6</ele>
        <time>2018-02-12T18:23:07Z</time>
      </trkpt>
      <trkpt lat="62.632152003878" lon="17.969482419383">
        <ele>99.6</ele>
        <time>2018-02-12T18:23:08Z</time>
      </trkpt>
      <trkpt lat="62.632171617524" lon="17.969480659184">
        <ele>99.6</ele>
        <time>2018-02-12T18:23:09Z</time>
      </trkpt>
      <trkpt lat="62.632190728256" lon="17.96947847989">
        <ele>99.6</ele>
        <time>2018-02-12T18:23:10Z</time>
      </trkpt>
      <trkpt lat="62.632212605015" lon="17.969469762714">
        <ele>99.6</ele>
        <time>2018-02-12T18:23:11Z</time>
      </trkpt>
      <trkpt lat="62.632233056851" lon="17.969465487945">
        <ele>99.6</ele>
        <time>2018-02-12T18:23:12Z</time>
      </trkpt>
      <trkpt lat="62.632255855619" lon="17.969460291167">
        <ele>99.8</ele>
        <time>2018-02-12T18:23:13Z</time>
      </trkpt>
      <trkpt lat="62.632281420414" lon="17.969456184036">
        <ele>99.6</ele>
        <time>2018-02-12T18:23:14Z</time>
      </trkpt>
      <trkpt lat="62.632303883906" lon="17.969454088561">
        <ele>99.6</ele>
        <time>2018-02-12T18:23:15Z</time>
      </trkpt>
      <trkpt lat="62.632327772321" lon="17.969450065249">
        <ele>99.6</ele>
        <time>2018-02-12T18:23:16Z</time>
      </trkpt>
      <trkpt lat="62.632349900537" lon="17.969448221231">
        <ele>99.4</ele>
        <time>2018-02-12T18:23:17Z</time>
      </trkpt>
      <trkpt lat="62.632374291866" lon="17.969448472688">
        <ele>99.4</ele>
        <time>2018-02-12T18:23:18Z</time>
      </trkpt>
      <trkpt lat="62.632400024299" lon="17.969448807964">
        <ele>99.4</ele>
        <time>2018-02-12T18:23:19Z</time>
      </trkpt>
      <trkpt lat="62.632426511103" lon="17.969456603131">
        <ele>99.4</ele>
        <time>2018-02-12T18:23:20Z</time>
      </trkpt>
      <trkpt lat="62.632447801129" lon="17.969465487945">
        <ele>99.4</ele>
        <time>2018-02-12T18:23:21Z</time>
      </trkpt>
      <trkpt lat="62.632471018992" lon="17.969464901212">
        <ele>99.2</ele>
        <time>2018-02-12T18:23:22Z</time>
      </trkpt>
      <trkpt lat="62.632495158864" lon="17.969470517085">
        <ele>99.4</ele>
        <time>2018-02-12T18:23:23Z</time>
      </trkpt>
      <trkpt lat="62.632515945976" lon="17.969474959492">
        <ele>99.4</ele>
        <time>2018-02-12T18:23:24Z</time>
      </trkpt>
      <trkpt lat="62.632540337305" lon="17.969478144614">
        <ele>99.4</ele>
        <time>2018-02-12T18:23:25Z</time>
      </trkpt>
      <trkpt lat="62.632561878788" lon="17.969483844306">
        <ele>99.4</ele>
        <time>2018-02-12T18:23:26Z</time>
      </trkpt>
      <trkpt lat="62.632577972036" lon="17.96948686179">
        <ele>99.4</ele>
        <time>2018-02-12T18:23:27Z</time>
      </trkpt>
      <trkpt lat="62.632605129392" lon="17.969490717464">
        <ele>99.4</ele>
        <time>2018-02-12T18:23:28Z</time>
      </trkpt>
      <trkpt lat="62.632627341427" lon="17.969491388016">
        <ele>99.4</ele>
        <time>2018-02-12T18:23:29Z</time>
      </trkpt>
      <trkpt lat="62.632650391652" lon="17.969491555654">
        <ele>99.4</ele>
        <time>2018-02-12T18:23:30Z</time>
      </trkpt>
      <trkpt lat="62.632672938963" lon="17.969498177355">
        <ele>99.6</ele>
        <time>2018-02-12T18:23:31Z</time>
      </trkpt>
      <trkpt lat="62.632694564265" lon="17.969505050513">
        <ele>99.6</ele>
        <time>2018-02-12T18:23:32Z</time>
      </trkpt>
      <trkpt lat="62.632717363033" lon="17.969509744377">
        <ele>99.6</ele>
        <time>2018-02-12T18:23:33Z</time>
      </trkpt>
      <trkpt lat="62.63274276019" lon="17.969517204268">
        <ele>99.6</ele>
        <time>2018-02-12T18:23:34Z</time>
      </trkpt>
      <trkpt lat="62.632762122379" lon="17.9695195512">
        <ele>99.6</ele>
        <time>2018-02-12T18:23:35Z</time>
      </trkpt>
      <trkpt lat="62.632781233111" lon="17.969521311399">
        <ele>99.8</ele>
        <time>2018-02-12T18:23:36Z</time>
      </trkpt>
      <trkpt lat="62.632800930576" lon="17.969523071598">
        <ele>99.8</ele>
        <time>2018-02-12T18:23:37Z</time>
      </trkpt>
      <trkpt lat="62.632823729344" lon="17.969526927272">
        <ele>99.8</ele>
        <time>2018-02-12T18:23:38Z</time>
      </trkpt>
      <trkpt lat="62.632841079877" lon="17.969526005263">
        <ele>99.8</ele>
        <time>2018-02-12T18:23:39Z</time>
      </trkpt>
      <trkpt lat="62.632863711007" lon="17.969528519833">
        <ele>99.8</ele>
        <time>2018-02-12T18:23:40Z</time>
      </trkpt>
      <trkpt lat="62.632884581938" lon="17.969531956412">
        <ele>99.8</ele>
        <time>2018-02-12T18:23:41Z</time>
      </trkpt>
      <trkpt lat="62.632904363222" lon="17.969531704955">
        <ele>99.8</ele>
        <time>2018-02-12T18:23:42Z</time>
      </trkpt>
      <trkpt lat="62.632928586913" lon="17.969533548973">
        <ele>99.8</ele>
        <time>2018-02-12T18:23:43Z</time>
      </trkpt>
      <trkpt lat="62.632948619654" lon="17.969534722439">
        <ele>99.8</ele>
        <time>2018-02-12T18:23:44Z</time>
      </trkpt>
      <trkpt lat="62.63296907149" lon="17.969534219525">
        <ele>100</ele>
        <time>2018-02-12T18:23:45Z</time>
      </trkpt>
      <trkpt lat="62.632994720104" lon="17.969538242837">
        <ele>100</ele>
        <time>2018-02-12T18:23:46Z</time>
      </trkpt>
      <trkpt lat="62.63301601013" lon="17.969542014692">
        <ele>100</ele>
        <time>2018-02-12T18:23:47Z</time>
      </trkpt>
      <trkpt lat="62.633039227993" lon="17.969545451271">
        <ele>100.2</ele>
        <time>2018-02-12T18:23:48Z</time>
      </trkpt>
      <trkpt lat="62.633062864951" lon="17.969557102112">
        <ele>100.2</ele>
        <time>2018-02-12T18:23:49Z</time>
      </trkpt>
      <trkpt lat="62.633086166633" lon="17.969563304718">
        <ele>100.4</ele>
        <time>2018-02-12T18:23:50Z</time>
      </trkpt>
      <trkpt lat="62.633109635953" lon="17.969575877568">
        <ele>100.6</ele>
        <time>2018-02-12T18:23:51Z</time>
      </trkpt>
      <trkpt lat="62.633132099445" lon="17.969588450418">
        <ele>100.8</ele>
        <time>2018-02-12T18:23:52Z</time>
      </trkpt>
      <trkpt lat="62.633154898213" lon="17.96960253201">
        <ele>100.8</ele>
        <time>2018-02-12T18:23:53Z</time>
      </trkpt>
      <trkpt lat="62.633174344221" lon="17.969612087376">
        <ele>101</ele>
        <time>2018-02-12T18:23:54Z</time>
      </trkpt>
      <trkpt lat="62.633198148817" lon="17.969620636914">
        <ele>100.8</ele>
        <time>2018-02-12T18:23:55Z</time>
      </trkpt>
      <trkpt lat="62.633220109395" lon="17.969630527556">
        <ele>100.8</ele>
        <time>2018-02-12T18:23:56Z</time>
      </trkpt>
      <trkpt lat="62.633240896507" lon="17.969640921112">
        <ele>100.8</ele>
        <time>2018-02-12T18:23:57Z</time>
      </trkpt>
      <trkpt lat="62.633260426334" lon="17.969658942197">
        <ele>100.6</ele>
        <time>2018-02-12T18:23:58Z</time>
      </trkpt>
      <trkpt lat="62.633281213446" lon="17.969673610522">
        <ele>100.8</ele>
        <time>2018-02-12T18:23:59Z</time>
      </trkpt>
      <trkpt lat="62.633299905083" lon="17.96968886558">
        <ele>100.8</ele>
        <time>2018-02-12T18:24:00Z</time>
      </trkpt>
      <trkpt lat="62.633315914512" lon="17.969713676004">
        <ele>100.8</ele>
        <time>2018-02-12T18:24:01Z</time>
      </trkpt>
      <trkpt lat="62.633329996104" lon="17.969741420093">
        <ele>100.8</ele>
        <time>2018-02-12T18:24:02Z</time>
      </trkpt>
      <trkpt lat="62.633345502619" lon="17.969771762571">
        <ele>100.8</ele>
        <time>2018-02-12T18:24:03Z</time>
      </trkpt>
      <trkpt lat="62.633359332754" lon="17.969810151673">
        <ele>101</ele>
        <time>2018-02-12T18:24:04Z</time>
      </trkpt>
      <trkpt lat="62.63336804993" lon="17.96985398901">
        <ele>101.2</ele>
        <time>2018-02-12T18:24:05Z</time>
      </trkpt>
      <trkpt lat="62.633374503993" lon="17.969895479415">
        <ele>101.2</ele>
        <time>2018-02-12T18:24:06Z</time>
      </trkpt>
      <trkpt lat="62.633380538961" lon="17.969941496046">
        <ele>101.2</ele>
        <time>2018-02-12T18:24:07Z</time>
      </trkpt>
      <trkpt lat="62.633384394635" lon="17.969992038903">
        <ele>101.2</ele>
        <time>2018-02-12T18:24:08Z</time>
      </trkpt>
      <trkpt lat="62.633387160662" lon="17.970032020566">
        <ele>101.2</ele>
        <time>2018-02-12T18:24:09Z</time>
      </trkpt>
      <trkpt lat="62.633388250309" lon="17.970083988346">
        <ele>101.6</ele>
        <time>2018-02-12T18:24:10Z</time>
      </trkpt>
      <trkpt lat="62.633390094327" lon="17.97012975352">
        <ele>101.6</ele>
        <time>2018-02-12T18:24:11Z</time>
      </trkpt>
      <trkpt lat="62.633393782363" lon="17.970168226441">
        <ele>101.8</ele>
        <time>2018-02-12T18:24:12Z</time>
      </trkpt>
      <trkpt lat="62.633395877838" lon="17.970221535325">
        <ele>102.2</ele>
        <time>2018-02-12T18:24:13Z</time>
      </trkpt>
      <trkpt lat="62.633398392408" lon="17.970267719594">
        <ele>102.4</ele>
        <time>2018-02-12T18:24:14Z</time>
      </trkpt>
      <trkpt lat="62.633402834815" lon="17.970306695429">
        <ele>102.4</ele>
        <time>2018-02-12T18:24:15Z</time>
      </trkpt>
      <trkpt lat="62.633410043249" lon="17.970351203318">
        <ele>102.4</ele>
        <time>2018-02-12T18:24:16Z</time>
      </trkpt>
      <trkpt lat="62.633417838416" lon="17.970390765886">
        <ele>102.4</ele>
        <time>2018-02-12T18:24:17Z</time>
      </trkpt>
      <trkpt lat="62.633423454289" lon="17.970421611278">
        <ele>102.4</ele>
        <time>2018-02-12T18:24:18Z</time>
      </trkpt>
      <trkpt lat="62.633428734886" lon="17.970447259892">
        <ele>102.6</ele>
        <time>2018-02-12T18:24:19Z</time>
      </trkpt>
      <trkpt lat="62.633422197004" lon="17.970450193557">
        <ele>102.8</ele>
        <time>2018-02-12T18:24:20Z</time>
      </trkpt>
      <trkpt lat="62.633418844244" lon="17.970427646246">
        <ele>102.8</ele>
        <time>2018-02-12T18:24:21Z</time>
      </trkpt>
      <trkpt lat="62.633418425149" lon="17.970403757831">
        <ele>103</ele>
        <time>2018-02-12T18:24:22Z</time>
      </trkpt>
      <trkpt lat="62.633419430977" lon="17.97038121052">
        <ele>103</ele>
        <time>2018-02-12T18:24:23Z</time>
      </trkpt>
      <trkpt lat="62.633418089873" lon="17.970362015969">
        <ele>103</ele>
        <time>2018-02-12T18:24:24Z</time>
      </trkpt>
      <trkpt lat="62.633415575303" lon="17.97034684473">
        <ele>102.8</ele>
        <time>2018-02-12T18:24:25Z</time>
      </trkpt>
      <trkpt lat="62.63341415038" lon="17.97033175731">
        <ele>102.8</ele>
        <time>2018-02-12T18:24:26Z</time>
      </trkpt>
      <trkpt lat="62.633410965258" lon="17.970317759537">
        <ele>102.8</ele>
        <time>2018-02-12T18:24:28Z</time>
      </trkpt>
      <trkpt lat="62.633411971086" lon="17.970336032079">
        <ele>102.8</ele>
        <time>2018-02-12T18:24:29Z</time>
      </trkpt>
      <trkpt lat="62.633403337729" lon="17.970712882303">
        <ele>103</ele>
        <time>2018-02-12T18:25:20Z</time>
      </trkpt>
      <trkpt lat="62.633403756824" lon="17.970767029377">
        <ele>103</ele>
        <time>2018-02-12T18:25:21Z</time>
      </trkpt>
      <trkpt lat="62.633403924462" lon="17.970824864487">
        <ele>103</ele>
        <time>2018-02-12T18:25:22Z</time>
      </trkpt>
      <trkpt lat="62.633408199231" lon="17.970888902203">
        <ele>102.8</ele>
        <time>2018-02-12T18:25:23Z</time>
      </trkpt>
      <trkpt lat="62.633413144552" lon="17.970943719829">
        <ele>103</ele>
        <time>2018-02-12T18:25:24Z</time>
      </trkpt>
      <trkpt lat="62.633416581131" lon="17.971009266287">
        <ele>103</ele>
        <time>2018-02-12T18:25:25Z</time>
      </trkpt>
      <trkpt lat="62.633418592787" lon="17.971069867424">
        <ele>103</ele>
        <time>2018-02-12T18:25:26Z</time>
      </trkpt>
      <trkpt lat="62.633420101529" lon="17.971127870172">
        <ele>103</ele>
        <time>2018-02-12T18:25:27Z</time>
      </trkpt>
      <trkpt lat="62.633421191176" lon="17.971181095237">
        <ele>103.2</ele>
        <time>2018-02-12T18:25:28Z</time>
      </trkpt>
      <trkpt lat="62.633422364642" lon="17.971242450745">
        <ele>103.4</ele>
        <time>2018-02-12T18:25:29Z</time>
      </trkpt>
      <trkpt lat="62.63342253228" lon="17.971300369674">
        <ele>103.6</ele>
        <time>2018-02-12T18:25:30Z</time>
      </trkpt>
      <trkpt lat="62.633421777909" lon="17.971355522576">
        <ele>103.8</ele>
        <time>2018-02-12T18:25:31Z</time>
      </trkpt>
      <trkpt lat="62.633421610271" lon="17.971407909451">
        <ele>104</ele>
        <time>2018-02-12T18:25:32Z</time>
      </trkpt>
      <trkpt lat="62.63341917952" lon="17.97146331381">
        <ele>104</ele>
        <time>2018-02-12T18:25:33Z</time>
      </trkpt>
      <trkpt lat="62.633416413493" lon="17.971519640178">
        <ele>104</ele>
        <time>2018-02-12T18:25:34Z</time>
      </trkpt>
      <trkpt lat="62.633413898923" lon="17.971574038709">
        <ele>104</ele>
        <time>2018-02-12T18:25:35Z</time>
      </trkpt>
      <trkpt lat="62.633411132896" lon="17.971627850507">
        <ele>104.4</ele>
        <time>2018-02-12T18:25:36Z</time>
      </trkpt>
      <trkpt lat="62.633409707973" lon="17.971678477183">
        <ele>104.6</ele>
        <time>2018-02-12T18:25:37Z</time>
      </trkpt>
      <trkpt lat="62.633407277222" lon="17.971737904854">
        <ele>104.6</ele>
        <time>2018-02-12T18:25:38Z</time>
      </trkpt>
      <trkpt lat="62.633403756824" lon="17.971788028616">
        <ele>104.8</ele>
        <time>2018-02-12T18:25:39Z</time>
      </trkpt>
      <trkpt lat="62.633398895322" lon="17.971842594785">
        <ele>105</ele>
        <time>2018-02-12T18:25:40Z</time>
      </trkpt>
      <trkpt lat="62.633393363268" lon="17.971896406583">
        <ele>104.8</ele>
        <time>2018-02-12T18:25:41Z</time>
      </trkpt>
      <trkpt lat="62.633389088499" lon="17.971945608336">
        <ele>105</ele>
        <time>2018-02-12T18:25:42Z</time>
      </trkpt>
      <trkpt lat="62.633383221169" lon="17.972002605256">
        <ele>105.2</ele>
        <time>2018-02-12T18:25:43Z</time>
      </trkpt>
      <trkpt lat="62.633378275848" lon="17.972055243588">
        <ele>105.4</ele>
        <time>2018-02-12T18:25:44Z</time>
      </trkpt>
      <trkpt lat="62.633372576156" lon="17.972105283531">
        <ele>105.6</ele>
        <time>2018-02-12T18:25:45Z</time>
      </trkpt>
      <trkpt lat="62.633365367722" lon="17.972160855528">
        <ele>105.6</ele>
        <time>2018-02-12T18:25:46Z</time>
      </trkpt>
      <trkpt lat="62.633360422401" lon="17.972210895471">
        <ele>105.8</ele>
        <time>2018-02-12T18:25:47Z</time>
      </trkpt>
      <trkpt lat="62.633351956682" lon="17.972266886563">
        <ele>105.8</ele>
        <time>2018-02-12T18:25:48Z</time>
      </trkpt>
      <trkpt lat="62.633343071868" lon="17.97231575304">
        <ele>105.8</ele>
        <time>2018-02-12T18:25:49Z</time>
      </trkpt>
      <trkpt lat="62.633335863434" lon="17.97236269168">
        <ele>105.4</ele>
        <time>2018-02-12T18:25:50Z</time>
      </trkpt>
      <trkpt lat="62.633327481534" lon="17.972411390519">
        <ele>105.6</ele>
        <time>2018-02-12T18:25:51Z</time>
      </trkpt>
      <trkpt lat="62.633318345263" lon="17.972460592272">
        <ele>105.6</ele>
        <time>2018-02-12T18:25:52Z</time>
      </trkpt>
      <trkpt lat="62.63330853844" lon="17.972517253916">
        <ele>105.8</ele>
        <time>2018-02-12T18:25:53Z</time>
      </trkpt>
      <trkpt lat="62.633301162368" lon="17.972568718782">
        <ele>106</ele>
        <time>2018-02-12T18:25:54Z</time>
      </trkpt>
      <trkpt lat="62.633293031925" lon="17.972619345458">
        <ele>105.8</ele>
        <time>2018-02-12T18:25:55Z</time>
      </trkpt>
      <trkpt lat="62.633283644197" lon="17.972669385401">
        <ele>105.8</ele>
        <time>2018-02-12T18:25:56Z</time>
      </trkpt>
      <trkpt lat="62.633274675564" lon="17.972717497507">
        <ele>106</ele>
        <time>2018-02-12T18:25:57Z</time>
      </trkpt>
      <trkpt lat="62.633265036379" lon="17.972771141667">
        <ele>106.2</ele>
        <time>2018-02-12T18:25:58Z</time>
      </trkpt>
      <trkpt lat="62.63325573247" lon="17.972821600705">
        <ele>106.2</ele>
        <time>2018-02-12T18:25:59Z</time>
      </trkpt>
      <trkpt lat="62.633244165448" lon="17.97287063482">
        <ele>106.2</ele>
        <time>2018-02-12T18:26:00Z</time>
      </trkpt>
      <trkpt lat="62.63323477772" lon="17.972921512953">
        <ele>106.2</ele>
        <time>2018-02-12T18:26:01Z</time>
      </trkpt>
      <trkpt lat="62.633225473811" lon="17.972967110489">
        <ele>106.4</ele>
        <time>2018-02-12T18:26:02Z</time>
      </trkpt>
      <trkpt lat="62.633215415531" lon="17.973015976966">
        <ele>106.4</ele>
        <time>2018-02-12T18:26:03Z</time>
      </trkpt>
      <trkpt lat="62.63320544107" lon="17.973067860927">
        <ele>106.2</ele>
        <time>2018-02-12T18:26:04Z</time>
      </trkpt>
      <trkpt lat="62.633196975351" lon="17.973114129015">
        <ele>106.4</ele>
        <time>2018-02-12T18:26:05Z</time>
      </trkpt>
      <trkpt lat="62.633186581795" lon="17.973167605537">
        <ele>106.4</ele>
        <time>2018-02-12T18:26:06Z</time>
      </trkpt>
      <trkpt lat="62.633179038085" lon="17.973211694331">
        <ele>106.4</ele>
        <time>2018-02-12T18:26:07Z</time>
      </trkpt>
      <trkpt lat="62.633168309253" lon="17.973265925224">
        <ele>106.2</ele>
        <time>2018-02-12T18:26:08Z</time>
      </trkpt>
      <trkpt lat="62.633157999516" lon="17.973313450597">
        <ele>106.4</ele>
        <time>2018-02-12T18:26:09Z</time>
      </trkpt>
      <trkpt lat="62.633146935408" lon="17.973362987626">
        <ele>106.4</ele>
        <time>2018-02-12T18:26:10Z</time>
      </trkpt>
      <trkpt lat="62.633135787481" lon="17.973410345361">
        <ele>106.2</ele>
        <time>2018-02-12T18:26:11Z</time>
      </trkpt>
      <trkpt lat="62.633126315934" lon="17.973453428327">
        <ele>106.4</ele>
        <time>2018-02-12T18:26:12Z</time>
      </trkpt>
      <trkpt lat="62.633115251826" lon="17.973500283148">
        <ele>106.2</ele>
        <time>2018-02-12T18:26:13Z</time>
      </trkpt>
      <trkpt lat="62.633103768623" lon="17.97354537777">
        <ele>106.6</ele>
        <time>2018-02-12T18:26:14Z</time>
      </trkpt>
      <trkpt lat="62.633094967628" lon="17.973586197623">
        <ele>106.8</ele>
        <time>2018-02-12T18:26:15Z</time>
      </trkpt>
      <trkpt lat="62.633084993167" lon="17.973630789331">
        <ele>106.6</ele>
        <time>2018-02-12T18:26:16Z</time>
      </trkpt>
      <trkpt lat="62.633074599611" lon="17.97367110627">
        <ele>106.6</ele>
        <time>2018-02-12T18:26:17Z</time>
      </trkpt>
      <trkpt lat="62.633063870779" lon="17.973718715462">
        <ele>106.8</ele>
        <time>2018-02-12T18:26:18Z</time>
      </trkpt>
      <trkpt lat="62.633051968481" lon="17.97376330717">
        <ele>106.8</ele>
        <time>2018-02-12T18:26:19Z</time>
      </trkpt>
      <trkpt lat="62.633041826382" lon="17.973801696272">
        <ele>106.6</ele>
        <time>2018-02-12T18:26:20Z</time>
      </trkpt>
      <trkpt lat="62.633032354835" lon="17.973844779238">
        <ele>106.6</ele>
        <time>2018-02-12T18:26:21Z</time>
      </trkpt>
      <trkpt lat="62.633020117261" lon="17.973888365118">
        <ele>106.8</ele>
        <time>2018-02-12T18:26:22Z</time>
      </trkpt>
      <trkpt lat="62.63300679004" lon="17.973931028989">
        <ele>107.2</ele>
        <time>2018-02-12T18:26:23Z</time>
      </trkpt>
      <trkpt lat="62.63299421719" lon="17.973974279593">
        <ele>107.4</ele>
        <time>2018-02-12T18:26:24Z</time>
      </trkpt>
      <trkpt lat="62.632981979616" lon="17.97401727874">
        <ele>107.8</ele>
        <time>2018-02-12T18:26:25Z</time>
      </trkpt>
      <trkpt lat="62.632970328775" lon="17.974063295371">
        <ele>107.8</ele>
        <time>2018-02-12T18:26:26Z</time>
      </trkpt>
      <trkpt lat="62.632959097029" lon="17.974109647278">
        <ele>107.6</ele>
        <time>2018-02-12T18:26:27Z</time>
      </trkpt>
      <trkpt lat="62.632946859455" lon="17.974159687221">
        <ele>107.6</ele>
        <time>2018-02-12T18:26:28Z</time>
      </trkpt>
      <trkpt lat="62.632936130623" lon="17.974213834295">
        <ele>107.4</ele>
        <time>2018-02-12T18:26:29Z</time>
      </trkpt>
      <trkpt lat="62.632923641592" lon="17.974268149007">
        <ele>107.4</ele>
        <time>2018-02-12T18:26:30Z</time>
      </trkpt>
      <trkpt lat="62.632912493665" lon="17.974316093475">
        <ele>107.4</ele>
        <time>2018-02-12T18:26:31Z</time>
      </trkpt>
      <trkpt lat="62.632902183928" lon="17.974360433726">
        <ele>107.4</ele>
        <time>2018-02-12T18:26:32Z</time>
      </trkpt>
      <trkpt lat="62.632891790372" lon="17.974408042918">
        <ele>107.6</ele>
        <time>2018-02-12T18:26:33Z</time>
      </trkpt>
      <trkpt lat="62.632881564454" lon="17.974457412309">
        <ele>108</ele>
        <time>2018-02-12T18:26:34Z</time>
      </trkpt>
      <trkpt lat="62.632871254717" lon="17.974504015673">
        <ele>108</ele>
        <time>2018-02-12T18:26:35Z</time>
      </trkpt>
      <trkpt lat="62.632859855333" lon="17.9745570731">
        <ele>108.2</ele>
        <time>2018-02-12T18:26:36Z</time>
      </trkpt>
      <trkpt lat="62.632848455949" lon="17.974603927921">
        <ele>108.2</ele>
        <time>2018-02-12T18:26:37Z</time>
      </trkpt>
      <trkpt lat="62.632833200891" lon="17.974655811882">
        <ele>108.2</ele>
        <time>2018-02-12T18:26:38Z</time>
      </trkpt>
      <trkpt lat="62.63282155005" lon="17.974700235952">
        <ele>108.4</ele>
        <time>2018-02-12T18:26:39Z</time>
      </trkpt>
      <trkpt lat="62.632808893381" lon="17.974752455189">
        <ele>108.6</ele>
        <time>2018-02-12T18:26:40Z</time>
      </trkpt>
      <trkpt lat="62.632796991083" lon="17.974801656942">
        <ele>109</ele>
        <time>2018-02-12T18:26:41Z</time>
      </trkpt>
      <trkpt lat="62.632786848984" lon="17.974846500107">
        <ele>109.2</ele>
        <time>2018-02-12T18:26:42Z</time>
      </trkpt>
      <trkpt lat="62.632774862867" lon="17.974899222258">
        <ele>109</ele>
        <time>2018-02-12T18:26:43Z</time>
      </trkpt>
      <trkpt lat="62.63276287675" lon="17.974949094563">
        <ele>108.8</ele>
        <time>2018-02-12T18:26:44Z</time>
      </trkpt>
      <trkpt lat="62.632752315556" lon="17.974993267176">
        <ele>109</ele>
        <time>2018-02-12T18:26:45Z</time>
      </trkpt>
      <trkpt lat="62.632740329439" lon="17.975046408422">
        <ele>108.8</ele>
        <time>2018-02-12T18:26:46Z</time>
      </trkpt>
      <trkpt lat="62.632730354978" lon="17.975089156112">
        <ele>108.8</ele>
        <time>2018-02-12T18:26:47Z</time>
      </trkpt>
      <trkpt lat="62.632720045241" lon="17.975139028417">
        <ele>109</ele>
        <time>2018-02-12T18:26:48Z</time>
      </trkpt>
      <trkpt lat="62.632709316409" lon="17.975190577102">
        <ele>109</ele>
        <time>2018-02-12T18:26:49Z</time>
      </trkpt>
      <trkpt lat="62.632699341948" lon="17.975236677552">
        <ele>108.8</ele>
        <time>2018-02-12T18:26:50Z</time>
      </trkpt>
      <trkpt lat="62.632687942564" lon="17.975287471866">
        <ele>108.8</ele>
        <time>2018-02-12T18:26:51Z</time>
      </trkpt>
      <trkpt lat="62.632677297551" lon="17.97533491342">
        <ele>108.8</ele>
        <time>2018-02-12T18:26:52Z</time>
      </trkpt>
      <trkpt lat="62.632667490728" lon="17.975384618087">
        <ele>109</ele>
        <time>2018-02-12T18:26:53Z</time>
      </trkpt>
      <trkpt lat="62.632656007525" lon="17.975435412401">
        <ele>108.8</ele>
        <time>2018-02-12T18:26:54Z</time>
      </trkpt>
      <trkpt lat="62.632644356684" lon="17.975482351041">
        <ele>108.8</ele>
        <time>2018-02-12T18:26:55Z</time>
      </trkpt>
      <trkpt lat="62.632633879309" lon="17.97553272626">
        <ele>109</ele>
        <time>2018-02-12T18:26:56Z</time>
      </trkpt>
      <trkpt lat="62.632624826857" lon="17.975583185298">
        <ele>108.8</ele>
        <time>2018-02-12T18:26:57Z</time>
      </trkpt>
      <trkpt lat="62.632612421645" lon="17.975633895793">
        <ele>109.2</ele>
        <time>2018-02-12T18:26:58Z</time>
      </trkpt>
      <trkpt lat="62.632600770804" lon="17.975685695935">
        <ele>109</ele>
        <time>2018-02-12T18:26:59Z</time>
      </trkpt>
      <trkpt lat="62.632587862678" lon="17.975736574068">
        <ele>108.8</ele>
        <time>2018-02-12T18:27:00Z</time>
      </trkpt>
      <trkpt lat="62.632577385303" lon="17.975785775821">
        <ele>108.8</ele>
        <time>2018-02-12T18:27:01Z</time>
      </trkpt>
      <trkpt lat="62.632567243204" lon="17.975834307022">
        <ele>108.8</ele>
        <time>2018-02-12T18:27:02Z</time>
      </trkpt>
      <trkpt lat="62.632555760001" lon="17.975885436612">
        <ele>108.8</ele>
        <time>2018-02-12T18:27:03Z</time>
      </trkpt>
      <trkpt lat="62.632544779712" lon="17.975936985297">
        <ele>108.8</ele>
        <time>2018-02-12T18:27:04Z</time>
      </trkpt>
      <trkpt lat="62.632534637613" lon="17.97598115791">
        <ele>108.8</ele>
        <time>2018-02-12T18:27:05Z</time>
      </trkpt>
      <trkpt lat="62.632523489686" lon="17.976031281672">
        <ele>108.8</ele>
        <time>2018-02-12T18:27:06Z</time>
      </trkpt>
      <trkpt lat="62.632512593216" lon="17.976074113181">
        <ele>109</ele>
        <time>2018-02-12T18:27:07Z</time>
      </trkpt>
      <trkpt lat="62.632497757253" lon="17.976124739857">
        <ele>109</ele>
        <time>2018-02-12T18:27:08Z</time>
      </trkpt>
      <trkpt lat="62.632487782792" lon="17.976170169755">
        <ele>109</ele>
        <time>2018-02-12T18:27:09Z</time>
      </trkpt>
      <trkpt lat="62.632477305417" lon="17.976221299345">
        <ele>109.2</ele>
        <time>2018-02-12T18:27:10Z</time>
      </trkpt>
      <trkpt lat="62.632466492766" lon="17.976268824718">
        <ele>109.2</ele>
        <time>2018-02-12T18:27:11Z</time>
      </trkpt>
      <trkpt lat="62.632456769762" lon="17.976314170797">
        <ele>109.4</ele>
        <time>2018-02-12T18:27:12Z</time>
      </trkpt>
      <trkpt lat="62.632445118921" lon="17.976368234052">
        <ele>109.6</ele>
        <time>2018-02-12T18:27:13Z</time>
      </trkpt>
      <trkpt lat="62.632432881347" lon="17.976421794393">
        <ele>109.6</ele>
        <time>2018-02-12T18:27:14Z</time>
      </trkpt>
      <trkpt lat="62.632422236334" lon="17.976466134644">
        <ele>109.8</ele>
        <time>2018-02-12T18:27:15Z</time>
      </trkpt>
      <trkpt lat="62.632410753131" lon="17.976520365537">
        <ele>110</ele>
        <time>2018-02-12T18:27:16Z</time>
      </trkpt>
      <trkpt lat="62.632400694851" lon="17.976570321661">
        <ele>110</ele>
        <time>2018-02-12T18:27:17Z</time>
      </trkpt>
      <trkpt lat="62.632389379286" lon="17.976619439595">
        <ele>110</ele>
        <time>2018-02-12T18:27:18Z</time>
      </trkpt>
      <trkpt lat="62.632377979902" lon="17.976667467882">
        <ele>110</ele>
        <time>2018-02-12T18:27:19Z</time>
      </trkpt>
      <trkpt lat="62.632367502527" lon="17.976713233056">
        <ele>110.2</ele>
        <time>2018-02-12T18:27:20Z</time>
      </trkpt>
      <trkpt lat="62.63235719279" lon="17.976760590791">
        <ele>110.4</ele>
        <time>2018-02-12T18:27:21Z</time>
      </trkpt>
      <trkpt lat="62.632345122854" lon="17.976810882191">
        <ele>110.4</ele>
        <time>2018-02-12T18:27:22Z</time>
      </trkpt>
      <trkpt lat="62.632333388194" lon="17.976865280722">
        <ele>110.4</ele>
        <time>2018-02-12T18:27:23Z</time>
      </trkpt>
      <trkpt lat="62.632322743181" lon="17.976916242674">
        <ele>110.2</ele>
        <time>2018-02-12T18:27:24Z</time>
      </trkpt>
      <trkpt lat="62.632311259978" lon="17.976965360608">
        <ele>110.2</ele>
        <time>2018-02-12T18:27:25Z</time>
      </trkpt>
      <trkpt lat="62.632300782603" lon="17.977013137438">
        <ele>110.4</ele>
        <time>2018-02-12T18:27:26Z</time>
      </trkpt>
      <trkpt lat="62.63229181397" lon="17.977060327535">
        <ele>110.2</ele>
        <time>2018-02-12T18:27:27Z</time>
      </trkpt>
      <trkpt lat="62.63227588836" lon="17.977109194012">
        <ele>110.6</ele>
        <time>2018-02-12T18:27:28Z</time>
      </trkpt>
      <trkpt lat="62.632264069881" lon="17.977159736869">
        <ele>110.8</ele>
        <time>2018-02-12T18:27:29Z</time>
      </trkpt>
      <trkpt lat="62.632251161755" lon="17.977208938622">
        <ele>111</ele>
        <time>2018-02-12T18:27:30Z</time>
      </trkpt>
      <trkpt lat="62.632238253629" lon="17.977256380176">
        <ele>111</ele>
        <time>2018-02-12T18:27:31Z</time>
      </trkpt>
      <trkpt lat="62.632227357159" lon="17.977302312988">
        <ele>110.8</ele>
        <time>2018-02-12T18:27:32Z</time>
      </trkpt>
      <trkpt lat="62.632215873956" lon="17.977352520569">
        <ele>111</ele>
        <time>2018-02-12T18:27:33Z</time>
      </trkpt>
      <trkpt lat="62.632203552563" lon="17.977408092566">
        <ele>111</ele>
        <time>2018-02-12T18:27:34Z</time>
      </trkpt>
      <trkpt lat="62.63219206936" lon="17.977456875224">
        <ele>111</ele>
        <time>2018-02-12T18:27:35Z</time>
      </trkpt>
      <trkpt lat="62.63217949651" lon="17.977510938479">
        <ele>110.8</ele>
        <time>2018-02-12T18:27:36Z</time>
      </trkpt>
      <trkpt lat="62.632169605868" lon="17.977555362549">
        <ele>110.8</ele>
        <time>2018-02-12T18:27:37Z</time>
      </trkpt>
      <trkpt lat="62.632157116837" lon="17.977606743596">
        <ele>110.8</ele>
        <time>2018-02-12T18:27:38Z</time>
      </trkpt>
      <trkpt lat="62.632146388005" lon="17.977650078019">
        <ele>110.8</ele>
        <time>2018-02-12T18:27:39Z</time>
      </trkpt>
      <trkpt lat="62.632134988621" lon="17.977699950324">
        <ele>110.8</ele>
        <time>2018-02-12T18:27:40Z</time>
      </trkpt>
      <trkpt lat="62.632123505418" lon="17.977750660819">
        <ele>110.8</ele>
        <time>2018-02-12T18:27:41Z</time>
      </trkpt>
      <trkpt lat="62.632114033871" lon="17.977798186192">
        <ele>111</ele>
        <time>2018-02-12T18:27:42Z</time>
      </trkpt>
      <trkpt lat="62.632104478505" lon="17.977849651058">
        <ele>111.2</ele>
        <time>2018-02-12T18:27:43Z</time>
      </trkpt>
      <trkpt lat="62.632092073293" lon="17.977902792304">
        <ele>111.4</ele>
        <time>2018-02-12T18:27:44Z</time>
      </trkpt>
      <trkpt lat="62.632081176823" lon="17.977947970745">
        <ele>111.8</ele>
        <time>2018-02-12T18:27:45Z</time>
      </trkpt>
      <trkpt lat="62.632068603973" lon="17.977996921041">
        <ele>111.8</ele>
        <time>2018-02-12T18:27:46Z</time>
      </trkpt>
      <trkpt lat="62.632056785494" lon="17.978043692043">
        <ele>111.6</ele>
        <time>2018-02-12T18:27:47Z</time>
      </trkpt>
      <trkpt lat="62.632045050834" lon="17.97809842585">
        <ele>111.8</ele>
        <time>2018-02-12T18:27:48Z</time>
      </trkpt>
      <trkpt lat="62.632033399993" lon="17.978148633431">
        <ele>111.6</ele>
        <time>2018-02-12T18:27:49Z</time>
      </trkpt>
      <trkpt lat="62.632022252066" lon="17.978193644234">
        <ele>111.6</ele>
        <time>2018-02-12T18:27:50Z</time>
      </trkpt>
      <trkpt lat="62.632012109967" lon="17.978243265082">
        <ele>111.8</ele>
        <time>2018-02-12T18:27:51Z</time>
      </trkpt>
      <trkpt lat="62.63200096204" lon="17.978292466835">
        <ele>111.8</ele>
        <time>2018-02-12T18:27:52Z</time>
      </trkpt>
      <trkpt lat="62.631988724466" lon="17.978343261149">
        <ele>111.8</ele>
        <time>2018-02-12T18:27:53Z</time>
      </trkpt>
      <trkpt lat="62.631977995634" lon="17.978390451246">
        <ele>111.6</ele>
        <time>2018-02-12T18:27:54Z</time>
      </trkpt>
      <trkpt lat="62.631966847707" lon="17.978440155913">
        <ele>111.8</ele>
        <time>2018-02-12T18:27:55Z</time>
      </trkpt>
      <trkpt lat="62.631956957065" lon="17.978488268019">
        <ele>112</ele>
        <time>2018-02-12T18:27:56Z</time>
      </trkpt>
      <trkpt lat="62.631948742803" lon="17.978534536107">
        <ele>112</ele>
        <time>2018-02-12T18:27:57Z</time>
      </trkpt>
      <trkpt lat="62.631937678695" lon="17.978584156955">
        <ele>112</ele>
        <time>2018-02-12T18:27:58Z</time>
      </trkpt>
      <trkpt lat="62.631925944035" lon="17.978631933785">
        <ele>112</ele>
        <time>2018-02-12T18:27:59Z</time>
      </trkpt>
      <trkpt lat="62.631916388669" lon="17.978682392823">
        <ele>112</ele>
        <time>2018-02-12T18:28:00Z</time>
      </trkpt>
      <trkpt lat="62.631906917122" lon="17.978730672567">
        <ele>112</ele>
        <time>2018-02-12T18:28:01Z</time>
      </trkpt>
      <trkpt lat="62.631896942661" lon="17.978771576239">
        <ele>112.2</ele>
        <time>2018-02-12T18:28:02Z</time>
      </trkpt>
      <trkpt lat="62.631887387295" lon="17.978821280906">
        <ele>112.2</ele>
        <time>2018-02-12T18:28:03Z</time>
      </trkpt>
      <trkpt lat="62.631874982083" lon="17.978876517627">
        <ele>112.2</ele>
        <time>2018-02-12T18:28:04Z</time>
      </trkpt>
      <trkpt lat="62.63186517526" lon="17.978921696068">
        <ele>112.2</ele>
        <time>2018-02-12T18:28:05Z</time>
      </trkpt>
      <trkpt lat="62.63185427879" lon="17.978973999124">
        <ele>112.4</ele>
        <time>2018-02-12T18:28:06Z</time>
      </trkpt>
      <trkpt lat="62.631843633777" lon="17.9790162439">
        <ele>112.4</ele>
        <time>2018-02-12T18:28:07Z</time>
      </trkpt>
      <trkpt lat="62.631832653488" lon="17.97906066797">
        <ele>112.6</ele>
        <time>2018-02-12T18:28:08Z</time>
      </trkpt>
      <trkpt lat="62.631821673199" lon="17.979101404004">
        <ele>112.6</ele>
        <time>2018-02-12T18:28:09Z</time>
      </trkpt>
      <trkpt lat="62.631810441453" lon="17.979150689576">
        <ele>112.8</ele>
        <time>2018-02-12T18:28:10Z</time>
      </trkpt>
      <trkpt lat="62.63179979644" lon="17.979197125302">
        <ele>112.8</ele>
        <time>2018-02-12T18:28:11Z</time>
      </trkpt>
      <trkpt lat="62.631788397056" lon="17.979240795001">
        <ele>112.8</ele>
        <time>2018-02-12T18:28:12Z</time>
      </trkpt>
      <trkpt lat="62.63177632712" lon="17.97929033203">
        <ele>113</ele>
        <time>2018-02-12T18:28:13Z</time>
      </trkpt>
      <trkpt lat="62.631765011555" lon="17.979340288154">
        <ele>113</ele>
        <time>2018-02-12T18:28:14Z</time>
      </trkpt>
      <trkpt lat="62.631754869456" lon="17.979388651717">
        <ele>113.2</ele>
        <time>2018-02-12T18:28:15Z</time>
      </trkpt>
      <trkpt lat="62.631744308262" lon="17.979441457687">
        <ele>113.2</ele>
        <time>2018-02-12T18:28:16Z</time>
      </trkpt>
      <trkpt lat="62.631736345457" lon="17.979484959748">
        <ele>113.2</ele>
        <time>2018-02-12T18:28:17Z</time>
      </trkpt>
      <trkpt lat="62.631725113711" lon="17.97953424532">
        <ele>113.2</ele>
        <time>2018-02-12T18:28:18Z</time>
      </trkpt>
      <trkpt lat="62.631712876137" lon="17.979582105969">
        <ele>113.2</ele>
        <time>2018-02-12T18:28:19Z</time>
      </trkpt>
      <trkpt lat="62.631700722382" lon="17.979626194763">
        <ele>113.2</ele>
        <time>2018-02-12T18:28:20Z</time>
      </trkpt>
      <trkpt lat="62.631688484808" lon="17.979673301041">
        <ele>113.2</ele>
        <time>2018-02-12T18:28:21Z</time>
      </trkpt>
      <trkpt lat="62.631676666329" lon="17.979719233853">
        <ele>113.2</ele>
        <time>2018-02-12T18:28:22Z</time>
      </trkpt>
      <trkpt lat="62.631661411271" lon="17.979767429778">
        <ele>113.2</ele>
        <time>2018-02-12T18:28:23Z</time>
      </trkpt>
      <trkpt lat="62.631648251688" lon="17.97981168621">
        <ele>113.4</ele>
        <time>2018-02-12T18:28:24Z</time>
      </trkpt>
      <trkpt lat="62.631634840648" lon="17.979857116108">
        <ele>113.4</ele>
        <time>2018-02-12T18:28:25Z</time>
      </trkpt>
      <trkpt lat="62.631620004685" lon="17.979899863798">
        <ele>113.4</ele>
        <time>2018-02-12T18:28:26Z</time>
      </trkpt>
      <trkpt lat="62.631605252541" lon="17.979941857117">
        <ele>113.4</ele>
        <time>2018-02-12T18:28:27Z</time>
      </trkpt>
      <trkpt lat="62.631590668035" lon="17.979981335866">
        <ele>113.4</ele>
        <time>2018-02-12T18:28:28Z</time>
      </trkpt>
      <trkpt lat="62.631573736597" lon="17.980025257022">
        <ele>113.6</ele>
        <time>2018-02-12T18:28:29Z</time>
      </trkpt>
      <trkpt lat="62.631558481539" lon="17.980067753255">
        <ele>113.6</ele>
        <time>2018-02-12T18:28:30Z</time>
      </trkpt>
      <trkpt lat="62.631540628092" lon="17.980110752402">
        <ele>113.6</ele>
        <time>2018-02-12T18:28:31Z</time>
      </trkpt>
      <trkpt lat="62.631522104093" lon="17.980141178699">
        <ele>113.4</ele>
        <time>2018-02-12T18:28:32Z</time>
      </trkpt>
      <trkpt lat="62.631500059696" lon="17.980166743494">
        <ele>113.4</ele>
        <time>2018-02-12T18:28:33Z</time>
      </trkpt>
      <trkpt lat="62.631479691679" lon="17.980198594714">
        <ele>113.4</ele>
        <time>2018-02-12T18:28:34Z</time>
      </trkpt>
      <trkpt lat="62.631471393598" lon="17.980232373771">
        <ele>113.2</ele>
        <time>2018-02-12T18:28:35Z</time>
      </trkpt>
      <trkpt lat="62.63147793148" lon="17.980259363489">
        <ele>113</ele>
        <time>2018-02-12T18:28:36Z</time>
      </trkpt>
      <trkpt lat="62.631486732475" lon="17.980257268014">
        <ele>112.8</ele>
        <time>2018-02-12T18:28:37Z</time>
      </trkpt>
      <trkpt lat="62.631495365832" lon="17.980235223617">
        <ele>112.8</ele>
        <time>2018-02-12T18:28:38Z</time>
      </trkpt>
      <trkpt lat="62.631510453252" lon="17.980179400163">
        <ele>113</ele>
        <time>2018-02-12T18:28:40Z</time>
      </trkpt>
      <trkpt lat="62.631515482392" lon="17.980157439585">
        <ele>113.2</ele>
        <time>2018-02-12T18:28:41Z</time>
      </trkpt>
      <trkpt lat="62.631521098265" lon="17.98014277126">
        <ele>113.2</ele>
        <time>2018-02-12T18:28:42Z</time>
      </trkpt>
      <trkpt lat="62.631510285614" lon="17.980166994951">
        <ele>113.6</ele>
        <time>2018-02-12T18:28:43Z</time>
      </trkpt>
      <trkpt lat="62.631636181752" lon="17.97970691246">
        <ele>114.2</ele>
        <time>2018-02-12T18:29:50Z</time>
      </trkpt>
      <trkpt lat="62.631650011887" lon="17.979660728191">
        <ele>114.4</ele>
        <time>2018-02-12T18:29:51Z</time>
      </trkpt>
      <trkpt lat="62.631664093479" lon="17.979603731271">
        <ele>114.4</ele>
        <time>2018-02-12T18:29:52Z</time>
      </trkpt>
      <trkpt lat="62.63167490613" lon="17.979532401302">
        <ele>114.4</ele>
        <time>2018-02-12T18:29:53Z</time>
      </trkpt>
      <trkpt lat="62.631688484808" lon="17.979469117957">
        <ele>114.2</ele>
        <time>2018-02-12T18:29:54Z</time>
      </trkpt>
      <trkpt lat="62.631701812029" lon="17.979415976711">
        <ele>114.2</ele>
        <time>2018-02-12T18:29:55Z</time>
      </trkpt>
      <trkpt lat="62.631717989096" lon="17.979365685311">
        <ele>114.2</ele>
        <time>2018-02-12T18:29:56Z</time>
      </trkpt>
      <trkpt lat="62.63173106486" lon="17.979306676735">
        <ele>114.2</ele>
        <time>2018-02-12T18:29:57Z</time>
      </trkpt>
      <trkpt lat="62.631743805348" lon="17.979253870765">
        <ele>114</ele>
        <time>2018-02-12T18:29:58Z</time>
      </trkpt>
      <trkpt lat="62.631758054578" lon="17.979183127529">
        <ele>113.8</ele>
        <time>2018-02-12T18:29:59Z</time>
      </trkpt>
      <trkpt lat="62.631773058179" lon="17.979127052618">
        <ele>113.8</ele>
        <time>2018-02-12T18:30:00Z</time>
      </trkpt>
      <trkpt lat="62.631789821979" lon="17.979071145345">
        <ele>113.8</ele>
        <time>2018-02-12T18:30:01Z</time>
      </trkpt>
      <trkpt lat="62.631799880259" lon="17.979005850344">
        <ele>113.8</ele>
        <time>2018-02-12T18:30:02Z</time>
      </trkpt>
      <trkpt lat="62.631812956023" lon="17.978947177044">
        <ele>113.6</ele>
        <time>2018-02-12T18:30:03Z</time>
      </trkpt>
      <trkpt lat="62.631822762846" lon="17.978895460721">
        <ele>113.6</ele>
        <time>2018-02-12T18:30:04Z</time>
      </trkpt>
      <trkpt lat="62.6318366768" lon="17.978832009738">
        <ele>113.4</ele>
        <time>2018-02-12T18:30:05Z</time>
      </trkpt>
      <trkpt lat="62.631852015677" lon="17.978770821868">
        <ele>113.4</ele>
        <time>2018-02-12T18:30:06Z</time>
      </trkpt>
      <trkpt lat="62.631860397577" lon="17.978708460532">
        <ele>113.4</ele>
        <time>2018-02-12T18:30:07Z</time>
      </trkpt>
      <trkpt lat="62.631873305703" lon="17.978651379793">
        <ele>113.2</ele>
        <time>2018-02-12T18:30:08Z</time>
      </trkpt>
      <trkpt lat="62.631885459458" lon="17.978585498059">
        <ele>113</ele>
        <time>2018-02-12T18:30:09Z</time>
      </trkpt>
      <trkpt lat="62.631896775023" lon="17.978530512795">
        <ele>113</ele>
        <time>2018-02-12T18:30:10Z</time>
      </trkpt>
      <trkpt lat="62.631909683149" lon="17.978461697396">
        <ele>113</ele>
        <time>2018-02-12T18:30:11Z</time>
      </trkpt>
      <trkpt lat="62.631920663438" lon="17.978402185906">
        <ele>112.8</ele>
        <time>2018-02-12T18:30:12Z</time>
      </trkpt>
      <trkpt lat="62.631932398098" lon="17.978345608081">
        <ele>112.8</ele>
        <time>2018-02-12T18:30:13Z</time>
      </trkpt>
      <trkpt lat="62.631945976776" lon="17.978284839306">
        <ele>112.8</ele>
        <time>2018-02-12T18:30:14Z</time>
      </trkpt>
      <trkpt lat="62.631956118875" lon="17.978228010024">
        <ele>112.8</ele>
        <time>2018-02-12T18:30:15Z</time>
      </trkpt>
      <trkpt lat="62.631969027001" lon="17.978171935113">
        <ele>112.6</ele>
        <time>2018-02-12T18:30:16Z</time>
      </trkpt>
      <trkpt lat="62.631982354222" lon="17.978116363116">
        <ele>112.6</ele>
        <time>2018-02-12T18:30:17Z</time>
      </trkpt>
      <trkpt lat="62.631990819941" lon="17.978062048404">
        <ele>112.4</ele>
        <time>2018-02-12T18:30:18Z</time>
      </trkpt>
      <trkpt lat="62.632005320628" lon="17.978000692896">
        <ele>112.4</ele>
        <time>2018-02-12T18:30:19Z</time>
      </trkpt>
      <trkpt lat="62.632012780519" lon="17.977954760084">
        <ele>112.4</ele>
        <time>2018-02-12T18:30:20Z</time>
      </trkpt>
      <trkpt lat="62.632028538491" lon="17.977907150892">
        <ele>112.2</ele>
        <time>2018-02-12T18:30:21Z</time>
      </trkpt>
      <trkpt lat="62.632040105513" lon="17.977857110949">
        <ele>112</ele>
        <time>2018-02-12T18:30:22Z</time>
      </trkpt>
      <trkpt lat="62.63205376801" lon="17.977805478445">
        <ele>112</ele>
        <time>2018-02-12T18:30:23Z</time>
      </trkpt>
      <trkpt lat="62.632067346688" lon="17.977745380222">
        <ele>112</ele>
        <time>2018-02-12T18:30:24Z</time>
      </trkpt>
      <trkpt lat="62.632079248986" lon="17.977689975863">
        <ele>111.8</ele>
        <time>2018-02-12T18:30:25Z</time>
      </trkpt>
      <trkpt lat="62.632089726361" lon="17.977636750798">
        <ele>112</ele>
        <time>2018-02-12T18:30:26Z</time>
      </trkpt>
      <trkpt lat="62.632105568152" lon="17.977579083326">
        <ele>112</ele>
        <time>2018-02-12T18:30:27Z</time>
      </trkpt>
      <trkpt lat="62.632115207337" lon="17.977534659256">
        <ele>112</ele>
        <time>2018-02-12T18:30:28Z</time>
      </trkpt>
      <trkpt lat="62.63213088149" lon="17.977466262952">
        <ele>111.8</ele>
        <time>2018-02-12T18:30:29Z</time>
      </trkpt>
      <trkpt lat="62.632147477652" lon="17.977406332367">
        <ele>111.8</ele>
        <time>2018-02-12T18:30:30Z</time>
      </trkpt>
      <trkpt lat="62.632158709398" lon="17.97734321666">
        <ele>111.8</ele>
        <time>2018-02-12T18:30:31Z</time>
      </trkpt>
      <trkpt lat="62.632171701343" lon="17.977277251107">
        <ele>111.6</ele>
        <time>2018-02-12T18:30:32Z</time>
      </trkpt>
      <trkpt lat="62.63218117289" lon="17.977224696594">
        <ele>111.6</ele>
        <time>2018-02-12T18:30:33Z</time>
      </trkpt>
      <trkpt lat="62.632188213686" lon="17.977187900053">
        <ele>111.6</ele>
        <time>2018-02-12T18:30:34Z</time>
      </trkpt>
      <trkpt lat="62.632205731857" lon="17.977095363877">
        <ele>111.6</ele>
        <time>2018-02-12T18:30:35Z</time>
      </trkpt>
      <trkpt lat="62.632217634155" lon="17.977035181835">
        <ele>111.4</ele>
        <time>2018-02-12T18:30:36Z</time>
      </trkpt>
      <trkpt lat="62.632227943892" lon="17.976972820499">
        <ele>111.4</ele>
        <time>2018-02-12T18:30:37Z</time>
      </trkpt>
      <trkpt lat="62.632241103475" lon="17.976920517443">
        <ele>111.4</ele>
        <time>2018-02-12T18:30:38Z</time>
      </trkpt>
      <trkpt lat="62.632252838135" lon="17.976866454188">
        <ele>111.4</ele>
        <time>2018-02-12T18:30:39Z</time>
      </trkpt>
      <trkpt lat="62.632263986062" lon="17.976807194155">
        <ele>111.2</ele>
        <time>2018-02-12T18:30:40Z</time>
      </trkpt>
      <trkpt lat="62.63227756474" lon="17.976753801452">
        <ele>111.2</ele>
        <time>2018-02-12T18:30:41Z</time>
      </trkpt>
      <trkpt lat="62.632289131762" lon="17.976700660206">
        <ele>111.2</ele>
        <time>2018-02-12T18:30:42Z</time>
      </trkpt>
      <trkpt lat="62.632297848938" lon="17.976651290815">
        <ele>111</ele>
        <time>2018-02-12T18:30:43Z</time>
      </trkpt>
      <trkpt lat="62.632312349625" lon="17.97658800747">
        <ele>111</ele>
        <time>2018-02-12T18:30:44Z</time>
      </trkpt>
      <trkpt lat="62.632324922475" lon="17.976529585627">
        <ele>110.8</ele>
        <time>2018-02-12T18:30:45Z</time>
      </trkpt>
      <trkpt lat="62.632338082058" lon="17.976467140472">
        <ele>110.8</ele>
        <time>2018-02-12T18:30:46Z</time>
      </trkpt>
      <trkpt lat="62.632350571089" lon="17.976411484656">
        <ele>110.8</ele>
        <time>2018-02-12T18:30:47Z</time>
      </trkpt>
      <trkpt lat="62.632363730672" lon="17.976354823012">
        <ele>110.6</ele>
        <time>2018-02-12T18:30:48Z</time>
      </trkpt>
      <trkpt lat="62.632377728445" lon="17.976301765585">
        <ele>110.6</ele>
        <time>2018-02-12T18:30:49Z</time>
      </trkpt>
      <trkpt lat="62.632389463105" lon="17.976249546348">
        <ele>110.6</ele>
        <time>2018-02-12T18:30:50Z</time>
      </trkpt>
      <trkpt lat="62.632401784498" lon="17.976186598279">
        <ele>110.6</ele>
        <time>2018-02-12T18:30:51Z</time>
      </trkpt>
      <trkpt lat="62.632413183882" lon="17.976131864472">
        <ele>110.4</ele>
        <time>2018-02-12T18:30:52Z</time>
      </trkpt>
      <trkpt lat="62.632426511103" lon="17.976070341326">
        <ele>110.4</ele>
        <time>2018-02-12T18:30:53Z</time>
      </trkpt>
      <trkpt lat="62.632440425057" lon="17.975999681909">
        <ele>110.4</ele>
        <time>2018-02-12T18:30:54Z</time>
      </trkpt>
      <trkpt lat="62.632450650975" lon="17.975937320573">
        <ele>110.4</ele>
        <time>2018-02-12T18:30:55Z</time>
      </trkpt>
      <trkpt lat="62.632463894377" lon="17.975879820739">
        <ele>110.4</ele>
        <time>2018-02-12T18:30:56Z</time>
      </trkpt>
      <trkpt lat="62.632476131951" lon="17.97581938724">
        <ele>110.4</ele>
        <time>2018-02-12T18:30:57Z</time>
      </trkpt>
      <trkpt lat="62.632484765308" lon="17.975771107496">
        <ele>110.4</ele>
        <time>2018-02-12T18:30:58Z</time>
      </trkpt>
      <trkpt lat="62.63250387604" lon="17.975687707591">
        <ele>110.2</ele>
        <time>2018-02-12T18:30:59Z</time>
      </trkpt>
      <trkpt lat="62.632517035623" lon="17.975638841114">
        <ele>110.2</ele>
        <time>2018-02-12T18:31:00Z</time>
      </trkpt>
      <trkpt lat="62.632530446663" lon="17.975571115362">
        <ele>110.2</ele>
        <time>2018-02-12T18:31:01Z</time>
      </trkpt>
      <trkpt lat="62.632542348961" lon="17.975505652723">
        <ele>110.2</ele>
        <time>2018-02-12T18:31:02Z</time>
      </trkpt>
      <trkpt lat="62.632555173268" lon="17.975449913088">
        <ele>110.2</ele>
        <time>2018-02-12T18:31:03Z</time>
      </trkpt>
      <trkpt lat="62.632573781086" lon="17.975384869544">
        <ele>110</ele>
        <time>2018-02-12T18:31:04Z</time>
      </trkpt>
      <trkpt lat="62.632582162986" lon="17.975312701385">
        <ele>110</ele>
        <time>2018-02-12T18:31:05Z</time>
      </trkpt>
      <trkpt lat="62.632599094424" lon="17.975249585678">
        <ele>110</ele>
        <time>2018-02-12T18:31:06Z</time>
      </trkpt>
      <trkpt lat="62.632614181844" lon="17.975182111383">
        <ele>110</ele>
        <time>2018-02-12T18:31:07Z</time>
      </trkpt>
      <trkpt lat="62.632627592884" lon="17.97512871868">
        <ele>109.8</ele>
        <time>2018-02-12T18:31:08Z</time>
      </trkpt>
      <trkpt lat="62.632643183218" lon="17.975060657652">
        <ele>109.8</ele>
        <time>2018-02-12T18:31:09Z</time>
      </trkpt>
      <trkpt lat="62.632656594258" lon="17.975005588569">
        <ele>109.8</ele>
        <time>2018-02-12T18:31:10Z</time>
      </trkpt>
      <trkpt lat="62.632663215959" lon="17.974939958292">
        <ele>109.6</ele>
        <time>2018-02-12T18:31:11Z</time>
      </trkpt>
      <trkpt lat="62.632680147397" lon="17.974875836757">
        <ele>109.6</ele>
        <time>2018-02-12T18:31:12Z</time>
      </trkpt>
      <trkpt lat="62.63269079241" lon="17.974822527873">
        <ele>109.6</ele>
        <time>2018-02-12T18:31:13Z</time>
      </trkpt>
      <trkpt lat="62.632706550382" lon="17.974759663623">
        <ele>109.6</ele>
        <time>2018-02-12T18:31:14Z</time>
      </trkpt>
      <trkpt lat="62.632723314182" lon="17.974699984495">
        <ele>109.4</ele>
        <time>2018-02-12T18:31:15Z</time>
      </trkpt>
      <trkpt lat="62.632737982507" lon="17.974644831593">
        <ele>109.4</ele>
        <time>2018-02-12T18:31:16Z</time>
      </trkpt>
      <trkpt lat="62.632755752135" lon="17.974580710058">
        <ele>109.4</ele>
        <time>2018-02-12T18:31:17Z</time>
      </trkpt>
      <trkpt lat="62.632768324985" lon="17.974530670115">
        <ele>109.4</ele>
        <time>2018-02-12T18:31:18Z</time>
      </trkpt>
      <trkpt lat="62.63278550788" lon="17.974470152797">
        <ele>109.4</ele>
        <time>2018-02-12T18:31:19Z</time>
      </trkpt>
      <trkpt lat="62.632799924748" lon="17.974405109253">
        <ele>109.4</ele>
        <time>2018-02-12T18:31:20Z</time>
      </trkpt>
      <trkpt lat="62.632812749055" lon="17.974352051826">
        <ele>109.2</ele>
        <time>2018-02-12T18:31:21Z</time>
      </trkpt>
      <trkpt lat="62.632831021597" lon="17.974301676607">
        <ele>109.2</ele>
        <time>2018-02-12T18:31:22Z</time>
      </trkpt>
      <trkpt lat="62.632845606103" lon="17.974244595868">
        <ele>109.2</ele>
        <time>2018-02-12T18:31:23Z</time>
      </trkpt>
      <trkpt lat="62.632859017143" lon="17.974184749102">
        <ele>109.2</ele>
        <time>2018-02-12T18:31:24Z</time>
      </trkpt>
      <trkpt lat="62.632874858934" lon="17.974126662535">
        <ele>109.2</ele>
        <time>2018-02-12T18:31:25Z</time>
      </trkpt>
      <trkpt lat="62.632887515603" lon="17.97407176109">
        <ele>109</ele>
        <time>2018-02-12T18:31:26Z</time>
      </trkpt>
      <trkpt lat="62.632903022118" lon="17.974010070306">
        <ele>109</ele>
        <time>2018-02-12T18:31:27Z</time>
      </trkpt>
      <trkpt lat="62.632917271348" lon="17.973968747539">
        <ele>109</ele>
        <time>2018-02-12T18:31:28Z</time>
      </trkpt>
      <trkpt lat="62.632935040976" lon="17.973902530529">
        <ele>108.8</ele>
        <time>2018-02-12T18:31:29Z</time>
      </trkpt>
      <trkpt lat="62.632949122568" lon="17.973845114514">
        <ele>108.8</ele>
        <time>2018-02-12T18:31:30Z</time>
      </trkpt>
      <trkpt lat="62.632964461445" lon="17.97378426192">
        <ele>108.6</ele>
        <time>2018-02-12T18:31:31Z</time>
      </trkpt>
      <trkpt lat="62.632979465046" lon="17.973733216149">
        <ele>108.6</ele>
        <time>2018-02-12T18:31:32Z</time>
      </trkpt>
      <trkpt lat="62.632993546638" lon="17.973682757111">
        <ele>108.6</ele>
        <time>2018-02-12T18:31:33Z</time>
      </trkpt>
      <trkpt lat="62.63300846642" lon="17.973624419087">
        <ele>108.6</ele>
        <time>2018-02-12T18:31:34Z</time>
      </trkpt>
      <trkpt lat="62.633021374546" lon="17.973556441878">
        <ele>108.4</ele>
        <time>2018-02-12T18:31:35Z</time>
      </trkpt>
      <trkpt lat="62.633035037043" lon="17.973500199329">
        <ele>108.4</ele>
        <time>2018-02-12T18:31:36Z</time>
      </trkpt>
      <trkpt lat="62.633048364264" lon="17.973444208237">
        <ele>108.4</ele>
        <time>2018-02-12T18:31:37Z</time>
      </trkpt>
      <trkpt lat="62.633060853295" lon="17.973394587389">
        <ele>108.2</ele>
        <time>2018-02-12T18:31:38Z</time>
      </trkpt>
      <trkpt lat="62.633076192172" lon="17.973331723139">
        <ele>108.2</ele>
        <time>2018-02-12T18:31:39Z</time>
      </trkpt>
      <trkpt lat="62.633088597384" lon="17.973276821694">
        <ele>108</ele>
        <time>2018-02-12T18:31:40Z</time>
      </trkpt>
      <trkpt lat="62.633100248225" lon="17.973221333516">
        <ele>108</ele>
        <time>2018-02-12T18:31:41Z</time>
      </trkpt>
      <trkpt lat="62.63311491655" lon="17.973159223637">
        <ele>108</ele>
        <time>2018-02-12T18:31:42Z</time>
      </trkpt>
      <trkpt lat="62.633123466088" lon="17.973102981088">
        <ele>108</ele>
        <time>2018-02-12T18:31:43Z</time>
      </trkpt>
      <trkpt lat="62.633136625671" lon="17.973043218141">
        <ele>108</ele>
        <time>2018-02-12T18:31:44Z</time>
      </trkpt>
      <trkpt lat="62.633151461634" lon="17.972978258416">
        <ele>107.8</ele>
        <time>2018-02-12T18:31:45Z</time>
      </trkpt>
      <trkpt lat="62.633162861018" lon="17.9729309845">
        <ele>107.8</ele>
        <time>2018-02-12T18:31:46Z</time>
      </trkpt>
      <trkpt lat="62.633176020601" lon="17.972868204069">
        <ele>107.8</ele>
        <time>2018-02-12T18:31:47Z</time>
      </trkpt>
      <trkpt lat="62.633188258175" lon="17.972809698407">
        <ele>107.6</ele>
        <time>2018-02-12T18:31:48Z</time>
      </trkpt>
      <trkpt lat="62.633200328111" lon="17.972754377867">
        <ele>107.6</ele>
        <time>2018-02-12T18:31:49Z</time>
      </trkpt>
      <trkpt lat="62.633213236237" lon="17.972691681255">
        <ele>107.4</ele>
        <time>2018-02-12T18:31:50Z</time>
      </trkpt>
      <trkpt lat="62.633225892906" lon="17.972630409566">
        <ele>107.4</ele>
        <time>2018-02-12T18:31:51Z</time>
      </trkpt>
      <trkpt lat="62.633234526263" lon="17.972572071542">
        <ele>107.2</ele>
        <time>2018-02-12T18:31:52Z</time>
      </trkpt>
      <trkpt lat="62.633246931475" lon="17.972506441265">
        <ele>107</ele>
        <time>2018-02-12T18:31:53Z</time>
      </trkpt>
      <trkpt lat="62.633261180705" lon="17.972446929775">
        <ele>106.8</ele>
        <time>2018-02-12T18:31:54Z</time>
      </trkpt>
      <trkpt lat="62.633272580089" lon="17.972389681398">
        <ele>106.8</ele>
        <time>2018-02-12T18:31:55Z</time>
      </trkpt>
      <trkpt lat="62.633284650025" lon="17.972338132713">
        <ele>106.8</ele>
        <time>2018-02-12T18:31:56Z</time>
      </trkpt>
      <trkpt lat="62.633294456848" lon="17.972275855196">
        <ele>106.6</ele>
        <time>2018-02-12T18:31:57Z</time>
      </trkpt>
      <trkpt lat="62.633302335834" lon="17.972228748918">
        <ele>106.6</ele>
        <time>2018-02-12T18:31:58Z</time>
      </trkpt>
      <trkpt lat="62.633317171797" lon="17.972149288506">
        <ele>106.6</ele>
        <time>2018-02-12T18:31:59Z</time>
      </trkpt>
      <trkpt lat="62.633324547869" lon="17.972089190283">
        <ele>106.4</ele>
        <time>2018-02-12T18:32:00Z</time>
      </trkpt>
      <trkpt lat="62.633332678312" lon="17.972024817291">
        <ele>106.4</ele>
        <time>2018-02-12T18:32:01Z</time>
      </trkpt>
      <trkpt lat="62.633341395488" lon="17.971960528118">
        <ele>106.4</ele>
        <time>2018-02-12T18:32:02Z</time>
      </trkpt>
      <trkpt lat="62.633346843723" lon="17.971906464863">
        <ele>106.2</ele>
        <time>2018-02-12T18:32:03Z</time>
      </trkpt>
      <trkpt lat="62.633356650546" lon="17.971838571473">
        <ele>106.2</ele>
        <time>2018-02-12T18:32:04Z</time>
      </trkpt>
      <trkpt lat="62.633364026618" lon="17.971768750246">
        <ele>106</ele>
        <time>2018-02-12T18:32:05Z</time>
      </trkpt>
      <trkpt lat="62.633368720482" lon="17.971706975643">
        <ele>105.8</ele>
        <time>2018-02-12T18:32:06Z</time>
      </trkpt>
      <trkpt lat="62.633373330527" lon="17.971632292914">
        <ele>105.8</ele>
        <time>2018-02-12T18:32:07Z</time>
      </trkpt>
      <trkpt lat="62.633376515649" lon="17.971570434492">
        <ele>105.6</ele>
        <time>2018-02-12T18:32:08Z</time>
      </trkpt>
      <trkpt lat="62.633379616952" lon="17.971496170858">
        <ele>105.4</ele>
        <time>2018-02-12T18:32:09Z</time>
      </trkpt>
      <trkpt lat="62.633383724083" lon="17.971431378771">
        <ele>105.2</ele>
        <time>2018-02-12T18:32:10Z</time>
      </trkpt>
      <trkpt lat="62.633384143178" lon="17.971368179245">
        <ele>105.2</ele>
        <time>2018-02-12T18:32:11Z</time>
      </trkpt>
      <trkpt lat="62.633385903377" lon="17.971295089077">
        <ele>105</ele>
        <time>2018-02-12T18:32:12Z</time>
      </trkpt>
      <trkpt lat="62.633385903377" lon="17.97123113518">
        <ele>104.8</ele>
        <time>2018-02-12T18:32:13Z</time>
      </trkpt>
      <trkpt lat="62.633385149006" lon="17.971170031129">
        <ele>104.6</ele>
        <time>2018-02-12T18:32:14Z</time>
      </trkpt>
      <trkpt lat="62.633385903377" lon="17.971098952617">
        <ele>104.4</ele>
        <time>2018-02-12T18:32:15Z</time>
      </trkpt>
      <trkpt lat="62.633386573929" lon="17.971041201326">
        <ele>104.2</ele>
        <time>2018-02-12T18:32:16Z</time>
      </trkpt>
      <trkpt lat="62.633384981368" lon="17.970970877185">
        <ele>104.2</ele>
        <time>2018-02-12T18:32:17Z</time>
      </trkpt>
      <trkpt lat="62.633386657748" lon="17.970906252736">
        <ele>104.2</ele>
        <time>2018-02-12T18:32:18Z</time>
      </trkpt>
      <trkpt lat="62.633383807902" lon="17.970841460649">
        <ele>104</ele>
        <time>2018-02-12T18:32:19Z</time>
      </trkpt>
      <trkpt lat="62.633380958056" lon="17.970775495096">
        <ele>104</ele>
        <time>2018-02-12T18:32:20Z</time>
      </trkpt>
      <trkpt lat="62.633380287504" lon="17.970709864819">
        <ele>103.8</ele>
        <time>2018-02-12T18:32:21Z</time>
      </trkpt>
      <trkpt lat="62.63337559364" lon="17.970657142668">
        <ele>103.6</ele>
        <time>2018-02-12T18:32:22Z</time>
      </trkpt>
      <trkpt lat="62.633372911432" lon="17.970586902346">
        <ele>103.4</ele>
        <time>2018-02-12T18:32:23Z</time>
      </trkpt>
      <trkpt lat="62.633370815957" lon="17.970517248757">
        <ele>103.2</ele>
        <time>2018-02-12T18:32:24Z</time>
      </trkpt>
      <trkpt lat="62.633366876464" lon="17.970456982896">
        <ele>103.2</ele>
        <time>2018-02-12T18:32:25Z</time>
      </trkpt>
      <trkpt lat="62.63336553536" lon="17.970389005687">
        <ele>103</ele>
        <time>2018-02-12T18:32:26Z</time>
      </trkpt>
      <trkpt lat="62.633363272247" lon="17.970323459229">
        <ele>103</ele>
        <time>2018-02-12T18:32:27Z</time>
      </trkpt>
      <trkpt lat="62.633363607523" lon="17.970256823124">
        <ele>102.8</ele>
        <time>2018-02-12T18:32:29Z</time>
      </trkpt>
      <trkpt lat="62.633364026618" lon="17.970202089317">
        <ele>102.8</ele>
        <time>2018-02-12T18:32:30Z</time>
      </trkpt>
      <trkpt lat="62.633363775161" lon="17.970186918078">
        <ele>102.8</ele>
        <time>2018-02-12T18:32:31Z</time>
      </trkpt>
      <trkpt lat="62.633361595867" lon="17.970174009952">
        <ele>102.8</ele>
        <time>2018-02-12T18:32:32Z</time>
      </trkpt>
      <trkpt lat="62.633354890347" lon="17.970174345228">
        <ele>102.8</ele>
        <time>2018-02-12T18:32:33Z</time>
      </trkpt>
      <trkpt lat="62.633348101008" lon="17.970178284721">
        <ele>102.8</ele>
        <time>2018-02-12T18:32:34Z</time>
      </trkpt>
      <trkpt lat="62.63334038966" lon="17.970174345228">
        <ele>102.8</ele>
        <time>2018-02-12T18:32:36Z</time>
      </trkpt>
      <trkpt lat="62.633338210366" lon="17.970165879509">
        <ele>102.6</ele>
        <time>2018-02-12T18:32:37Z</time>
      </trkpt>
      <trkpt lat="62.633343993877" lon="17.970165879509">
        <ele>102.4</ele>
        <time>2018-02-12T18:32:38Z</time>
      </trkpt>
      <trkpt lat="62.633421023538" lon="17.970650101872">
        <ele>102.8</ele>
        <time>2018-02-12T18:33:33Z</time>
      </trkpt>
      <trkpt lat="62.633424543936" lon="17.970700896186">
        <ele>102.6</ele>
        <time>2018-02-12T18:33:34Z</time>
      </trkpt>
      <trkpt lat="62.633431081818" lon="17.970755629993">
        <ele>102.6</ele>
        <time>2018-02-12T18:33:35Z</time>
      </trkpt>
      <trkpt lat="62.633433009655" lon="17.970831905283">
        <ele>102.8</ele>
        <time>2018-02-12T18:33:36Z</time>
      </trkpt>
      <trkpt lat="62.63343678151" lon="17.970878760104">
        <ele>102.8</ele>
        <time>2018-02-12T18:33:37Z</time>
      </trkpt>
      <trkpt lat="62.633438290252" lon="17.970947407865">
        <ele>102.8</ele>
        <time>2018-02-12T18:33:38Z</time>
      </trkpt>
      <trkpt lat="62.633437116786" lon="17.971006919355">
        <ele>102.8</ele>
        <time>2018-02-12T18:33:39Z</time>
      </trkpt>
      <trkpt lat="62.633439044623" lon="17.971058551859">
        <ele>102.8</ele>
        <time>2018-02-12T18:33:40Z</time>
      </trkpt>
      <trkpt lat="62.633439715175" lon="17.971125104145">
        <ele>103.2</ele>
        <time>2018-02-12T18:33:41Z</time>
      </trkpt>
      <trkpt lat="62.633441056279" lon="17.971174305898">
        <ele>103.4</ele>
        <time>2018-02-12T18:33:42Z</time>
      </trkpt>
      <trkpt lat="62.633441978288" lon="17.971234823216">
        <ele>103.4</ele>
        <time>2018-02-12T18:33:43Z</time>
      </trkpt>
      <trkpt lat="62.633440637184" lon="17.971288383557">
        <ele>103.6</ele>
        <time>2018-02-12T18:33:44Z</time>
      </trkpt>
      <trkpt lat="62.63344516341" lon="17.971349068513">
        <ele>103.8</ele>
        <time>2018-02-12T18:33:45Z</time>
      </trkpt>
      <trkpt lat="62.633441894469" lon="17.971407741813">
        <ele>103.8</ele>
        <time>2018-02-12T18:33:46Z</time>
      </trkpt>
      <trkpt lat="62.633444911953" lon="17.971466331294">
        <ele>103.8</ele>
        <time>2018-02-12T18:33:47Z</time>
      </trkpt>
      <trkpt lat="62.633445247229" lon="17.971516874151">
        <ele>104</ele>
        <time>2018-02-12T18:33:48Z</time>
      </trkpt>
      <trkpt lat="62.633445917781" lon="17.971572110872">
        <ele>104.2</ele>
        <time>2018-02-12T18:33:49Z</time>
      </trkpt>
      <trkpt lat="62.633447007428" lon="17.971624665385">
        <ele>104.4</ele>
        <time>2018-02-12T18:33:50Z</time>
      </trkpt>
      <trkpt lat="62.633443319392" lon="17.971682835771">
        <ele>104.6</ele>
        <time>2018-02-12T18:33:51Z</time>
      </trkpt>
      <trkpt lat="62.633442565021" lon="17.971729690592">
        <ele>104.8</ele>
        <time>2018-02-12T18:33:52Z</time>
      </trkpt>
      <trkpt lat="62.633437032967" lon="17.971793895946">
        <ele>104.8</ele>
        <time>2018-02-12T18:33:53Z</time>
      </trkpt>
      <trkpt lat="62.633433596388" lon="17.971853407436">
        <ele>105</ele>
        <time>2018-02-12T18:33:54Z</time>
      </trkpt>
      <trkpt lat="62.633426304135" lon="17.971908979433">
        <ele>105</ele>
        <time>2018-02-12T18:33:55Z</time>
      </trkpt>
      <trkpt lat="62.633420688262" lon="17.971966814543">
        <ele>105</ele>
        <time>2018-02-12T18:33:56Z</time>
      </trkpt>
      <trkpt lat="62.633417670778" lon="17.972015764839">
        <ele>105</ele>
        <time>2018-02-12T18:33:57Z</time>
      </trkpt>
      <trkpt lat="62.633408199231" lon="17.972060272728">
        <ele>105.2</ele>
        <time>2018-02-12T18:33:58Z</time>
      </trkpt>
      <trkpt lat="62.633401745168" lon="17.972115928544">
        <ele>105.2</ele>
        <time>2018-02-12T18:33:59Z</time>
      </trkpt>
      <trkpt lat="62.633394369096" lon="17.972162615727">
        <ele>105.2</ele>
        <time>2018-02-12T18:34:00Z</time>
      </trkpt>
      <trkpt lat="62.633387076843" lon="17.972218103905">
        <ele>105.2</ele>
        <time>2018-02-12T18:34:01Z</time>
      </trkpt>
      <trkpt lat="62.633382969712" lon="17.972265629278">
        <ele>105.2</ele>
        <time>2018-02-12T18:34:02Z</time>
      </trkpt>
      <trkpt lat="62.633374503993" lon="17.972322542379">
        <ele>105.4</ele>
        <time>2018-02-12T18:34:03Z</time>
      </trkpt>
      <trkpt lat="62.633366289731" lon="17.972372247046">
        <ele>105.4</ele>
        <time>2018-02-12T18:34:04Z</time>
      </trkpt>
      <trkpt lat="62.633358326926" lon="17.972425472111">
        <ele>105.6</ele>
        <time>2018-02-12T18:34:05Z</time>
      </trkpt>
      <trkpt lat="62.633343910058" lon="17.972482385212">
        <ele>105.6</ele>
        <time>2018-02-12T18:34:06Z</time>
      </trkpt>
      <trkpt lat="62.633336953081" lon="17.97252697692">
        <ele>105.6</ele>
        <time>2018-02-12T18:34:07Z</time>
      </trkpt>
      <trkpt lat="62.633331840122" lon="17.972577938872">
        <ele>105.8</ele>
        <time>2018-02-12T18:34:08Z</time>
      </trkpt>
      <trkpt lat="62.633321781842" lon="17.972627140625">
        <ele>105.8</ele>
        <time>2018-02-12T18:34:09Z</time>
      </trkpt>
      <trkpt lat="62.633317339435" lon="17.972668798668">
        <ele>105.8</ele>
        <time>2018-02-12T18:34:10Z</time>
      </trkpt>
      <trkpt lat="62.633304934223" lon="17.972721688457">
        <ele>106</ele>
        <time>2018-02-12T18:34:11Z</time>
      </trkpt>
      <trkpt lat="62.633294121572" lon="17.972763597957">
        <ele>106.2</ele>
        <time>2018-02-12T18:34:12Z</time>
      </trkpt>
      <trkpt lat="62.633285823491" lon="17.972803747258">
        <ele>106.2</ele>
        <time>2018-02-12T18:34:13Z</time>
      </trkpt>
      <trkpt lat="62.633277441591" lon="17.972858648703">
        <ele>106.2</ele>
        <time>2018-02-12T18:34:14Z</time>
      </trkpt>
      <trkpt lat="62.633266042207" lon="17.972900558203">
        <ele>106.4</ele>
        <time>2018-02-12T18:34:15Z</time>
      </trkpt>
      <trkpt lat="62.633256738298" lon="17.97294188097">
        <ele>106.4</ele>
        <time>2018-02-12T18:34:16Z</time>
      </trkpt>
      <trkpt lat="62.633247015294" lon="17.972988987248">
        <ele>106.4</ele>
        <time>2018-02-12T18:34:17Z</time>
      </trkpt>
      <trkpt lat="62.633241650878" lon="17.973025448513">
        <ele>106.4</ele>
        <time>2018-02-12T18:34:18Z</time>
      </trkpt>
      <trkpt lat="62.633231760236" lon="17.973078003026">
        <ele>106.4</ele>
        <time>2018-02-12T18:34:19Z</time>
      </trkpt>
      <trkpt lat="62.633226144363" lon="17.973120499259">
        <ele>106.4</ele>
        <time>2018-02-12T18:34:20Z</time>
      </trkpt>
      <trkpt lat="62.633220612309" lon="17.973155200325">
        <ele>106.4</ele>
        <time>2018-02-12T18:34:21Z</time>
      </trkpt>
      <trkpt lat="62.633210554029" lon="17.973204988811">
        <ele>106.4</ele>
        <time>2018-02-12T18:34:22Z</time>
      </trkpt>
      <trkpt lat="62.633199070826" lon="17.973250167252">
        <ele>106.8</ele>
        <time>2018-02-12T18:34:23Z</time>
      </trkpt>
      <trkpt lat="62.633190102193" lon="17.973300458652">
        <ele>106.6</ele>
        <time>2018-02-12T18:34:24Z</time>
      </trkpt>
      <trkpt lat="62.633177948438" lon="17.97334672674">
        <ele>106.6</ele>
        <time>2018-02-12T18:34:25Z</time>
      </trkpt>
      <trkpt lat="62.633167806339" lon="17.973389809706">
        <ele>106.6</ele>
        <time>2018-02-12T18:34:26Z</time>
      </trkpt>
      <trkpt lat="62.633160346448" lon="17.973426773885">
        <ele>106.6</ele>
        <time>2018-02-12T18:34:27Z</time>
      </trkpt>
      <trkpt lat="62.63314509139" lon="17.973472790516">
        <ele>106.4</ele>
        <time>2018-02-12T18:34:28Z</time>
      </trkpt>
      <trkpt lat="62.633133105273" lon="17.973514951473">
        <ele>106.6</ele>
        <time>2018-02-12T18:34:29Z</time>
      </trkpt>
      <trkpt lat="62.633125142468" lon="17.973559962276">
        <ele>106.8</ele>
        <time>2018-02-12T18:34:30Z</time>
      </trkpt>
      <trkpt lat="62.633114329817" lon="17.973608577296">
        <ele>107</ele>
        <time>2018-02-12T18:34:31Z</time>
      </trkpt>
      <trkpt lat="62.633106702288" lon="17.973650319158">
        <ele>107</ele>
        <time>2018-02-12T18:34:32Z</time>
      </trkpt>
      <trkpt lat="62.633098823302" lon="17.973687199518">
        <ele>107.2</ele>
        <time>2018-02-12T18:34:33Z</time>
      </trkpt>
      <trkpt lat="62.633089351755" lon="17.973726007715">
        <ele>107.4</ele>
        <time>2018-02-12T18:34:34Z</time>
      </trkpt>
      <trkpt lat="62.633084490253" lon="17.973763726265">
        <ele>107.2</ele>
        <time>2018-02-12T18:34:35Z</time>
      </trkpt>
      <trkpt lat="62.633071917403" lon="17.973810329629">
        <ele>107.4</ele>
        <time>2018-02-12T18:34:36Z</time>
      </trkpt>
      <trkpt lat="62.63306294877" lon="17.973848551093">
        <ele>107.2</ele>
        <time>2018-02-12T18:34:37Z</time>
      </trkpt>
      <trkpt lat="62.633054147775" lon="17.973890460593">
        <ele>107.2</ele>
        <time>2018-02-12T18:34:38Z</time>
      </trkpt>
      <trkpt lat="62.633040652916" lon="17.973940751993">
        <ele>107.2</ele>
        <time>2018-02-12T18:34:39Z</time>
      </trkpt>
      <trkpt lat="62.633029672627" lon="17.973988947918">
        <ele>107</ele>
        <time>2018-02-12T18:34:40Z</time>
      </trkpt>
      <trkpt lat="62.633017183596" lon="17.974034629273">
        <ele>107.2</ele>
        <time>2018-02-12T18:34:41Z</time>
      </trkpt>
      <trkpt lat="62.633001677081" lon="17.97408181937">
        <ele>107.2</ele>
        <time>2018-02-12T18:34:42Z</time>
      </trkpt>
      <trkpt lat="62.632992876086" lon="17.974127668363">
        <ele>107.2</ele>
        <time>2018-02-12T18:34:43Z</time>
      </trkpt>
      <trkpt lat="62.632980889969" lon="17.974183659455">
        <ele>107.4</ele>
        <time>2018-02-12T18:34:44Z</time>
      </trkpt>
      <trkpt lat="62.632970496413" lon="17.974234956683">
        <ele>107.6</ele>
        <time>2018-02-12T18:34:45Z</time>
      </trkpt>
      <trkpt lat="62.632959180848" lon="17.974276447088">
        <ele>107.6</ele>
        <time>2018-02-12T18:34:46Z</time>
      </trkpt>
      <trkpt lat="62.632945434532" lon="17.974329755972">
        <ele>107.8</ele>
        <time>2018-02-12T18:34:47Z</time>
      </trkpt>
      <trkpt lat="62.6329347057" lon="17.974375353508">
        <ele>107.8</ele>
        <time>2018-02-12T18:34:48Z</time>
      </trkpt>
      <trkpt lat="62.632925066515" lon="17.974435870826">
        <ele>108</ele>
        <time>2018-02-12T18:34:49Z</time>
      </trkpt>
      <trkpt lat="62.632909392362" lon="17.974487922425">
        <ele>107.8</ele>
        <time>2018-02-12T18:34:50Z</time>
      </trkpt>
      <trkpt lat="62.63289866353" lon="17.974529077554">
        <ele>107.8</ele>
        <time>2018-02-12T18:34:51Z</time>
      </trkpt>
      <trkpt lat="62.632887431784" lon="17.974573333986">
        <ele>107.8</ele>
        <time>2018-02-12T18:34:52Z</time>
      </trkpt>
      <trkpt lat="62.63287184145" lon="17.974623373929">
        <ele>108</ele>
        <time>2018-02-12T18:34:53Z</time>
      </trkpt>
      <trkpt lat="62.632860190609" lon="17.974668803827">
        <ele>107.8</ele>
        <time>2018-02-12T18:34:54Z</time>
      </trkpt>
      <trkpt lat="62.632845354646" lon="17.97471465282">
        <ele>108</ele>
        <time>2018-02-12T18:34:55Z</time>
      </trkpt>
      <trkpt lat="62.632830015769" lon="17.974764441306">
        <ele>108.2</ele>
        <time>2018-02-12T18:34:56Z</time>
      </trkpt>
      <trkpt lat="62.632819706032" lon="17.974803920055">
        <ele>108.4</ele>
        <time>2018-02-12T18:34:57Z</time>
      </trkpt>
      <trkpt lat="62.632810905037" lon="17.974846583926">
        <ele>108.4</ele>
        <time>2018-02-12T18:34:58Z</time>
      </trkpt>
      <trkpt lat="62.632796236712" lon="17.974899306077">
        <ele>108.6</ele>
        <time>2018-02-12T18:34:59Z</time>
      </trkpt>
      <trkpt lat="62.632780814016" lon="17.974968121476">
        <ele>108.6</ele>
        <time>2018-02-12T18:35:00Z</time>
      </trkpt>
      <trkpt lat="62.632766648605" lon="17.975024447844">
        <ele>108.6</ele>
        <time>2018-02-12T18:35:01Z</time>
      </trkpt>
      <trkpt lat="62.63275700942" lon="17.975069793923">
        <ele>108.6</ele>
        <time>2018-02-12T18:35:02Z</time>
      </trkpt>
      <trkpt lat="62.632742592552" lon="17.975121929341">
        <ele>108.6</ele>
        <time>2018-02-12T18:35:03Z</time>
      </trkpt>
      <trkpt lat="62.632730857892" lon="17.975172639836">
        <ele>108.6</ele>
        <time>2018-02-12T18:35:04Z</time>
      </trkpt>
      <trkpt lat="62.632718704137" lon="17.975225781082">
        <ele>108.8</ele>
        <time>2018-02-12T18:35:05Z</time>
      </trkpt>
      <trkpt lat="62.632706634201" lon="17.975270540428">
        <ele>108.8</ele>
        <time>2018-02-12T18:35:06Z</time>
      </trkpt>
      <trkpt lat="62.632695570093" lon="17.975315383593">
        <ele>108.8</ele>
        <time>2018-02-12T18:35:07Z</time>
      </trkpt>
      <trkpt lat="62.632684673623" lon="17.975364417708">
        <ele>108.8</ele>
        <time>2018-02-12T18:35:08Z</time>
      </trkpt>
      <trkpt lat="62.632674112429" lon="17.975409596149">
        <ele>108.8</ele>
        <time>2018-02-12T18:35:09Z</time>
      </trkpt>
      <trkpt lat="62.632662796864" lon="17.97545980373">
        <ele>108.8</ele>
        <time>2018-02-12T18:35:10Z</time>
      </trkpt>
      <trkpt lat="62.632651648937" lon="17.97551177151">
        <ele>108.8</ele>
        <time>2018-02-12T18:35:11Z</time>
      </trkpt>
      <trkpt lat="62.6326413392" lon="17.975557117589">
        <ele>108.8</ele>
        <time>2018-02-12T18:35:12Z</time>
      </trkpt>
      <trkpt lat="62.632631029463" lon="17.975606738437">
        <ele>108.8</ele>
        <time>2018-02-12T18:35:13Z</time>
      </trkpt>
      <trkpt lat="62.632619378622" lon="17.975655604914">
        <ele>108.8</ele>
        <time>2018-02-12T18:35:14Z</time>
      </trkpt>
      <trkpt lat="62.632609739437" lon="17.975696257129">
        <ele>108.8</ele>
        <time>2018-02-12T18:35:15Z</time>
      </trkpt>
      <trkpt lat="62.632599345881" lon="17.975749314556">
        <ele>108.8</ele>
        <time>2018-02-12T18:35:16Z</time>
      </trkpt>
      <trkpt lat="62.63258769504" lon="17.975798600128">
        <ele>108.8</ele>
        <time>2018-02-12T18:35:17Z</time>
      </trkpt>
      <trkpt lat="62.632576463294" lon="17.975848304795">
        <ele>109</ele>
        <time>2018-02-12T18:35:18Z</time>
      </trkpt>
      <trkpt lat="62.632564309539" lon="17.975901194584">
        <ele>109</ele>
        <time>2018-02-12T18:35:19Z</time>
      </trkpt>
      <trkpt lat="62.632551066137" lon="17.975950480156">
        <ele>109.4</ele>
        <time>2018-02-12T18:35:20Z</time>
      </trkpt>
      <trkpt lat="62.632540672581" lon="17.975990042724">
        <ele>109.4</ele>
        <time>2018-02-12T18:35:21Z</time>
      </trkpt>
      <trkpt lat="62.632525752799" lon="17.976041172314">
        <ele>109.6</ele>
        <time>2018-02-12T18:35:22Z</time>
      </trkpt>
      <trkpt lat="62.63251477251" lon="17.97609179899">
        <ele>109.4</ele>
        <time>2018-02-12T18:35:23Z</time>
      </trkpt>
      <trkpt lat="62.632502032022" lon="17.976139072906">
        <ele>109.8</ele>
        <time>2018-02-12T18:35:24Z</time>
      </trkpt>
      <trkpt lat="62.632488201887" lon="17.976186765917">
        <ele>109.8</ele>
        <time>2018-02-12T18:35:25Z</time>
      </trkpt>
      <trkpt lat="62.632479400892" lon="17.976232363453">
        <ele>109.8</ele>
        <time>2018-02-12T18:35:26Z</time>
      </trkpt>
      <trkpt lat="62.632470264621" lon="17.976280475559">
        <ele>109.8</ele>
        <time>2018-02-12T18:35:27Z</time>
      </trkpt>
      <trkpt lat="62.632454339011" lon="17.976345602922">
        <ele>109.8</ele>
        <time>2018-02-12T18:35:28Z</time>
      </trkpt>
      <trkpt lat="62.632439838324" lon="17.976401258738">
        <ele>110</ele>
        <time>2018-02-12T18:35:29Z</time>
      </trkpt>
      <trkpt lat="62.632424331809" lon="17.976461692237">
        <ele>110</ele>
        <time>2018-02-12T18:35:30Z</time>
      </trkpt>
      <trkpt lat="62.632408909113" lon="17.976515839311">
        <ele>109.8</ele>
        <time>2018-02-12T18:35:31Z</time>
      </trkpt>
      <trkpt lat="62.632393067322" lon="17.97656202358">
        <ele>110</ele>
        <time>2018-02-12T18:35:32Z</time>
      </trkpt>
      <trkpt lat="62.632377812264" lon="17.976612482618">
        <ele>110</ele>
        <time>2018-02-12T18:35:33Z</time>
      </trkpt>
      <trkpt lat="62.632365323233" lon="17.976669060443">
        <ele>109.8</ele>
        <time>2018-02-12T18:35:34Z</time>
      </trkpt>
      <trkpt lat="62.632353337116" lon="17.976725722087">
        <ele>110</ele>
        <time>2018-02-12T18:35:35Z</time>
      </trkpt>
      <trkpt lat="62.632344200845" lon="17.976775175297">
        <ele>110</ele>
        <time>2018-02-12T18:35:36Z</time>
      </trkpt>
      <trkpt lat="62.632332633823" lon="17.976827478353">
        <ele>110</ele>
        <time>2018-02-12T18:35:37Z</time>
      </trkpt>
      <trkpt lat="62.632319641878" lon="17.976879362314">
        <ele>110.2</ele>
        <time>2018-02-12T18:35:38Z</time>
      </trkpt>
      <trkpt lat="62.632310337969" lon="17.976924205479">
        <ele>110.2</ele>
        <time>2018-02-12T18:35:39Z</time>
      </trkpt>
      <trkpt lat="62.632298770947" lon="17.976978352553">
        <ele>110</ele>
        <time>2018-02-12T18:35:40Z</time>
      </trkpt>
      <trkpt lat="62.632287371563" lon="17.977025375012">
        <ele>110.2</ele>
        <time>2018-02-12T18:35:41Z</time>
      </trkpt>
      <trkpt lat="62.63227840293" lon="17.977072229833">
        <ele>110.2</ele>
        <time>2018-02-12T18:35:42Z</time>
      </trkpt>
      <trkpt lat="62.632265410985" lon="17.977124532889">
        <ele>110</ele>
        <time>2018-02-12T18:35:43Z</time>
      </trkpt>
      <trkpt lat="62.632253089592" lon="17.97716971133">
        <ele>110</ele>
        <time>2018-02-12T18:35:44Z</time>
      </trkpt>
      <trkpt lat="62.63224152257" lon="17.977216817608">
        <ele>110.2</ele>
        <time>2018-02-12T18:35:45Z</time>
      </trkpt>
      <trkpt lat="62.632228279168" lon="17.977272138148">
        <ele>110.2</ele>
        <time>2018-02-12T18:35:46Z</time>
      </trkpt>
      <trkpt lat="62.63221972963" lon="17.977315304933">
        <ele>110</ele>
        <time>2018-02-12T18:35:47Z</time>
      </trkpt>
      <trkpt lat="62.632210258083" lon="17.977371296025">
        <ele>110.2</ele>
        <time>2018-02-12T18:35:48Z</time>
      </trkpt>
      <trkpt lat="62.632199948346" lon="17.977422677072">
        <ele>110.4</ele>
        <time>2018-02-12T18:35:49Z</time>
      </trkpt>
      <trkpt lat="62.632188632781" lon="17.977469867169">
        <ele>110.6</ele>
        <time>2018-02-12T18:35:50Z</time>
      </trkpt>
      <trkpt lat="62.632175892293" lon="17.977514961791">
        <ele>110.8</ele>
        <time>2018-02-12T18:35:51Z</time>
      </trkpt>
      <trkpt lat="62.632165414918" lon="17.977564666458">
        <ele>110.6</ele>
        <time>2018-02-12T18:35:52Z</time>
      </trkpt>
      <trkpt lat="62.632153261163" lon="17.977618394437">
        <ele>110.8</ele>
        <time>2018-02-12T18:35:53Z</time>
      </trkpt>
      <trkpt lat="62.632141526503" lon="17.977667428552">
        <ele>110.8</ele>
        <time>2018-02-12T18:35:54Z</time>
      </trkpt>
      <trkpt lat="62.632131803499" lon="17.977709840966">
        <ele>110.8</ele>
        <time>2018-02-12T18:35:55Z</time>
      </trkpt>
      <trkpt lat="62.632120320296" lon="17.977755522321">
        <ele>111</ele>
        <time>2018-02-12T18:35:56Z</time>
      </trkpt>
      <trkpt lat="62.632109340007" lon="17.977796509812">
        <ele>111</ele>
        <time>2018-02-12T18:35:57Z</time>
      </trkpt>
      <trkpt lat="62.63209483932" lon="17.977850656886">
        <ele>110.8</ele>
        <time>2018-02-12T18:35:58Z</time>
      </trkpt>
      <trkpt lat="62.632084194307" lon="17.977905306874">
        <ele>110.8</ele>
        <time>2018-02-12T18:35:59Z</time>
      </trkpt>
      <trkpt lat="62.632071956733" lon="17.977953335161">
        <ele>111</ele>
        <time>2018-02-12T18:36:00Z</time>
      </trkpt>
      <trkpt lat="62.632059551521" lon="17.977999770887">
        <ele>111.4</ele>
        <time>2018-02-12T18:36:01Z</time>
      </trkpt>
      <trkpt lat="62.632048655051" lon="17.97804981083">
        <ele>111.4</ele>
        <time>2018-02-12T18:36:02Z</time>
      </trkpt>
      <trkpt lat="62.632038429133" lon="17.978098258212">
        <ele>111.6</ele>
        <time>2018-02-12T18:36:03Z</time>
      </trkpt>
      <trkpt lat="62.632025940102" lon="17.978150728906">
        <ele>111.6</ele>
        <time>2018-02-12T18:36:04Z</time>
      </trkpt>
      <trkpt lat="62.632011774691" lon="17.978202193772">
        <ele>111.6</ele>
        <time>2018-02-12T18:36:05Z</time>
      </trkpt>
      <trkpt lat="62.632002051687" lon="17.978246282566">
        <ele>111.4</ele>
        <time>2018-02-12T18:36:06Z</time>
      </trkpt>
      <trkpt lat="62.631990400846" lon="17.978292466835">
        <ele>111.4</ele>
        <time>2018-02-12T18:36:07Z</time>
      </trkpt>
      <trkpt lat="62.631979336738" lon="17.978344350796">
        <ele>112</ele>
        <time>2018-02-12T18:36:08Z</time>
      </trkpt>
      <trkpt lat="62.631972212123" lon="17.978386847029">
        <ele>112</ele>
        <time>2018-02-12T18:36:09Z</time>
      </trkpt>
      <trkpt lat="62.631962070024" lon="17.978443257216">
        <ele>112.2</ele>
        <time>2018-02-12T18:36:10Z</time>
      </trkpt>
      <trkpt lat="62.631951173554" lon="17.978488351838">
        <ele>112.4</ele>
        <time>2018-02-12T18:36:11Z</time>
      </trkpt>
      <trkpt lat="62.631941702007" lon="17.978528501139">
        <ele>112.4</ele>
        <time>2018-02-12T18:36:12Z</time>
      </trkpt>
      <trkpt lat="62.631927033682" lon="17.978580217462">
        <ele>112.6</ele>
        <time>2018-02-12T18:36:13Z</time>
      </trkpt>
      <trkpt lat="62.631918484144" lon="17.978626066455">
        <ele>112.6</ele>
        <time>2018-02-12T18:36:14Z</time>
      </trkpt>
      <trkpt lat="62.63191043752" lon="17.978671244896">
        <ele>112.4</ele>
        <time>2018-02-12T18:36:15Z</time>
      </trkpt>
      <trkpt lat="62.631899121955" lon="17.978721536296">
        <ele>112.6</ele>
        <time>2018-02-12T18:36:16Z</time>
      </trkpt>
      <trkpt lat="62.631892164978" lon="17.978773252619">
        <ele>112.6</ele>
        <time>2018-02-12T18:36:17Z</time>
      </trkpt>
      <trkpt lat="62.631883783078" lon="17.978826393865">
        <ele>112.6</ele>
        <time>2018-02-12T18:36:18Z</time>
      </trkpt>
      <trkpt lat="62.631871713142" lon="17.978871991401">
        <ele>112.6</ele>
        <time>2018-02-12T18:36:19Z</time>
      </trkpt>
      <trkpt lat="62.631862157776" lon="17.97891314653">
        <ele>112.8</ele>
        <time>2018-02-12T18:36:20Z</time>
      </trkpt>
      <trkpt lat="62.631857128636" lon="17.978949943071">
        <ele>112.6</ele>
        <time>2018-02-12T18:36:21Z</time>
      </trkpt>
      <trkpt lat="62.631844974881" lon="17.979017165909">
        <ele>112.8</ele>
        <time>2018-02-12T18:36:22Z</time>
      </trkpt>
      <trkpt lat="62.631835503334" lon="17.979067289671">
        <ele>112.8</ele>
        <time>2018-02-12T18:36:23Z</time>
      </trkpt>
      <trkpt lat="62.631823014303" lon="17.979116742881">
        <ele>112.6</ele>
        <time>2018-02-12T18:36:24Z</time>
      </trkpt>
      <trkpt lat="62.631812285471" lon="17.979166028453">
        <ele>112.8</ele>
        <time>2018-02-12T18:36:25Z</time>
      </trkpt>
      <trkpt lat="62.631803233019" lon="17.979212464179">
        <ele>112.8</ele>
        <time>2018-02-12T18:36:26Z</time>
      </trkpt>
      <trkpt lat="62.631793426196" lon="17.979252278204">
        <ele>112.8</ele>
        <time>2018-02-12T18:36:27Z</time>
      </trkpt>
      <trkpt lat="62.63178135626" lon="17.979300222672">
        <ele>113</ele>
        <time>2018-02-12T18:36:28Z</time>
      </trkpt>
      <trkpt lat="62.631770124514" lon="17.979346323122">
        <ele>113</ele>
        <time>2018-02-12T18:36:29Z</time>
      </trkpt>
      <trkpt lat="62.631756713474" lon="17.979390747192">
        <ele>113</ele>
        <time>2018-02-12T18:36:30Z</time>
      </trkpt>
      <trkpt lat="62.631745397909" lon="17.979433997796">
        <ele>113.2</ele>
        <time>2018-02-12T18:36:31Z</time>
      </trkpt>
      <trkpt lat="62.631734920534" lon="17.979480852617">
        <ele>113.4</ele>
        <time>2018-02-12T18:36:32Z</time>
      </trkpt>
      <trkpt lat="62.631723688788" lon="17.979523935583">
        <ele>113.6</ele>
        <time>2018-02-12T18:36:33Z</time>
      </trkpt>
      <trkpt lat="62.631713714327" lon="17.979572969698">
        <ele>113.8</ele>
        <time>2018-02-12T18:36:34Z</time>
      </trkpt>
      <trkpt lat="62.631700387106" lon="17.979620746528">
        <ele>114</ele>
        <time>2018-02-12T18:36:35Z</time>
      </trkpt>
      <trkpt lat="62.631690747921" lon="17.979662907485">
        <ele>114</ele>
        <time>2018-02-12T18:36:36Z</time>
      </trkpt>
      <trkpt lat="62.631680270546" lon="17.979710516677">
        <ele>114</ele>
        <time>2018-02-12T18:36:37Z</time>
      </trkpt>
      <trkpt lat="62.631666691868" lon="17.979757622955">
        <ele>113.8</ele>
        <time>2018-02-12T18:36:38Z</time>
      </trkpt>
      <trkpt lat="62.631657052683" lon="17.979797353161">
        <ele>113.6</ele>
        <time>2018-02-12T18:36:39Z</time>
      </trkpt>
      <trkpt lat="62.631643976919" lon="17.979842196326">
        <ele>113.4</ele>
        <time>2018-02-12T18:36:40Z</time>
      </trkpt>
      <trkpt lat="62.631629308594" lon="17.979887458586">
        <ele>113.2</ele>
        <time>2018-02-12T18:36:41Z</time>
      </trkpt>
      <trkpt lat="62.631618663581" lon="17.979927188792">
        <ele>113.4</ele>
        <time>2018-02-12T18:36:42Z</time>
      </trkpt>
      <trkpt lat="62.631606090731" lon="17.979976642002">
        <ele>113.4</ele>
        <time>2018-02-12T18:36:43Z</time>
      </trkpt>
      <trkpt lat="62.631590668035" lon="17.980019892606">
        <ele>113.4</ele>
        <time>2018-02-12T18:36:44Z</time>
      </trkpt>
      <trkpt lat="62.631575664434" lon="17.980062053563">
        <ele>113.4</ele>
        <time>2018-02-12T18:36:45Z</time>
      </trkpt>
      <trkpt lat="62.63155755953" lon="17.980104130701">
        <ele>113.4</ele>
        <time>2018-02-12T18:36:46Z</time>
      </trkpt>
      <trkpt lat="62.631525373034" lon="17.980174538661">
        <ele>113.2</ele>
        <time>2018-02-12T18:36:48Z</time>
      </trkpt>
      <trkpt lat="62.631515147116" lon="17.980196583058">
        <ele>113</ele>
        <time>2018-02-12T18:36:49Z</time>
      </trkpt>
      <trkpt lat="62.631507854863" lon="17.980216196704">
        <ele>113.2</ele>
        <time>2018-02-12T18:36:50Z</time>
      </trkpt>
      <trkpt lat="62.631503580094" lon="17.980230948848">
        <ele>113.2</ele>
        <time>2018-02-12T18:36:51Z</time>
      </trkpt>
      <trkpt lat="62.63149804804" lon="17.980242348232">
        <ele>113.2</ele>
        <time>2018-02-12T18:36:52Z</time>
      </trkpt>
      <trkpt lat="62.631500143515" lon="17.980244946621">
        <ele>113</ele>
        <time>2018-02-12T18:36:53Z</time>
      </trkpt>
      <trkpt lat="62.631499892058" lon="17.98023329578">
        <ele>113</ele>
        <time>2018-02-12T18:36:54Z</time>
      </trkpt>
      <trkpt lat="62.631615813735" lon="17.979880501609">
        <ele>114</ele>
        <time>2018-02-12T18:38:34Z</time>
      </trkpt>
      <trkpt lat="62.631634170096" lon="17.979812440581">
        <ele>114</ele>
        <time>2018-02-12T18:38:35Z</time>
      </trkpt>
      <trkpt lat="62.631650095706" lon="17.979747229399">
        <ele>114</ele>
        <time>2018-02-12T18:38:36Z</time>
      </trkpt>
      <trkpt lat="62.631665434583" lon="17.979689561927">
        <ele>114</ele>
        <time>2018-02-12T18:38:37Z</time>
      </trkpt>
      <trkpt lat="62.631674151759" lon="17.979642455649">
        <ele>114</ele>
        <time>2018-02-12T18:38:38Z</time>
      </trkpt>
      <trkpt lat="62.631690915559" lon="17.979568359653">
        <ele>114</ele>
        <time>2018-02-12T18:38:39Z</time>
      </trkpt>
      <trkpt lat="62.631700470925" lon="17.979516475692">
        <ele>113.8</ele>
        <time>2018-02-12T18:38:40Z</time>
      </trkpt>
      <trkpt lat="62.63171178649" lon="17.979450091044">
        <ele>114</ele>
        <time>2018-02-12T18:38:41Z</time>
      </trkpt>
      <trkpt lat="62.631724862254" lon="17.979386388604">
        <ele>114</ele>
        <time>2018-02-12T18:38:42Z</time>
      </trkpt>
      <trkpt lat="62.631736513095" lon="17.979332492987">
        <ele>114</ele>
        <time>2018-02-12T18:38:43Z</time>
      </trkpt>
      <trkpt lat="62.631753025438" lon="17.979267197986">
        <ele>114</ele>
        <time>2018-02-12T18:38:44Z</time>
      </trkpt>
      <trkpt lat="62.631765514469" lon="17.979213805283">
        <ele>113.8</ele>
        <time>2018-02-12T18:38:45Z</time>
      </trkpt>
      <trkpt lat="62.631779512242" lon="17.979155131983">
        <ele>113.8</ele>
        <time>2018-02-12T18:38:46Z</time>
      </trkpt>
      <trkpt lat="62.631790743988" lon="17.979094698484">
        <ele>113.6</ele>
        <time>2018-02-12T18:38:47Z</time>
      </trkpt>
      <trkpt lat="62.631802143372" lon="17.979034013528">
        <ele>113.6</ele>
        <time>2018-02-12T18:38:48Z</time>
      </trkpt>
      <trkpt lat="62.631815470593" lon="17.978965784862">
        <ele>113.6</ele>
        <time>2018-02-12T18:38:49Z</time>
      </trkpt>
      <trkpt lat="62.631827121434" lon="17.978903674983">
        <ele>113.4</ele>
        <time>2018-02-12T18:38:50Z</time>
      </trkpt>
      <trkpt lat="62.631841119207" lon="17.978846510425">
        <ele>113.4</ele>
        <time>2018-02-12T18:38:51Z</time>
      </trkpt>
      <trkpt lat="62.631853272962" lon="17.978793117722">
        <ele>113.2</ele>
        <time>2018-02-12T18:38:52Z</time>
      </trkpt>
      <trkpt lat="62.631864253251" lon="17.978732181309">
        <ele>113</ele>
        <time>2018-02-12T18:38:53Z</time>
      </trkpt>
      <trkpt lat="62.631875568816" lon="17.978660180788">
        <ele>113</ele>
        <time>2018-02-12T18:38:54Z</time>
      </trkpt>
      <trkpt lat="62.631888057847" lon="17.978598909099">
        <ele>113</ele>
        <time>2018-02-12T18:38:55Z</time>
      </trkpt>
      <trkpt lat="62.631898786679" lon="17.978539062333">
        <ele>112.8</ele>
        <time>2018-02-12T18:38:56Z</time>
      </trkpt>
      <trkpt lat="62.631910856615" lon="17.978469324925">
        <ele>112.8</ele>
        <time>2018-02-12T18:38:57Z</time>
      </trkpt>
      <trkpt lat="62.631919322334" lon="17.97842280538">
        <ele>112.8</ele>
        <time>2018-02-12T18:38:58Z</time>
      </trkpt>
      <trkpt lat="62.63193642141" lon="17.9783456919">
        <ele>112.8</ele>
        <time>2018-02-12T18:38:59Z</time>
      </trkpt>
      <trkpt lat="62.631951341192" lon="17.978286431867">
        <ele>112.8</ele>
        <time>2018-02-12T18:39:00Z</time>
      </trkpt>
      <trkpt lat="62.631962908214" lon="17.978230692232">
        <ele>112.8</ele>
        <time>2018-02-12T18:39:01Z</time>
      </trkpt>
      <trkpt lat="62.631972966494" lon="17.978173192398">
        <ele>112.6</ele>
        <time>2018-02-12T18:39:02Z</time>
      </trkpt>
      <trkpt lat="62.631986628991" lon="17.978115273469">
        <ele>112.6</ele>
        <time>2018-02-12T18:39:03Z</time>
      </trkpt>
      <trkpt lat="62.631999118022" lon="17.978057689816">
        <ele>112.6</ele>
        <time>2018-02-12T18:39:04Z</time>
      </trkpt>
      <trkpt lat="62.632014456899" lon="17.977994741747">
        <ele>112.4</ele>
        <time>2018-02-12T18:39:05Z</time>
      </trkpt>
      <trkpt lat="62.632029041405" lon="17.977932128954">
        <ele>112.4</ele>
        <time>2018-02-12T18:39:06Z</time>
      </trkpt>
      <trkpt lat="62.632041781893" lon="17.977869851437">
        <ele>112.2</ele>
        <time>2018-02-12T18:39:07Z</time>
      </trkpt>
      <trkpt lat="62.632056617856" lon="17.977810591404">
        <ele>112.2</ele>
        <time>2018-02-12T18:39:08Z</time>
      </trkpt>
      <trkpt lat="62.632071872914" lon="17.977738507064">
        <ele>112.2</ele>
        <time>2018-02-12T18:39:09Z</time>
      </trkpt>
      <trkpt lat="62.632086792696" lon="17.977679833764">
        <ele>112</ele>
        <time>2018-02-12T18:39:10Z</time>
      </trkpt>
      <trkpt lat="62.632099784641" lon="17.977616718057">
        <ele>112</ele>
        <time>2018-02-12T18:39:11Z</time>
      </trkpt>
      <trkpt lat="62.63211411769" lon="17.977558380033">
        <ele>112</ele>
        <time>2018-02-12T18:39:12Z</time>
      </trkpt>
      <trkpt lat="62.63212669054" lon="17.977496353973">
        <ele>111.8</ele>
        <time>2018-02-12T18:39:13Z</time>
      </trkpt>
      <trkpt lat="62.632138760476" lon="17.977432567714">
        <ele>111.8</ele>
        <time>2018-02-12T18:39:14Z</time>
      </trkpt>
      <trkpt lat="62.632155524276" lon="17.977369954921">
        <ele>111.8</ele>
        <time>2018-02-12T18:39:15Z</time>
      </trkpt>
      <trkpt lat="62.632169773506" lon="17.977310946345">
        <ele>112</ele>
        <time>2018-02-12T18:39:16Z</time>
      </trkpt>
      <trkpt lat="62.632181591985" lon="17.977252105407">
        <ele>111.8</ele>
        <time>2018-02-12T18:39:17Z</time>
      </trkpt>
      <trkpt lat="62.632195589758" lon="17.977184882569">
        <ele>111.8</ele>
        <time>2018-02-12T18:39:18Z</time>
      </trkpt>
      <trkpt lat="62.63220967135" lon="17.97711690536">
        <ele>111.6</ele>
        <time>2018-02-12T18:39:19Z</time>
      </trkpt>
      <trkpt lat="62.632225513141" lon="17.977050017798">
        <ele>111.6</ele>
        <time>2018-02-12T18:39:20Z</time>
      </trkpt>
      <trkpt lat="62.632243282769" lon="17.976983800788">
        <ele>111.4</ele>
        <time>2018-02-12T18:39:21Z</time>
      </trkpt>
      <trkpt lat="62.632253927782" lon="17.97692998899">
        <ele>111.4</ele>
        <time>2018-02-12T18:39:22Z</time>
      </trkpt>
      <trkpt lat="62.632267338822" lon="17.976865113084">
        <ele>111.2</ele>
        <time>2018-02-12T18:39:23Z</time>
      </trkpt>
      <trkpt lat="62.632282007147" lon="17.976799482807">
        <ele>111.2</ele>
        <time>2018-02-12T18:39:24Z</time>
      </trkpt>
      <trkpt lat="62.63229516673" lon="17.976736870014">
        <ele>111.2</ele>
        <time>2018-02-12T18:39:25Z</time>
      </trkpt>
      <trkpt lat="62.632309918874" lon="17.976674089583">
        <ele>111</ele>
        <time>2018-02-12T18:39:26Z</time>
      </trkpt>
      <trkpt lat="62.632321402077" lon="17.976613404627">
        <ele>111</ele>
        <time>2018-02-12T18:39:27Z</time>
      </trkpt>
      <trkpt lat="62.632334226384" lon="17.976564119055">
        <ele>110.8</ele>
        <time>2018-02-12T18:39:28Z</time>
      </trkpt>
      <trkpt lat="62.632348307976" lon="17.976495974208">
        <ele>110.8</ele>
        <time>2018-02-12T18:39:29Z</time>
      </trkpt>
      <trkpt lat="62.632357444247" lon="17.976433864329">
        <ele>110.8</ele>
        <time>2018-02-12T18:39:30Z</time>
      </trkpt>
      <trkpt lat="62.632373369857" lon="17.976370245708">
        <ele>110.6</ele>
        <time>2018-02-12T18:39:31Z</time>
      </trkpt>
      <trkpt lat="62.632384936879" lon="17.976320038127">
        <ele>110.4</ele>
        <time>2018-02-12T18:39:32Z</time>
      </trkpt>
      <trkpt lat="62.632397677367" lon="17.97626195156">
        <ele>110.6</ele>
        <time>2018-02-12T18:39:33Z</time>
      </trkpt>
      <trkpt lat="62.632412094235" lon="17.976200344595">
        <ele>110.4</ele>
        <time>2018-02-12T18:39:34Z</time>
      </trkpt>
      <trkpt lat="62.632426092008" lon="17.976132199748">
        <ele>110.2</ele>
        <time>2018-02-12T18:39:35Z</time>
      </trkpt>
      <trkpt lat="62.632440676514" lon="17.976068832584">
        <ele>110.2</ele>
        <time>2018-02-12T18:39:36Z</time>
      </trkpt>
      <trkpt lat="62.632452327355" lon="17.976007477076">
        <ele>110.2</ele>
        <time>2018-02-12T18:39:37Z</time>
      </trkpt>
      <trkpt lat="62.632462972368" lon="17.975946205387">
        <ele>110.2</ele>
        <time>2018-02-12T18:39:38Z</time>
      </trkpt>
      <trkpt lat="62.632474623209" lon="17.97588811882">
        <ele>110</ele>
        <time>2018-02-12T18:39:39Z</time>
      </trkpt>
      <trkpt lat="62.632484765308" lon="17.975836821592">
        <ele>110</ele>
        <time>2018-02-12T18:39:40Z</time>
      </trkpt>
      <trkpt lat="62.632497924891" lon="17.975773538247">
        <ele>110</ele>
        <time>2018-02-12T18:39:41Z</time>
      </trkpt>
      <trkpt lat="62.632509994827" lon="17.975716206051">
        <ele>110</ele>
        <time>2018-02-12T18:39:42Z</time>
      </trkpt>
      <trkpt lat="62.632522567677" lon="17.975667842488">
        <ele>110</ele>
        <time>2018-02-12T18:39:43Z</time>
      </trkpt>
      <trkpt lat="62.632537906554" lon="17.975607911903">
        <ele>109.8</ele>
        <time>2018-02-12T18:39:44Z</time>
      </trkpt>
      <trkpt lat="62.632550311766" lon="17.975548316594">
        <ele>110</ele>
        <time>2018-02-12T18:39:45Z</time>
      </trkpt>
      <trkpt lat="62.632562800797" lon="17.975491403493">
        <ele>110</ele>
        <time>2018-02-12T18:39:46Z</time>
      </trkpt>
      <trkpt lat="62.632574703095" lon="17.975431808184">
        <ele>110</ele>
        <time>2018-02-12T18:39:47Z</time>
      </trkpt>
      <trkpt lat="62.632588365592" lon="17.975374224531">
        <ele>110</ele>
        <time>2018-02-12T18:39:48Z</time>
      </trkpt>
      <trkpt lat="62.632602279546" lon="17.975313791032">
        <ele>110</ele>
        <time>2018-02-12T18:39:49Z</time>
      </trkpt>
      <trkpt lat="62.632620132993" lon="17.975259979234">
        <ele>110</ele>
        <time>2018-02-12T18:39:50Z</time>
      </trkpt>
      <trkpt lat="62.632634968956" lon="17.975207257083">
        <ele>110</ele>
        <time>2018-02-12T18:39:51Z</time>
      </trkpt>
      <trkpt lat="62.632647457987" lon="17.975154534932">
        <ele>109.8</ele>
        <time>2018-02-12T18:39:52Z</time>
      </trkpt>
      <trkpt lat="62.632661874855" lon="17.975091251587">
        <ele>109.8</ele>
        <time>2018-02-12T18:39:53Z</time>
      </trkpt>
      <trkpt lat="62.632675956447" lon="17.975029309346">
        <ele>109.8</ele>
        <time>2018-02-12T18:39:54Z</time>
      </trkpt>
      <trkpt lat="62.632691127686" lon="17.974969714037">
        <ele>109.6</ele>
        <time>2018-02-12T18:39:55Z</time>
      </trkpt>
      <trkpt lat="62.632705209278" lon="17.974910202547">
        <ele>109.6</ele>
        <time>2018-02-12T18:39:56Z</time>
      </trkpt>
      <trkpt lat="62.632718285042" lon="17.974854127636">
        <ele>109.6</ele>
        <time>2018-02-12T18:39:57Z</time>
      </trkpt>
      <trkpt lat="62.632729265331" lon="17.974799561467">
        <ele>109.6</ele>
        <time>2018-02-12T18:39:58Z</time>
      </trkpt>
      <trkpt lat="62.632746029131" lon="17.974725884566">
        <ele>109.6</ele>
        <time>2018-02-12T18:39:59Z</time>
      </trkpt>
      <trkpt lat="62.632761535646" lon="17.974667797999">
        <ele>109.4</ele>
        <time>2018-02-12T18:40:00Z</time>
      </trkpt>
      <trkpt lat="62.632776371609" lon="17.974608454147">
        <ele>109.4</ele>
        <time>2018-02-12T18:40:01Z</time>
      </trkpt>
      <trkpt lat="62.632790620839" lon="17.974553133607">
        <ele>109.4</ele>
        <time>2018-02-12T18:40:02Z</time>
      </trkpt>
      <trkpt lat="62.632806127354" lon="17.974492951565">
        <ele>109.4</ele>
        <time>2018-02-12T18:40:03Z</time>
      </trkpt>
      <trkpt lat="62.63282490281" lon="17.974433104799">
        <ele>109.4</ele>
        <time>2018-02-12T18:40:04Z</time>
      </trkpt>
      <trkpt lat="62.632844935551" lon="17.974377197526">
        <ele>109.4</ele>
        <time>2018-02-12T18:40:05Z</time>
      </trkpt>
      <trkpt lat="62.632859603876" lon="17.974320871158">
        <ele>109.4</ele>
        <time>2018-02-12T18:40:06Z</time>
      </trkpt>
      <trkpt lat="62.632878630789" lon="17.974265885894">
        <ele>109.4</ele>
        <time>2018-02-12T18:40:07Z</time>
      </trkpt>
      <trkpt lat="62.63289028163" lon="17.974213499019">
        <ele>109.4</ele>
        <time>2018-02-12T18:40:08Z</time>
      </trkpt>
      <trkpt lat="62.632903944127" lon="17.974153149339">
        <ele>109.4</ele>
        <time>2018-02-12T18:40:09Z</time>
      </trkpt>
      <trkpt lat="62.632917858081" lon="17.97410109774">
        <ele>109.2</ele>
        <time>2018-02-12T18:40:10Z</time>
      </trkpt>
      <trkpt lat="62.632932107311" lon="17.974047369761">
        <ele>109.2</ele>
        <time>2018-02-12T18:40:11Z</time>
      </trkpt>
      <trkpt lat="62.632949541663" lon="17.97397956019">
        <ele>109</ele>
        <time>2018-02-12T18:40:12Z</time>
      </trkpt>
      <trkpt lat="62.632960186676" lon="17.973923066184">
        <ele>108.8</ele>
        <time>2018-02-12T18:40:13Z</time>
      </trkpt>
      <trkpt lat="62.632975106458" lon="17.97386724273">
        <ele>108.6</ele>
        <time>2018-02-12T18:40:14Z</time>
      </trkpt>
      <trkpt lat="62.632991618801" lon="17.973810581086">
        <ele>108.6</ele>
        <time>2018-02-12T18:40:15Z</time>
      </trkpt>
      <trkpt lat="62.633003940194" lon="17.973756853107">
        <ele>108.6</ele>
        <time>2018-02-12T18:40:16Z</time>
      </trkpt>
      <trkpt lat="62.633018105605" lon="17.973694743228">
        <ele>108.6</ele>
        <time>2018-02-12T18:40:17Z</time>
      </trkpt>
      <trkpt lat="62.633033947396" lon="17.973639506507">
        <ele>108.6</ele>
        <time>2018-02-12T18:40:18Z</time>
      </trkpt>
      <trkpt lat="62.633047442255" lon="17.973576139343">
        <ele>108.4</ele>
        <time>2018-02-12T18:40:19Z</time>
      </trkpt>
      <trkpt lat="62.633060685657" lon="17.973514532378">
        <ele>108.4</ele>
        <time>2018-02-12T18:40:20Z</time>
      </trkpt>
      <trkpt lat="62.633074934887" lon="17.973452506318">
        <ele>108.2</ele>
        <time>2018-02-12T18:40:21Z</time>
      </trkpt>
      <trkpt lat="62.633088178289" lon="17.973400287081">
        <ele>108</ele>
        <time>2018-02-12T18:40:22Z</time>
      </trkpt>
      <trkpt lat="62.633103014252" lon="17.973336333184">
        <ele>108</ele>
        <time>2018-02-12T18:40:23Z</time>
      </trkpt>
      <trkpt lat="62.633113072532" lon="17.973286041784">
        <ele>108</ele>
        <time>2018-02-12T18:40:24Z</time>
      </trkpt>
      <trkpt lat="62.633128914323" lon="17.973210353227">
        <ele>108</ele>
        <time>2018-02-12T18:40:25Z</time>
      </trkpt>
      <trkpt lat="62.633144001743" lon="17.973146483149">
        <ele>107.8</ele>
        <time>2018-02-12T18:40:26Z</time>
      </trkpt>
      <trkpt lat="62.633156071679" lon="17.97308856422">
        <ele>107.8</ele>
        <time>2018-02-12T18:40:27Z</time>
      </trkpt>
      <trkpt lat="62.63316353157" lon="17.973034584784">
        <ele>108</ele>
        <time>2018-02-12T18:40:28Z</time>
      </trkpt>
      <trkpt lat="62.633176691153" lon="17.972959734417">
        <ele>107.8</ele>
        <time>2018-02-12T18:40:29Z</time>
      </trkpt>
      <trkpt lat="62.633189599279" lon="17.97290080966">
        <ele>108</ele>
        <time>2018-02-12T18:40:30Z</time>
      </trkpt>
      <trkpt lat="62.633200998663" lon="17.972842471636">
        <ele>107.8</ele>
        <time>2018-02-12T18:40:31Z</time>
      </trkpt>
      <trkpt lat="62.633214325884" lon="17.972781032309">
        <ele>107.8</ele>
        <time>2018-02-12T18:40:32Z</time>
      </trkpt>
      <trkpt lat="62.633222623965" lon="17.972718670973">
        <ele>107.6</ele>
        <time>2018-02-12T18:40:33Z</time>
      </trkpt>
      <trkpt lat="62.633236370281" lon="17.972657566922">
        <ele>107.4</ele>
        <time>2018-02-12T18:40:34Z</time>
      </trkpt>
      <trkpt lat="62.633252212072" lon="17.97259151755">
        <ele>107.4</ele>
        <time>2018-02-12T18:40:35Z</time>
      </trkpt>
      <trkpt lat="62.633263024723" lon="17.972528401843">
        <ele>107.2</ele>
        <time>2018-02-12T18:40:36Z</time>
      </trkpt>
      <trkpt lat="62.633276771039" lon="17.97246830362">
        <ele>107.2</ele>
        <time>2018-02-12T18:40:37Z</time>
      </trkpt>
      <trkpt lat="62.633287080776" lon="17.97240879213">
        <ele>107</ele>
        <time>2018-02-12T18:40:38Z</time>
      </trkpt>
      <trkpt lat="62.633294959762" lon="17.972340312007">
        <ele>107</ele>
        <time>2018-02-12T18:40:39Z</time>
      </trkpt>
      <trkpt lat="62.633307281155" lon="17.972278956499">
        <ele>106.8</ele>
        <time>2018-02-12T18:40:40Z</time>
      </trkpt>
      <trkpt lat="62.633319015815" lon="17.972214583507">
        <ele>106.8</ele>
        <time>2018-02-12T18:40:41Z</time>
      </trkpt>
      <trkpt lat="62.633327146258" lon="17.972146522479">
        <ele>106.8</ele>
        <time>2018-02-12T18:40:42Z</time>
      </trkpt>
      <trkpt lat="62.633336366348" lon="17.972081646573">
        <ele>106.6</ele>
        <time>2018-02-12T18:40:43Z</time>
      </trkpt>
      <trkpt lat="62.63334709518" lon="17.972017692676">
        <ele>106.4</ele>
        <time>2018-02-12T18:40:44Z</time>
      </trkpt>
      <trkpt lat="62.633357740193" lon="17.971958181186">
        <ele>106.4</ele>
        <time>2018-02-12T18:40:45Z</time>
      </trkpt>
      <trkpt lat="62.633367463197" lon="17.971898921153">
        <ele>106.4</ele>
        <time>2018-02-12T18:40:46Z</time>
      </trkpt>
      <trkpt lat="62.633372827613" lon="17.971838990568">
        <ele>106.2</ele>
        <time>2018-02-12T18:40:47Z</time>
      </trkpt>
      <trkpt lat="62.633378192029" lon="17.971770426626">
        <ele>106</ele>
        <time>2018-02-12T18:40:48Z</time>
      </trkpt>
      <trkpt lat="62.633384981368" lon="17.971699180476">
        <ele>105.8</ele>
        <time>2018-02-12T18:40:49Z</time>
      </trkpt>
      <trkpt lat="62.633388669404" lon="17.971638327882">
        <ele>105.8</ele>
        <time>2018-02-12T18:40:50Z</time>
      </trkpt>
      <trkpt lat="62.633394536734" lon="17.971568506655">
        <ele>105.6</ele>
        <time>2018-02-12T18:40:51Z</time>
      </trkpt>
      <trkpt lat="62.63339822477" lon="17.97150857607">
        <ele>105.4</ele>
        <time>2018-02-12T18:40:52Z</time>
      </trkpt>
      <trkpt lat="62.633399984969" lon="17.971445879458">
        <ele>105.4</ele>
        <time>2018-02-12T18:40:53Z</time>
      </trkpt>
      <trkpt lat="62.633403337729" lon="17.971370023263">
        <ele>105.2</ele>
        <time>2018-02-12T18:40:54Z</time>
      </trkpt>
      <trkpt lat="62.633405517023" lon="17.971308081022">
        <ele>105.2</ele>
        <time>2018-02-12T18:40:55Z</time>
      </trkpt>
      <trkpt lat="62.63340660667" lon="17.971238511252">
        <ele>105</ele>
        <time>2018-02-12T18:40:56Z</time>
      </trkpt>
      <trkpt lat="62.633406941946" lon="17.971166510731">
        <ele>105</ele>
        <time>2018-02-12T18:40:57Z</time>
      </trkpt>
      <trkpt lat="62.633405936118" lon="17.971112028381">
        <ele>104.8</ele>
        <time>2018-02-12T18:40:58Z</time>
      </trkpt>
      <trkpt lat="62.633406439032" lon="17.971041285145">
        <ele>104.6</ele>
        <time>2018-02-12T18:40:59Z</time>
      </trkpt>
      <trkpt lat="62.633407109584" lon="17.970971380099">
        <ele>104.6</ele>
        <time>2018-02-12T18:41:00Z</time>
      </trkpt>
      <trkpt lat="62.633404511195" lon="17.970911700971">
        <ele>104.6</ele>
        <time>2018-02-12T18:41:01Z</time>
      </trkpt>
      <trkpt lat="62.633404343557" lon="17.970850345463">
        <ele>104.4</ele>
        <time>2018-02-12T18:41:02Z</time>
      </trkpt>
      <trkpt lat="62.633402164263" lon="17.970788235584">
        <ele>104.4</ele>
        <time>2018-02-12T18:41:03Z</time>
      </trkpt>
      <trkpt lat="62.633398979141" lon="17.970731490121">
        <ele>104.2</ele>
        <time>2018-02-12T18:41:04Z</time>
      </trkpt>
      <trkpt lat="62.633398643865" lon="17.970659238143">
        <ele>104.2</ele>
        <time>2018-02-12T18:41:05Z</time>
      </trkpt>
      <trkpt lat="62.633396464571" lon="17.970599391377">
        <ele>104</ele>
        <time>2018-02-12T18:41:06Z</time>
      </trkpt>
      <trkpt lat="62.633391267793" lon="17.97053879024">
        <ele>104</ele>
        <time>2018-02-12T18:41:07Z</time>
      </trkpt>
      <trkpt lat="62.633391351612" lon="17.97047424961">
        <ele>103.8</ele>
        <time>2018-02-12T18:41:08Z</time>
      </trkpt>
      <trkpt lat="62.63339068106" lon="17.970411804455">
        <ele>103.8</ele>
        <time>2018-02-12T18:41:09Z</time>
      </trkpt>
      <trkpt lat="62.633387831214" lon="17.970352795879">
        <ele>103.8</ele>
        <time>2018-02-12T18:41:10Z</time>
      </trkpt>
      <trkpt lat="62.633385400463" lon="17.970256739305">
        <ele>103.6</ele>
        <time>2018-02-12T18:41:12Z</time>
      </trkpt>
      <trkpt lat="62.633385316644" lon="17.970229246673">
        <ele>103.6</ele>
        <time>2018-02-12T18:41:13Z</time>
      </trkpt>
      <trkpt lat="62.633385819558" lon="17.970206280267">
        <ele>103.4</ele>
        <time>2018-02-12T18:41:14Z</time>
      </trkpt>
      <trkpt lat="62.63338229916" lon="17.970192533951">
        <ele>103.4</ele>
        <time>2018-02-12T18:41:15Z</time>
      </trkpt>
      <trkpt lat="62.633380958056" lon="17.970190857571">
        <ele>103</ele>
        <time>2018-02-12T18:41:16Z</time>
      </trkpt>
      <trkpt lat="62.633378778762" lon="17.970186834259">
        <ele>103</ele>
        <time>2018-02-12T18:41:17Z</time>
      </trkpt>
      <trkpt lat="62.633442565021" lon="17.970628644208">
        <ele>102.2</ele>
        <time>2018-02-12T18:45:03Z</time>
      </trkpt>
      <trkpt lat="62.633446169238" lon="17.970679354703">
        <ele>102.2</ele>
        <time>2018-02-12T18:45:04Z</time>
      </trkpt>
      <trkpt lat="62.633450863102" lon="17.970760156219">
        <ele>102.6</ele>
        <time>2018-02-12T18:45:05Z</time>
      </trkpt>
      <trkpt lat="62.633453796767" lon="17.970818661881">
        <ele>103</ele>
        <time>2018-02-12T18:45:06Z</time>
      </trkpt>
      <trkpt lat="62.633457820079" lon="17.970870797299">
        <ele>103</ele>
        <time>2018-02-12T18:45:07Z</time>
      </trkpt>
      <trkpt lat="62.63346025083" lon="17.970934583558">
        <ele>103</ele>
        <time>2018-02-12T18:45:08Z</time>
      </trkpt>
      <trkpt lat="62.633462346305" lon="17.970990993745">
        <ele>103.2</ele>
        <time>2018-02-12T18:45:09Z</time>
      </trkpt>
      <trkpt lat="62.633462011029" lon="17.971054612366">
        <ele>103.2</ele>
        <time>2018-02-12T18:45:10Z</time>
      </trkpt>
      <trkpt lat="62.63346611816" lon="17.971116135512">
        <ele>103.2</ele>
        <time>2018-02-12T18:45:11Z</time>
      </trkpt>
      <trkpt lat="62.633466872531" lon="17.971182101065">
        <ele>103.4</ele>
        <time>2018-02-12T18:45:12Z</time>
      </trkpt>
      <trkpt lat="62.633468045997" lon="17.971229710257">
        <ele>103.4</ele>
        <time>2018-02-12T18:45:13Z</time>
      </trkpt>
      <trkpt lat="62.633466788712" lon="17.971301375502">
        <ele>103.8</ele>
        <time>2018-02-12T18:45:14Z</time>
      </trkpt>
      <trkpt lat="62.633465531427" lon="17.971357618051">
        <ele>103.6</ele>
        <time>2018-02-12T18:45:15Z</time>
      </trkpt>
      <trkpt lat="62.633467543083" lon="17.971408160908">
        <ele>103.6</ele>
        <time>2018-02-12T18:45:16Z</time>
      </trkpt>
      <trkpt lat="62.633465196151" lon="17.971476641031">
        <ele>103.6</ele>
        <time>2018-02-12T18:45:17Z</time>
      </trkpt>
      <trkpt lat="62.633463016857" lon="17.971520562187">
        <ele>103.6</ele>
        <time>2018-02-12T18:45:18Z</time>
      </trkpt>
      <trkpt lat="62.633457484803" lon="17.971590131957">
        <ele>103.6</ele>
        <time>2018-02-12T18:45:19Z</time>
      </trkpt>
      <trkpt lat="62.633459999373" lon="17.97164184828">
        <ele>103.6</ele>
        <time>2018-02-12T18:45:20Z</time>
      </trkpt>
      <trkpt lat="62.633453712948" lon="17.971705047806">
        <ele>103.6</ele>
        <time>2018-02-12T18:45:21Z</time>
      </trkpt>
      <trkpt lat="62.633451449835" lon="17.971750142428">
        <ele>104</ele>
        <time>2018-02-12T18:45:22Z</time>
      </trkpt>
      <trkpt lat="62.633444911953" lon="17.971810743565">
        <ele>104.2</ele>
        <time>2018-02-12T18:45:23Z</time>
      </trkpt>
      <trkpt lat="62.63344097246" lon="17.971870757969">
        <ele>104.6</ele>
        <time>2018-02-12T18:45:24Z</time>
      </trkpt>
      <trkpt lat="62.633437787338" lon="17.971928928355">
        <ele>105</ele>
        <time>2018-02-12T18:45:25Z</time>
      </trkpt>
      <trkpt lat="62.63342839961" lon="17.971992295519">
        <ele>105.4</ele>
        <time>2018-02-12T18:45:26Z</time>
      </trkpt>
      <trkpt lat="62.63342588504" lon="17.972044682394">
        <ele>105.4</ele>
        <time>2018-02-12T18:45:27Z</time>
      </trkpt>
      <trkpt lat="62.633419011882" lon="17.972091704853">
        <ele>105.6</ele>
        <time>2018-02-12T18:45:28Z</time>
      </trkpt>
      <trkpt lat="62.633412725457" lon="17.97215398237">
        <ele>105.6</ele>
        <time>2018-02-12T18:45:29Z</time>
      </trkpt>
      <trkpt lat="62.633405014109" lon="17.972205195779">
        <ele>105.6</ele>
        <time>2018-02-12T18:45:30Z</time>
      </trkpt>
      <trkpt lat="62.633394620553" lon="17.972263701441">
        <ele>105.4</ele>
        <time>2018-02-12T18:45:31Z</time>
      </trkpt>
      <trkpt lat="62.633386825386" lon="17.972308963701">
        <ele>105.2</ele>
        <time>2018-02-12T18:45:32Z</time>
      </trkpt>
      <trkpt lat="62.633379114038" lon="17.972360680024">
        <ele>105.2</ele>
        <time>2018-02-12T18:45:33Z</time>
      </trkpt>
      <trkpt lat="62.633374420174" lon="17.972404768818">
        <ele>105.4</ele>
        <time>2018-02-12T18:45:34Z</time>
      </trkpt>
      <trkpt lat="62.633361092953" lon="17.972465118498">
        <ele>105.6</ele>
        <time>2018-02-12T18:45:35Z</time>
      </trkpt>
      <trkpt lat="62.633348520103" lon="17.972510129301">
        <ele>105.6</ele>
        <time>2018-02-12T18:45:36Z</time>
      </trkpt>
      <trkpt lat="62.633342401316" lon="17.972560755977">
        <ele>105.6</ele>
        <time>2018-02-12T18:45:37Z</time>
      </trkpt>
      <trkpt lat="62.633333432683" lon="17.972608197531">
        <ele>105.8</ele>
        <time>2018-02-12T18:45:38Z</time>
      </trkpt>
      <trkpt lat="62.633325050783" lon="17.972654214162">
        <ele>106</ele>
        <time>2018-02-12T18:45:39Z</time>
      </trkpt>
      <trkpt lat="62.633312310295" lon="17.972707439227">
        <ele>105.8</ele>
        <time>2018-02-12T18:45:40Z</time>
      </trkpt>
      <trkpt lat="62.633302335834" lon="17.972757646808">
        <ele>105.6</ele>
        <time>2018-02-12T18:45:41Z</time>
      </trkpt>
      <trkpt lat="62.633291858459" lon="17.972809782226">
        <ele>105.6</ele>
        <time>2018-02-12T18:45:42Z</time>
      </trkpt>
      <trkpt lat="62.633280626713" lon="17.972849931527">
        <ele>105.8</ele>
        <time>2018-02-12T18:45:43Z</time>
      </trkpt>
      <trkpt lat="62.633270736071" lon="17.972906006438">
        <ele>105.8</ele>
        <time>2018-02-12T18:45:44Z</time>
      </trkpt>
      <trkpt lat="62.633257744126" lon="17.972957219847">
        <ele>105.6</ele>
        <time>2018-02-12T18:45:45Z</time>
      </trkpt>
      <trkpt lat="62.63325154152" lon="17.973004158487">
        <ele>105.6</ele>
        <time>2018-02-12T18:45:46Z</time>
      </trkpt>
      <trkpt lat="62.633233855711" lon="17.97306677128">
        <ele>105.6</ele>
        <time>2018-02-12T18:45:47Z</time>
      </trkpt>
      <trkpt lat="62.633227569286" lon="17.973105160382">
        <ele>105.8</ele>
        <time>2018-02-12T18:45:48Z</time>
      </trkpt>
      <trkpt lat="62.633218684472" lon="17.973165090967">
        <ele>105.8</ele>
        <time>2018-02-12T18:45:49Z</time>
      </trkpt>
      <trkpt lat="62.633207788002" lon="17.973213789806">
        <ele>106.4</ele>
        <time>2018-02-12T18:45:50Z</time>
      </trkpt>
      <trkpt lat="62.633195466609" lon="17.973266847233">
        <ele>106.6</ele>
        <time>2018-02-12T18:45:51Z</time>
      </trkpt>
      <trkpt lat="62.63318364813" lon="17.973307080353">
        <ele>106.6</ele>
        <time>2018-02-12T18:45:52Z</time>
      </trkpt>
      <trkpt lat="62.63317191347" lon="17.973354773364">
        <ele>106.6</ele>
        <time>2018-02-12T18:45:53Z</time>
      </trkpt>
      <trkpt lat="62.633157748059" lon="17.973406322049">
        <ele>106.6</ele>
        <time>2018-02-12T18:45:54Z</time>
      </trkpt>
      <trkpt lat="62.633147354503" lon="17.973467007005">
        <ele>106.8</ele>
        <time>2018-02-12T18:45:55Z</time>
      </trkpt>
      <trkpt lat="62.633136541852" lon="17.973517382224">
        <ele>106.8</ele>
        <time>2018-02-12T18:45:56Z</time>
      </trkpt>
      <trkpt lat="62.633123130812" lon="17.973558202077">
        <ele>106.6</ele>
        <time>2018-02-12T18:45:57Z</time>
      </trkpt>
      <trkpt lat="62.633117766396" lon="17.973598519016">
        <ele>106.8</ele>
        <time>2018-02-12T18:45:58Z</time>
      </trkpt>
      <trkpt lat="62.63310150551" lon="17.973658114325">
        <ele>107</ele>
        <time>2018-02-12T18:45:59Z</time>
      </trkpt>
      <trkpt lat="62.633095973456" lon="17.973702286938">
        <ele>107</ele>
        <time>2018-02-12T18:46:00Z</time>
      </trkpt>
      <trkpt lat="62.633087088642" lon="17.973751488691">
        <ele>107</ele>
        <time>2018-02-12T18:46:01Z</time>
      </trkpt>
      <trkpt lat="62.63307049248" lon="17.973805132851">
        <ele>107.2</ele>
        <time>2018-02-12T18:46:02Z</time>
      </trkpt>
      <trkpt lat="62.633063367865" lon="17.973843857229">
        <ele>107.2</ele>
        <time>2018-02-12T18:46:03Z</time>
      </trkpt>
      <trkpt lat="62.633050711196" lon="17.973896998475">
        <ele>107.4</ele>
        <time>2018-02-12T18:46:04Z</time>
      </trkpt>
      <trkpt lat="62.633036797242" lon="17.973955001223">
        <ele>107.4</ele>
        <time>2018-02-12T18:46:05Z</time>
      </trkpt>
      <trkpt lat="62.633028163885" lon="17.97400219132">
        <ele>107.4</ele>
        <time>2018-02-12T18:46:06Z</time>
      </trkpt>
      <trkpt lat="62.633012741189" lon="17.974058182412">
        <ele>107.4</ele>
        <time>2018-02-12T18:46:07Z</time>
      </trkpt>
      <trkpt lat="62.63300427547" lon="17.974097661161">
        <ele>107.4</ele>
        <time>2018-02-12T18:46:08Z</time>
      </trkpt>
      <trkpt lat="62.632992205534" lon="17.974145689448">
        <ele>107.4</ele>
        <time>2018-02-12T18:46:09Z</time>
      </trkpt>
      <trkpt lat="62.632978626856" lon="17.974197238133">
        <ele>107.4</ele>
        <time>2018-02-12T18:46:10Z</time>
      </trkpt>
      <trkpt lat="62.632970915508" lon="17.974250630836">
        <ele>107.4</ele>
        <time>2018-02-12T18:46:11Z</time>
      </trkpt>
      <trkpt lat="62.63295398407" lon="17.974298742942">
        <ele>107.6</ele>
        <time>2018-02-12T18:46:12Z</time>
      </trkpt>
      <trkpt lat="62.632943003781" lon="17.974344089021">
        <ele>107.6</ele>
        <time>2018-02-12T18:46:13Z</time>
      </trkpt>
      <trkpt lat="62.632930347112" lon="17.974392955498">
        <ele>107.6</ele>
        <time>2018-02-12T18:46:14Z</time>
      </trkpt>
      <trkpt lat="62.632917187529" lon="17.974444168907">
        <ele>107.8</ele>
        <time>2018-02-12T18:46:15Z</time>
      </trkpt>
      <trkpt lat="62.632906793973" lon="17.974490520814">
        <ele>107.6</ele>
        <time>2018-02-12T18:46:16Z</time>
      </trkpt>
      <trkpt lat="62.632894221123" lon="17.974545925173">
        <ele>107.6</ele>
        <time>2018-02-12T18:46:17Z</time>
      </trkpt>
      <trkpt lat="62.632877205866" lon="17.974592947632">
        <ele>107.4</ele>
        <time>2018-02-12T18:46:18Z</time>
      </trkpt>
      <trkpt lat="62.632861615532" lon="17.974650363647">
        <ele>107.4</ele>
        <time>2018-02-12T18:46:19Z</time>
      </trkpt>
      <trkpt lat="62.632849713234" lon="17.974701409418">
        <ele>107.4</ele>
        <time>2018-02-12T18:46:20Z</time>
      </trkpt>
      <trkpt lat="62.632834793452" lon="17.974752287551">
        <ele>107.6</ele>
        <time>2018-02-12T18:46:21Z</time>
      </trkpt>
      <trkpt lat="62.632824986629" lon="17.974791431024">
        <ele>107.8</ele>
        <time>2018-02-12T18:46:22Z</time>
      </trkpt>
      <trkpt lat="62.632811072675" lon="17.974842141519">
        <ele>108</ele>
        <time>2018-02-12T18:46:23Z</time>
      </trkpt>
      <trkpt lat="62.632795482341" lon="17.974892935833">
        <ele>108.2</ele>
        <time>2018-02-12T18:46:24Z</time>
      </trkpt>
      <trkpt lat="62.632786262251" lon="17.974944568337">
        <ele>108.2</ele>
        <time>2018-02-12T18:46:25Z</time>
      </trkpt>
      <trkpt lat="62.632772515935" lon="17.975001229981">
        <ele>108.2</ele>
        <time>2018-02-12T18:46:26Z</time>
      </trkpt>
      <trkpt lat="62.6327586858" lon="17.975049593544">
        <ele>108</ele>
        <time>2018-02-12T18:46:27Z</time>
      </trkpt>
      <trkpt lat="62.632750555357" lon="17.975085551895">
        <ele>108.2</ele>
        <time>2018-02-12T18:46:28Z</time>
      </trkpt>
      <trkpt lat="62.632736138489" lon="17.975150176344">
        <ele>107.8</ele>
        <time>2018-02-12T18:46:29Z</time>
      </trkpt>
      <trkpt lat="62.63272683458" lon="17.975199210459">
        <ele>108</ele>
        <time>2018-02-12T18:46:30Z</time>
      </trkpt>
      <trkpt lat="62.632715435196" lon="17.975248076936">
        <ele>108.2</ele>
        <time>2018-02-12T18:46:31Z</time>
      </trkpt>
      <trkpt lat="62.632702191794" lon="17.975305492951">
        <ele>108.2</ele>
        <time>2018-02-12T18:46:32Z</time>
      </trkpt>
      <trkpt lat="62.632692804066" lon="17.975346228985">
        <ele>108.4</ele>
        <time>2018-02-12T18:46:33Z</time>
      </trkpt>
      <trkpt lat="62.632684841261" lon="17.975397442394">
        <ele>108.4</ele>
        <time>2018-02-12T18:46:34Z</time>
      </trkpt>
      <trkpt lat="62.632672519868" lon="17.975454606952">
        <ele>108.8</ele>
        <time>2018-02-12T18:46:35Z</time>
      </trkpt>
      <trkpt lat="62.632664473244" lon="17.975498695746">
        <ele>108.6</ele>
        <time>2018-02-12T18:46:36Z</time>
      </trkpt>
      <trkpt lat="62.632653157679" lon="17.975549573879">
        <ele>108.6</ele>
        <time>2018-02-12T18:46:37Z</time>
      </trkpt>
      <trkpt lat="62.632641842114" lon="17.975593997949">
        <ele>108.8</ele>
        <time>2018-02-12T18:46:38Z</time>
      </trkpt>
      <trkpt lat="62.632634549861" lon="17.975631967956">
        <ele>108.8</ele>
        <time>2018-02-12T18:46:39Z</time>
      </trkpt>
      <trkpt lat="62.632622982839" lon="17.975682426994">
        <ele>108.8</ele>
        <time>2018-02-12T18:46:40Z</time>
      </trkpt>
      <trkpt lat="62.632609823256" lon="17.975742357579">
        <ele>108.8</ele>
        <time>2018-02-12T18:46:41Z</time>
      </trkpt>
      <trkpt lat="62.632599513519" lon="17.975785524364">
        <ele>108.6</ele>
        <time>2018-02-12T18:46:42Z</time>
      </trkpt>
      <trkpt lat="62.63258769504" lon="17.975832882099">
        <ele>108.6</ele>
        <time>2018-02-12T18:46:43Z</time>
      </trkpt>
      <trkpt lat="62.632573026715" lon="17.975886023345">
        <ele>108.6</ele>
        <time>2018-02-12T18:46:44Z</time>
      </trkpt>
      <trkpt lat="62.63256422572" lon="17.975929944501">
        <ele>108.6</ele>
        <time>2018-02-12T18:46:45Z</time>
      </trkpt>
      <trkpt lat="62.632554335078" lon="17.97597445239">
        <ele>108.6</ele>
        <time>2018-02-12T18:46:46Z</time>
      </trkpt>
      <trkpt lat="62.632541091676" lon="17.976029856749">
        <ele>108.6</ele>
        <time>2018-02-12T18:46:47Z</time>
      </trkpt>
      <trkpt lat="62.632533380328" lon="17.976065312186">
        <ele>108.4</ele>
        <time>2018-02-12T18:46:48Z</time>
      </trkpt>
      <trkpt lat="62.632520053107" lon="17.976118956346">
        <ele>108.4</ele>
        <time>2018-02-12T18:46:49Z</time>
      </trkpt>
      <trkpt lat="62.632508234628" lon="17.976170421212">
        <ele>108.4</ele>
        <time>2018-02-12T18:46:50Z</time>
      </trkpt>
      <trkpt lat="62.632499601271" lon="17.976217695128">
        <ele>108.2</ele>
        <time>2018-02-12T18:46:51Z</time>
      </trkpt>
      <trkpt lat="62.632487363697" lon="17.976264633768">
        <ele>108.2</ele>
        <time>2018-02-12T18:46:52Z</time>
      </trkpt>
      <trkpt lat="62.63247453939" lon="17.976313667883">
        <ele>108.4</ele>
        <time>2018-02-12T18:46:53Z</time>
      </trkpt>
      <trkpt lat="62.632456769762" lon="17.976369910432">
        <ele>108.6</ele>
        <time>2018-02-12T18:46:54Z</time>
      </trkpt>
      <trkpt lat="62.63243430627" lon="17.976436462718">
        <ele>108.8</ele>
        <time>2018-02-12T18:46:55Z</time>
      </trkpt>
      <trkpt lat="62.632422655429" lon="17.976485245376">
        <ele>109</ele>
        <time>2018-02-12T18:46:56Z</time>
      </trkpt>
      <trkpt lat="62.632407232733" lon="17.976544756866">
        <ele>109.2</ele>
        <time>2018-02-12T18:46:57Z</time>
      </trkpt>
      <trkpt lat="62.632397174453" lon="17.97658214014">
        <ele>109.2</ele>
        <time>2018-02-12T18:46:58Z</time>
      </trkpt>
      <trkpt lat="62.63238317668" lon="17.976643914743">
        <ele>109.2</ele>
        <time>2018-02-12T18:46:59Z</time>
      </trkpt>
      <trkpt lat="62.632370771468" lon="17.976692948858">
        <ele>109.2</ele>
        <time>2018-02-12T18:47:00Z</time>
      </trkpt>
      <trkpt lat="62.632364987957" lon="17.976741563878">
        <ele>109.2</ele>
        <time>2018-02-12T18:47:01Z</time>
      </trkpt>
      <trkpt lat="62.632359036808" lon="17.976797303513">
        <ele>109.2</ele>
        <time>2018-02-12T18:47:02Z</time>
      </trkpt>
      <trkpt lat="62.632353504754" lon="17.976850193302">
        <ele>109.2</ele>
        <time>2018-02-12T18:47:03Z</time>
      </trkpt>
      <trkpt lat="62.632346128682" lon="17.97689646139">
        <ele>109.2</ele>
        <time>2018-02-12T18:47:04Z</time>
      </trkpt>
      <trkpt lat="62.632332214728" lon="17.976955553785">
        <ele>109.4</ele>
        <time>2018-02-12T18:47:05Z</time>
      </trkpt>
      <trkpt lat="62.632322324086" lon="17.976997630923">
        <ele>109.6</ele>
        <time>2018-02-12T18:47:06Z</time>
      </trkpt>
      <trkpt lat="62.632312433444" lon="17.977041803536">
        <ele>109.8</ele>
        <time>2018-02-12T18:47:07Z</time>
      </trkpt>
      <trkpt lat="62.632299944413" lon="17.977083545398">
        <ele>110</ele>
        <time>2018-02-12T18:47:08Z</time>
      </trkpt>
      <trkpt lat="62.632289550857" lon="17.977127969468">
        <ele>110</ele>
        <time>2018-02-12T18:47:09Z</time>
      </trkpt>
      <trkpt lat="62.632281085138" lon="17.977172980271">
        <ele>110</ele>
        <time>2018-02-12T18:47:10Z</time>
      </trkpt>
      <trkpt lat="62.632267841736" lon="17.977228049354">
        <ele>109.8</ele>
        <time>2018-02-12T18:47:11Z</time>
      </trkpt>
      <trkpt lat="62.6322557718" lon="17.977271802872">
        <ele>109.8</ele>
        <time>2018-02-12T18:47:12Z</time>
      </trkpt>
      <trkpt lat="62.632247054624" lon="17.97730885087">
        <ele>109.8</ele>
        <time>2018-02-12T18:47:13Z</time>
      </trkpt>
      <trkpt lat="62.632233392127" lon="17.977360231917">
        <ele>110</ele>
        <time>2018-02-12T18:47:14Z</time>
      </trkpt>
      <trkpt lat="62.632221154553" lon="17.977408427842">
        <ele>110</ele>
        <time>2018-02-12T18:47:15Z</time>
      </trkpt>
      <trkpt lat="62.632214197576" lon="17.977446062573">
        <ele>110</ele>
        <time>2018-02-12T18:47:16Z</time>
      </trkpt>
      <trkpt lat="62.632199361613" lon="17.977500880199">
        <ele>110</ele>
        <time>2018-02-12T18:47:17Z</time>
      </trkpt>
      <trkpt lat="62.632188213686" lon="17.977544801355">
        <ele>110.2</ele>
        <time>2018-02-12T18:47:18Z</time>
      </trkpt>
      <trkpt lat="62.632178155406" lon="17.977591991452">
        <ele>110</ele>
        <time>2018-02-12T18:47:19Z</time>
      </trkpt>
      <trkpt lat="62.632164576728" lon="17.977642282852">
        <ele>110</ele>
        <time>2018-02-12T18:47:20Z</time>
      </trkpt>
      <trkpt lat="62.632154183172" lon="17.977686706922">
        <ele>110</ele>
        <time>2018-02-12T18:47:21Z</time>
      </trkpt>
      <trkpt lat="62.632146220367" lon="17.977726437128">
        <ele>110.2</ele>
        <time>2018-02-12T18:47:22Z</time>
      </trkpt>
      <trkpt lat="62.632133479879" lon="17.977777315261">
        <ele>110.4</ele>
        <time>2018-02-12T18:47:23Z</time>
      </trkpt>
      <trkpt lat="62.632120990848" lon="17.977826600833">
        <ele>110.8</ele>
        <time>2018-02-12T18:47:24Z</time>
      </trkpt>
      <trkpt lat="62.632111519301" lon="17.977879490622">
        <ele>110.8</ele>
        <time>2018-02-12T18:47:25Z</time>
      </trkpt>
      <trkpt lat="62.632098778813" lon="17.977930033479">
        <ele>111</ele>
        <time>2018-02-12T18:47:26Z</time>
      </trkpt>
      <trkpt lat="62.632085283954" lon="17.977976217748">
        <ele>111</ele>
        <time>2018-02-12T18:47:27Z</time>
      </trkpt>
      <trkpt lat="62.632076734416" lon="17.978011421728">
        <ele>111</ele>
        <time>2018-02-12T18:47:28Z</time>
      </trkpt>
      <trkpt lat="62.632061144082" lon="17.978076129996">
        <ele>111.2</ele>
        <time>2018-02-12T18:47:29Z</time>
      </trkpt>
      <trkpt lat="62.632052594544" lon="17.978122649541">
        <ele>111.4</ele>
        <time>2018-02-12T18:47:30Z</time>
      </trkpt>
      <trkpt lat="62.632040440789" lon="17.978170258733">
        <ele>111.6</ele>
        <time>2018-02-12T18:47:31Z</time>
      </trkpt>
      <trkpt lat="62.632025353369" lon="17.97821912521">
        <ele>111.6</ele>
        <time>2018-02-12T18:47:32Z</time>
      </trkpt>
      <trkpt lat="62.632017055288" lon="17.9782618729">
        <ele>111.8</ele>
        <time>2018-02-12T18:47:33Z</time>
      </trkpt>
      <trkpt lat="62.632005236809" lon="17.978309314454">
        <ele>111.6</ele>
        <time>2018-02-12T18:47:34Z</time>
      </trkpt>
      <trkpt lat="62.631991155217" lon="17.978361952786">
        <ele>111.8</ele>
        <time>2018-02-12T18:47:35Z</time>
      </trkpt>
      <trkpt lat="62.631982438041" lon="17.978401515354">
        <ele>111.6</ele>
        <time>2018-02-12T18:47:36Z</time>
      </trkpt>
      <trkpt lat="62.631974642874" lon="17.978431690194">
        <ele>111.8</ele>
        <time>2018-02-12T18:47:37Z</time>
      </trkpt>
      <trkpt lat="62.63195989073" lon="17.978496733738">
        <ele>112</ele>
        <time>2018-02-12T18:47:38Z</time>
      </trkpt>
      <trkpt lat="62.631952514658" lon="17.978537134496">
        <ele>111.8</ele>
        <time>2018-02-12T18:47:39Z</time>
      </trkpt>
      <trkpt lat="62.631941618188" lon="17.978584995145">
        <ele>112</ele>
        <time>2018-02-12T18:47:40Z</time>
      </trkpt>
      <trkpt lat="62.631929967347" lon="17.978641740608">
        <ele>112</ele>
        <time>2018-02-12T18:47:41Z</time>
      </trkpt>
      <trkpt lat="62.631919489972" lon="17.978677950416">
        <ele>111.6</ele>
        <time>2018-02-12T18:47:42Z</time>
      </trkpt>
      <trkpt lat="62.631910940434" lon="17.978722206848">
        <ele>111.8</ele>
        <time>2018-02-12T18:47:43Z</time>
      </trkpt>
      <trkpt lat="62.631898619041" lon="17.978778868492">
        <ele>111.6</ele>
        <time>2018-02-12T18:47:44Z</time>
      </trkpt>
      <trkpt lat="62.631892332616" lon="17.978816838499">
        <ele>111.4</ele>
        <time>2018-02-12T18:47:45Z</time>
      </trkpt>
      <trkpt lat="62.631882609612" lon="17.978858161266">
        <ele>111.8</ele>
        <time>2018-02-12T18:47:46Z</time>
      </trkpt>
      <trkpt lat="62.631873808617" lon="17.978911134874">
        <ele>111.8</ele>
        <time>2018-02-12T18:47:47Z</time>
      </trkpt>
      <trkpt lat="62.631866767821" lon="17.978947428501">
        <ele>112</ele>
        <time>2018-02-12T18:47:48Z</time>
      </trkpt>
      <trkpt lat="62.631854865523" lon="17.978998138996">
        <ele>112.2</ele>
        <time>2018-02-12T18:47:49Z</time>
      </trkpt>
      <trkpt lat="62.631841119207" lon="17.97904809512">
        <ele>112.2</ele>
        <time>2018-02-12T18:47:50Z</time>
      </trkpt>
      <trkpt lat="62.631833156402" lon="17.979088998792">
        <ele>112.2</ele>
        <time>2018-02-12T18:47:51Z</time>
      </trkpt>
      <trkpt lat="62.631823684855" lon="17.979125376238">
        <ele>112</ele>
        <time>2018-02-12T18:47:52Z</time>
      </trkpt>
      <trkpt lat="62.631812788385" lon="17.979167537195">
        <ele>112.2</ele>
        <time>2018-02-12T18:47:53Z</time>
      </trkpt>
      <trkpt lat="62.631801808096" lon="17.979214224378">
        <ele>112.2</ele>
        <time>2018-02-12T18:47:54Z</time>
      </trkpt>
      <trkpt lat="62.631788816151" lon="17.979269628737">
        <ele>112.4</ele>
        <time>2018-02-12T18:47:55Z</time>
      </trkpt>
      <trkpt lat="62.631776578577" lon="17.979321093603">
        <ele>112.6</ele>
        <time>2018-02-12T18:47:56Z</time>
      </trkpt>
      <trkpt lat="62.631767777582" lon="17.979368870433">
        <ele>112.6</ele>
        <time>2018-02-12T18:47:57Z</time>
      </trkpt>
      <trkpt lat="62.63175788694" lon="17.979407343354">
        <ele>112.8</ele>
        <time>2018-02-12T18:47:58Z</time>
      </trkpt>
      <trkpt lat="62.631743050977" lon="17.979460233143">
        <ele>112.8</ele>
        <time>2018-02-12T18:47:59Z</time>
      </trkpt>
      <trkpt lat="62.631732322145" lon="17.97950993781">
        <ele>112.8</ele>
        <time>2018-02-12T18:48:00Z</time>
      </trkpt>
      <trkpt lat="62.631719162562" lon="17.979559474839">
        <ele>112.8</ele>
        <time>2018-02-12T18:48:01Z</time>
      </trkpt>
      <trkpt lat="62.631709774834" lon="17.979601971072">
        <ele>112.8</ele>
        <time>2018-02-12T18:48:02Z</time>
      </trkpt>
      <trkpt lat="62.631695944699" lon="17.979642204192">
        <ele>112.8</ele>
        <time>2018-02-12T18:48:03Z</time>
      </trkpt>
      <trkpt lat="62.631684796772" lon="17.979696686542">
        <ele>113</ele>
        <time>2018-02-12T18:48:04Z</time>
      </trkpt>
      <trkpt lat="62.631671469551" lon="17.979753264367">
        <ele>113</ele>
        <time>2018-02-12T18:48:05Z</time>
      </trkpt>
      <trkpt lat="62.631661914185" lon="17.979795592962">
        <ele>113</ele>
        <time>2018-02-12T18:48:06Z</time>
      </trkpt>
      <trkpt lat="62.631648670783" lon="17.979847812199">
        <ele>113</ele>
        <time>2018-02-12T18:48:07Z</time>
      </trkpt>
      <trkpt lat="62.631635762657" lon="17.979885279292">
        <ele>113</ele>
        <time>2018-02-12T18:48:08Z</time>
      </trkpt>
      <trkpt lat="62.631624950006" lon="17.979931295923">
        <ele>112.8</ele>
        <time>2018-02-12T18:48:09Z</time>
      </trkpt>
      <trkpt lat="62.631607515654" lon="17.97998351516">
        <ele>113</ele>
        <time>2018-02-12T18:48:10Z</time>
      </trkpt>
      <trkpt lat="62.63159024894" lon="17.980025592298">
        <ele>113</ele>
        <time>2018-02-12T18:48:11Z</time>
      </trkpt>
      <trkpt lat="62.631571305846" lon="17.980075380784">
        <ele>113.2</ele>
        <time>2018-02-12T18:48:12Z</time>
      </trkpt>
      <trkpt lat="62.631545657232" lon="17.980138664129">
        <ele>113.2</ele>
        <time>2018-02-12T18:48:14Z</time>
      </trkpt>
      <trkpt lat="62.631529563984" lon="17.980177891421">
        <ele>113</ele>
        <time>2018-02-12T18:48:15Z</time>
      </trkpt>
      <trkpt lat="62.631523109921" lon="17.980193733212">
        <ele>113</ele>
        <time>2018-02-12T18:48:16Z</time>
      </trkpt>
      <trkpt lat="62.631516236763" lon="17.980207647166">
        <ele>112.8</ele>
        <time>2018-02-12T18:48:17Z</time>
      </trkpt>
      <trkpt lat="62.631505843207" lon="17.980220136197">
        <ele>112.8</ele>
        <time>2018-02-12T18:48:18Z</time>
      </trkpt>
      <trkpt lat="62.631504166827" lon="17.980236145626">
        <ele>112.8</ele>
        <time>2018-02-12T18:48:19Z</time>
      </trkpt>
      <trkpt lat="62.631506346121" lon="17.980242767327">
        <ele>113</ele>
        <time>2018-02-12T18:48:20Z</time>
      </trkpt>
      <trkpt lat="62.631505088836" lon="17.980244276069">
        <ele>113.4</ele>
        <time>2018-02-12T18:48:21Z</time>
      </trkpt>
      <trkpt lat="62.631612377156" lon="17.979796095876">
        <ele>113.6</ele>
        <time>2018-02-12T18:51:59Z</time>
      </trkpt>
      <trkpt lat="62.631625788196" lon="17.979736332929">
        <ele>113.6</ele>
        <time>2018-02-12T18:52:00Z</time>
      </trkpt>
      <trkpt lat="62.631640875616" lon="17.979667601349">
        <ele>113.6</ele>
        <time>2018-02-12T18:52:01Z</time>
      </trkpt>
      <trkpt lat="62.631652945552" lon="17.979611191162">
        <ele>113.6</ele>
        <time>2018-02-12T18:52:02Z</time>
      </trkpt>
      <trkpt lat="62.631665434583" lon="17.9795526855">
        <ele>113.6</ele>
        <time>2018-02-12T18:52:03Z</time>
      </trkpt>
      <trkpt lat="62.631683623306" lon="17.979485211205">
        <ele>113.6</ele>
        <time>2018-02-12T18:52:04Z</time>
      </trkpt>
      <trkpt lat="62.631697285803" lon="17.979428046647">
        <ele>113.6</ele>
        <time>2018-02-12T18:52:05Z</time>
      </trkpt>
      <trkpt lat="62.6317109483" lon="17.979366523501">
        <ele>113.4</ele>
        <time>2018-02-12T18:52:06Z</time>
      </trkpt>
      <trkpt lat="62.631724694616" lon="17.979304665079">
        <ele>113.4</ele>
        <time>2018-02-12T18:52:07Z</time>
      </trkpt>
      <trkpt lat="62.631740452588" lon="17.979237945155">
        <ele>113.4</ele>
        <time>2018-02-12T18:52:08Z</time>
      </trkpt>
      <trkpt lat="62.63175453418" lon="17.979176170552">
        <ele>113.4</ele>
        <time>2018-02-12T18:52:09Z</time>
      </trkpt>
      <trkpt lat="62.631769453962" lon="17.979111629922">
        <ele>113.2</ele>
        <time>2018-02-12T18:52:10Z</time>
      </trkpt>
      <trkpt lat="62.631783367916" lon="17.979043233618">
        <ele>113.2</ele>
        <time>2018-02-12T18:52:11Z</time>
      </trkpt>
      <trkpt lat="62.631795018757" lon="17.978982548662">
        <ele>113.2</ele>
        <time>2018-02-12T18:52:12Z</time>
      </trkpt>
      <trkpt lat="62.631807843064" lon="17.978915828738">
        <ele>113</ele>
        <time>2018-02-12T18:52:13Z</time>
      </trkpt>
      <trkpt lat="62.631818990991" lon="17.978856484886">
        <ele>113</ele>
        <time>2018-02-12T18:52:14Z</time>
      </trkpt>
      <trkpt lat="62.631828797814" lon="17.978799068871">
        <ele>113</ele>
        <time>2018-02-12T18:52:15Z</time>
      </trkpt>
      <trkpt lat="62.631846651261" lon="17.97873042111">
        <ele>113</ele>
        <time>2018-02-12T18:52:16Z</time>
      </trkpt>
      <trkpt lat="62.631860397577" lon="17.978672669819">
        <ele>113</ele>
        <time>2018-02-12T18:52:17Z</time>
      </trkpt>
      <trkpt lat="62.631873892436" lon="17.97860469261">
        <ele>112.8</ele>
        <time>2018-02-12T18:52:18Z</time>
      </trkpt>
      <trkpt lat="62.63188613001" lon="17.97853763741">
        <ele>112.6</ele>
        <time>2018-02-12T18:52:19Z</time>
      </trkpt>
      <trkpt lat="62.631898199946" lon="17.978478796472">
        <ele>112.6</ele>
        <time>2018-02-12T18:52:20Z</time>
      </trkpt>
      <trkpt lat="62.631909515511" lon="17.978415345489">
        <ele>112.6</ele>
        <time>2018-02-12T18:52:21Z</time>
      </trkpt>
      <trkpt lat="62.631922423637" lon="17.978352900334">
        <ele>112.6</ele>
        <time>2018-02-12T18:52:22Z</time>
      </trkpt>
      <trkpt lat="62.631935247944" lon="17.978291963921">
        <ele>112.4</ele>
        <time>2018-02-12T18:52:23Z</time>
      </trkpt>
      <trkpt lat="62.631947988432" lon="17.978228010024">
        <ele>112.4</ele>
        <time>2018-02-12T18:52:24Z</time>
      </trkpt>
      <trkpt lat="62.631959136359" lon="17.978170007276">
        <ele>112.2</ele>
        <time>2018-02-12T18:52:25Z</time>
      </trkpt>
      <trkpt lat="62.631971541571" lon="17.978112758899">
        <ele>112.2</ele>
        <time>2018-02-12T18:52:26Z</time>
      </trkpt>
      <trkpt lat="62.631983276231" lon="17.978060288205">
        <ele>112.2</ele>
        <time>2018-02-12T18:52:27Z</time>
      </trkpt>
      <trkpt lat="62.631996519633" lon="17.977995831394">
        <ele>112.2</ele>
        <time>2018-02-12T18:52:28Z</time>
      </trkpt>
      <trkpt lat="62.632010685044" lon="17.977935230257">
        <ele>112</ele>
        <time>2018-02-12T18:52:29Z</time>
      </trkpt>
      <trkpt lat="62.632024515179" lon="17.977873539473">
        <ele>112</ele>
        <time>2018-02-12T18:52:30Z</time>
      </trkpt>
      <trkpt lat="62.632039099685" lon="17.977816877829">
        <ele>111.8</ele>
        <time>2018-02-12T18:52:31Z</time>
      </trkpt>
      <trkpt lat="62.632052594544" lon="17.97776147347">
        <ele>111.8</ele>
        <time>2018-02-12T18:52:32Z</time>
      </trkpt>
      <trkpt lat="62.632064161566" lon="17.977705147102">
        <ele>111.4</ele>
        <time>2018-02-12T18:52:33Z</time>
      </trkpt>
      <trkpt lat="62.632074974217" lon="17.977660639213">
        <ele>111.4</ele>
        <time>2018-02-12T18:52:34Z</time>
      </trkpt>
      <trkpt lat="62.632092408569" lon="17.977588051959">
        <ele>111.4</ele>
        <time>2018-02-12T18:52:35Z</time>
      </trkpt>
      <trkpt lat="62.632104729962" lon="17.977531893229">
        <ele>111.4</ele>
        <time>2018-02-12T18:52:36Z</time>
      </trkpt>
      <trkpt lat="62.632118224821" lon="17.977477662336">
        <ele>111.2</ele>
        <time>2018-02-12T18:52:37Z</time>
      </trkpt>
      <trkpt lat="62.632130462395" lon="17.977426951841">
        <ele>111.2</ele>
        <time>2018-02-12T18:52:38Z</time>
      </trkpt>
      <trkpt lat="62.632143705797" lon="17.977370122559">
        <ele>111.2</ele>
        <time>2018-02-12T18:52:39Z</time>
      </trkpt>
      <trkpt lat="62.632158709398" lon="17.977310694888">
        <ele>111.2</ele>
        <time>2018-02-12T18:52:40Z</time>
      </trkpt>
      <trkpt lat="62.632172707171" lon="17.977250764303">
        <ele>111.4</ele>
        <time>2018-02-12T18:52:41Z</time>
      </trkpt>
      <trkpt lat="62.632185950573" lon="17.977196449591">
        <ele>111.2</ele>
        <time>2018-02-12T18:52:42Z</time>
      </trkpt>
      <trkpt lat="62.63219961307" lon="17.977135932273">
        <ele>111.2</ele>
        <time>2018-02-12T18:52:43Z</time>
      </trkpt>
      <trkpt lat="62.63221134773" lon="17.977079354448">
        <ele>111</ele>
        <time>2018-02-12T18:52:44Z</time>
      </trkpt>
      <trkpt lat="62.632224004399" lon="17.977019340044">
        <ele>111</ele>
        <time>2018-02-12T18:52:45Z</time>
      </trkpt>
      <trkpt lat="62.632238085991" lon="17.976955721423">
        <ele>111</ele>
        <time>2018-02-12T18:52:46Z</time>
      </trkpt>
      <trkpt lat="62.632251999945" lon="17.97690232872">
        <ele>110.8</ele>
        <time>2018-02-12T18:52:47Z</time>
      </trkpt>
      <trkpt lat="62.632265243347" lon="17.976840721755">
        <ele>110.6</ele>
        <time>2018-02-12T18:52:48Z</time>
      </trkpt>
      <trkpt lat="62.63227840293" lon="17.976784646844">
        <ele>110.8</ele>
        <time>2018-02-12T18:52:49Z</time>
      </trkpt>
      <trkpt lat="62.632293238893" lon="17.97673133796">
        <ele>110.6</ele>
        <time>2018-02-12T18:52:50Z</time>
      </trkpt>
      <trkpt lat="62.632301788431" lon="17.976680795103">
        <ele>110.8</ele>
        <time>2018-02-12T18:52:51Z</time>
      </trkpt>
      <trkpt lat="62.63231360691" lon="17.976616589749">
        <ele>110.8</ele>
        <time>2018-02-12T18:52:52Z</time>
      </trkpt>
      <trkpt lat="62.632326431217" lon="17.976557245897">
        <ele>110.8</ele>
        <time>2018-02-12T18:52:53Z</time>
      </trkpt>
      <trkpt lat="62.632338836429" lon="17.976502931185">
        <ele>110.6</ele>
        <time>2018-02-12T18:52:54Z</time>
      </trkpt>
      <trkpt lat="62.632352918021" lon="17.976441240401">
        <ele>110.6</ele>
        <time>2018-02-12T18:52:55Z</time>
      </trkpt>
      <trkpt lat="62.632363227758" lon="17.976384662576">
        <ele>110.2</ele>
        <time>2018-02-12T18:52:56Z</time>
      </trkpt>
      <trkpt lat="62.632372615486" lon="17.976330599321">
        <ele>110.2</ele>
        <time>2018-02-12T18:52:57Z</time>
      </trkpt>
      <trkpt lat="62.632387870544" lon="17.976265052863">
        <ele>110.2</ele>
        <time>2018-02-12T18:52:58Z</time>
      </trkpt>
      <trkpt lat="62.632398683195" lon="17.976210905789">
        <ele>110.2</ele>
        <time>2018-02-12T18:52:59Z</time>
      </trkpt>
      <trkpt lat="62.632415279357" lon="17.976148292996">
        <ele>110</ele>
        <time>2018-02-12T18:53:00Z</time>
      </trkpt>
      <trkpt lat="62.632428103664" lon="17.976089200601">
        <ele>110</ele>
        <time>2018-02-12T18:53:01Z</time>
      </trkpt>
      <trkpt lat="62.632440676514" lon="17.976036059355">
        <ele>110</ele>
        <time>2018-02-12T18:53:02Z</time>
      </trkpt>
      <trkpt lat="62.632455344839" lon="17.975967663051">
        <ele>110</ele>
        <time>2018-02-12T18:53:03Z</time>
      </trkpt>
      <trkpt lat="62.632465738395" lon="17.975904128249">
        <ele>109.8</ele>
        <time>2018-02-12T18:53:04Z</time>
      </trkpt>
      <trkpt lat="62.632476299589" lon="17.975842940379">
        <ele>109.8</ele>
        <time>2018-02-12T18:53:05Z</time>
      </trkpt>
      <trkpt lat="62.632491219371" lon="17.975781501052">
        <ele>109.8</ele>
        <time>2018-02-12T18:53:06Z</time>
      </trkpt>
      <trkpt lat="62.632503456945" lon="17.975728359806">
        <ele>109.6</ele>
        <time>2018-02-12T18:53:07Z</time>
      </trkpt>
      <trkpt lat="62.632518544365" lon="17.975668764497">
        <ele>109.6</ele>
        <time>2018-02-12T18:53:08Z</time>
      </trkpt>
      <trkpt lat="62.63253153631" lon="17.975611013206">
        <ele>109.6</ele>
        <time>2018-02-12T18:53:09Z</time>
      </trkpt>
      <trkpt lat="62.632545114988" lon="17.975548987146">
        <ele>109.6</ele>
        <time>2018-02-12T18:53:10Z</time>
      </trkpt>
      <trkpt lat="62.63255668201" lon="17.975485619982">
        <ele>109.6</ele>
        <time>2018-02-12T18:53:11Z</time>
      </trkpt>
      <trkpt lat="62.632564728634" lon="17.975428539243">
        <ele>109.6</ele>
        <time>2018-02-12T18:53:12Z</time>
      </trkpt>
      <trkpt lat="62.632577720579" lon="17.97536425007">
        <ele>109.6</ele>
        <time>2018-02-12T18:53:13Z</time>
      </trkpt>
      <trkpt lat="62.632590293429" lon="17.975307420788">
        <ele>109.6</ele>
        <time>2018-02-12T18:53:14Z</time>
      </trkpt>
      <trkpt lat="62.63260278246" lon="17.975250842963">
        <ele>109.4</ele>
        <time>2018-02-12T18:53:15Z</time>
      </trkpt>
      <trkpt lat="62.632620049174" lon="17.975186302333">
        <ele>109.4</ele>
        <time>2018-02-12T18:53:16Z</time>
      </trkpt>
      <trkpt lat="62.63263379549" lon="17.975129389232">
        <ele>109.4</ele>
        <time>2018-02-12T18:53:17Z</time>
      </trkpt>
      <trkpt lat="62.632649553462" lon="17.975073481959">
        <ele>109.4</ele>
        <time>2018-02-12T18:53:18Z</time>
      </trkpt>
      <trkpt lat="62.632662545407" lon="17.975012964641">
        <ele>109.2</ele>
        <time>2018-02-12T18:53:19Z</time>
      </trkpt>
      <trkpt lat="62.632674112429" lon="17.974958649929">
        <ele>109.4</ele>
        <time>2018-02-12T18:53:20Z</time>
      </trkpt>
      <trkpt lat="62.632684254528" lon="17.9749091129">
        <ele>109.4</ele>
        <time>2018-02-12T18:53:21Z</time>
      </trkpt>
      <trkpt lat="62.63269917431" lon="17.974853540903">
        <ele>109.2</ele>
        <time>2018-02-12T18:53:22Z</time>
      </trkpt>
      <trkpt lat="62.632713088264" lon="17.974798304182">
        <ele>109.2</ele>
        <time>2018-02-12T18:53:23Z</time>
      </trkpt>
      <trkpt lat="62.632725493476" lon="17.974744408565">
        <ele>109.2</ele>
        <time>2018-02-12T18:53:24Z</time>
      </trkpt>
      <trkpt lat="62.632739575068" lon="17.974685064713">
        <ele>109</ele>
        <time>2018-02-12T18:53:25Z</time>
      </trkpt>
      <trkpt lat="62.632755668316" lon="17.974626894327">
        <ele>109</ele>
        <time>2018-02-12T18:53:26Z</time>
      </trkpt>
      <trkpt lat="62.632768408804" lon="17.974573753081">
        <ele>109</ele>
        <time>2018-02-12T18:53:27Z</time>
      </trkpt>
      <trkpt lat="62.632785843156" lon="17.974503596578">
        <ele>108.8</ele>
        <time>2018-02-12T18:53:28Z</time>
      </trkpt>
      <trkpt lat="62.632800846757" lon="17.974452466988">
        <ele>109</ele>
        <time>2018-02-12T18:53:29Z</time>
      </trkpt>
      <trkpt lat="62.632817023824" lon="17.974390608566">
        <ele>108.8</ele>
        <time>2018-02-12T18:53:30Z</time>
      </trkpt>
      <trkpt lat="62.632832614158" lon="17.974334533655">
        <ele>108.8</ele>
        <time>2018-02-12T18:53:31Z</time>
      </trkpt>
      <trkpt lat="62.632841918067" lon="17.974280638038">
        <ele>108.8</ele>
        <time>2018-02-12T18:53:32Z</time>
      </trkpt>
      <trkpt lat="62.632855329107" lon="17.974222886747">
        <ele>108.8</ele>
        <time>2018-02-12T18:53:33Z</time>
      </trkpt>
      <trkpt lat="62.632871673812" lon="17.974161866515">
        <ele>108.6</ele>
        <time>2018-02-12T18:53:34Z</time>
      </trkpt>
      <trkpt lat="62.632886677413" lon="17.974103109396">
        <ele>108.6</ele>
        <time>2018-02-12T18:53:35Z</time>
      </trkpt>
      <trkpt lat="62.632899669358" lon="17.974041921526">
        <ele>108.6</ele>
        <time>2018-02-12T18:53:36Z</time>
      </trkpt>
      <trkpt lat="62.632913248036" lon="17.97398961847">
        <ele>108.6</ele>
        <time>2018-02-12T18:53:37Z</time>
      </trkpt>
      <trkpt lat="62.632925820886" lon="17.973930442256">
        <ele>108.6</ele>
        <time>2018-02-12T18:53:38Z</time>
      </trkpt>
      <trkpt lat="62.632937807003" lon="17.973877552467">
        <ele>108.6</ele>
        <time>2018-02-12T18:53:39Z</time>
      </trkpt>
      <trkpt lat="62.632953481156" lon="17.973814269122">
        <ele>108.6</ele>
        <time>2018-02-12T18:53:40Z</time>
      </trkpt>
      <trkpt lat="62.632965131997" lon="17.973760708781">
        <ele>108.4</ele>
        <time>2018-02-12T18:53:41Z</time>
      </trkpt>
      <trkpt lat="62.632978040123" lon="17.973701532567">
        <ele>108.4</ele>
        <time>2018-02-12T18:53:42Z</time>
      </trkpt>
      <trkpt lat="62.632991534982" lon="17.973636572842">
        <ele>108.4</ele>
        <time>2018-02-12T18:53:43Z</time>
      </trkpt>
      <trkpt lat="62.633002850547" lon="17.973581755216">
        <ele>108.2</ele>
        <time>2018-02-12T18:53:44Z</time>
      </trkpt>
      <trkpt lat="62.633017937967" lon="17.973515957301">
        <ele>108.2</ele>
        <time>2018-02-12T18:53:45Z</time>
      </trkpt>
      <trkpt lat="62.633035456138" lon="17.97344898592">
        <ele>108</ele>
        <time>2018-02-12T18:53:46Z</time>
      </trkpt>
      <trkpt lat="62.633047106979" lon="17.973388971516">
        <ele>108</ele>
        <time>2018-02-12T18:53:47Z</time>
      </trkpt>
      <trkpt lat="62.633062781132" lon="17.97331906647">
        <ele>108</ele>
        <time>2018-02-12T18:53:48Z</time>
      </trkpt>
      <trkpt lat="62.633077868552" lon="17.973260225532">
        <ele>107.8</ele>
        <time>2018-02-12T18:53:49Z</time>
      </trkpt>
      <trkpt lat="62.633092704515" lon="17.973198534748">
        <ele>107.8</ele>
        <time>2018-02-12T18:53:50Z</time>
      </trkpt>
      <trkpt lat="62.633105864098" lon="17.97314304657">
        <ele>107.6</ele>
        <time>2018-02-12T18:53:51Z</time>
      </trkpt>
      <trkpt lat="62.63311826931" lon="17.973081355786">
        <ele>107.4</ele>
        <time>2018-02-12T18:53:52Z</time>
      </trkpt>
      <trkpt lat="62.63313419492" lon="17.973016060785">
        <ele>107.6</ele>
        <time>2018-02-12T18:53:53Z</time>
      </trkpt>
      <trkpt lat="62.633144923752" lon="17.972955627286">
        <ele>107.4</ele>
        <time>2018-02-12T18:53:54Z</time>
      </trkpt>
      <trkpt lat="62.633158837706" lon="17.972890080828">
        <ele>107.4</ele>
        <time>2018-02-12T18:53:55Z</time>
      </trkpt>
      <trkpt lat="62.633174763316" lon="17.972830234062">
        <ele>107.4</ele>
        <time>2018-02-12T18:53:56Z</time>
      </trkpt>
      <trkpt lat="62.633186581795" lon="17.972782373413">
        <ele>107.4</ele>
        <time>2018-02-12T18:53:57Z</time>
      </trkpt>
      <trkpt lat="62.633203932328" lon="17.972708696512">
        <ele>107.4</ele>
        <time>2018-02-12T18:53:58Z</time>
      </trkpt>
      <trkpt lat="62.633217091911" lon="17.972653795067">
        <ele>107.4</ele>
        <time>2018-02-12T18:53:59Z</time>
      </trkpt>
      <trkpt lat="62.633234023349" lon="17.972596043776">
        <ele>107.2</ele>
        <time>2018-02-12T18:54:00Z</time>
      </trkpt>
      <trkpt lat="62.633249613683" lon="17.97254038796">
        <ele>107.2</ele>
        <time>2018-02-12T18:54:01Z</time>
      </trkpt>
      <trkpt lat="62.633261096886" lon="17.972485235058">
        <ele>107</ele>
        <time>2018-02-12T18:54:02Z</time>
      </trkpt>
      <trkpt lat="62.633274256469" lon="17.972422789903">
        <ele>107</ele>
        <time>2018-02-12T18:54:03Z</time>
      </trkpt>
      <trkpt lat="62.633286074948" lon="17.972357746359">
        <ele>106.8</ele>
        <time>2018-02-12T18:54:04Z</time>
      </trkpt>
      <trkpt lat="62.633297474332" lon="17.972294630652">
        <ele>106.6</ele>
        <time>2018-02-12T18:54:05Z</time>
      </trkpt>
      <trkpt lat="62.633308370802" lon="17.972227072538">
        <ele>106.4</ele>
        <time>2018-02-12T18:54:06Z</time>
      </trkpt>
      <trkpt lat="62.63331775853" lon="17.972168483057">
        <ele>106.4</ele>
        <time>2018-02-12T18:54:07Z</time>
      </trkpt>
      <trkpt lat="62.633331337208" lon="17.972098913287">
        <ele>106.2</ele>
        <time>2018-02-12T18:54:08Z</time>
      </trkpt>
      <trkpt lat="62.633337958909" lon="17.972032361001">
        <ele>106.2</ele>
        <time>2018-02-12T18:54:09Z</time>
      </trkpt>
      <trkpt lat="62.633344161515" lon="17.971962204498">
        <ele>106.2</ele>
        <time>2018-02-12T18:54:10Z</time>
      </trkpt>
      <trkpt lat="62.63334709518" lon="17.971889784882">
        <ele>106</ele>
        <time>2018-02-12T18:54:11Z</time>
      </trkpt>
      <trkpt lat="62.633347430456" lon="17.971827507365">
        <ele>106</ele>
        <time>2018-02-12T18:54:12Z</time>
      </trkpt>
      <trkpt lat="62.633351202311" lon="17.971750310066">
        <ele>106</ele>
        <time>2018-02-12T18:54:13Z</time>
      </trkpt>
      <trkpt lat="62.633354219795" lon="17.971689289834">
        <ele>105.8</ele>
        <time>2018-02-12T18:54:14Z</time>
      </trkpt>
      <trkpt lat="62.633356734365" lon="17.9716234081">
        <ele>105.6</ele>
        <time>2018-02-12T18:54:15Z</time>
      </trkpt>
      <trkpt lat="62.633362266419" lon="17.97155132376">
        <ele>105.6</ele>
        <time>2018-02-12T18:54:16Z</time>
      </trkpt>
      <trkpt lat="62.633365032446" lon="17.971495919401">
        <ele>105.2</ele>
        <time>2018-02-12T18:54:17Z</time>
      </trkpt>
      <trkpt lat="62.633368469025" lon="17.971424673251">
        <ele>105</ele>
        <time>2018-02-12T18:54:18Z</time>
      </trkpt>
      <trkpt lat="62.633370732138" lon="17.971361222268">
        <ele>104.8</ele>
        <time>2018-02-12T18:54:19Z</time>
      </trkpt>
      <trkpt lat="62.63336972631" lon="17.971300034398">
        <ele>104.4</ele>
        <time>2018-02-12T18:54:20Z</time>
      </trkpt>
      <trkpt lat="62.633371989423" lon="17.971237086329">
        <ele>104.2</ele>
        <time>2018-02-12T18:54:21Z</time>
      </trkpt>
      <trkpt lat="62.633372743794" lon="17.971172210423">
        <ele>104.2</ele>
        <time>2018-02-12T18:54:22Z</time>
      </trkpt>
      <trkpt lat="62.63337307907" lon="17.971102808291">
        <ele>104</ele>
        <time>2018-02-12T18:54:23Z</time>
      </trkpt>
      <trkpt lat="62.633373330527" lon="17.971032987064">
        <ele>103.8</ele>
        <time>2018-02-12T18:54:24Z</time>
      </trkpt>
      <trkpt lat="62.633369810129" lon="17.970963920208">
        <ele>103.6</ele>
        <time>2018-02-12T18:54:25Z</time>
      </trkpt>
      <trkpt lat="62.633368217568" lon="17.970890243307">
        <ele>103.6</ele>
        <time>2018-02-12T18:54:26Z</time>
      </trkpt>
      <trkpt lat="62.633366289731" lon="17.970830731817">
        <ele>103.6</ele>
        <time>2018-02-12T18:54:27Z</time>
      </trkpt>
      <trkpt lat="62.633363607523" lon="17.970759401848">
        <ele>103.6</ele>
        <time>2018-02-12T18:54:28Z</time>
      </trkpt>
      <trkpt lat="62.633361763505" lon="17.970694945037">
        <ele>103.4</ele>
        <time>2018-02-12T18:54:29Z</time>
      </trkpt>
      <trkpt lat="62.633358410745" lon="17.970627973656">
        <ele>103.4</ele>
        <time>2018-02-12T18:54:30Z</time>
      </trkpt>
      <trkpt lat="62.633355309442" lon="17.970558655343">
        <ele>103.4</ele>
        <time>2018-02-12T18:54:31Z</time>
      </trkpt>
      <trkpt lat="62.633352711053" lon="17.970493192704">
        <ele>103.4</ele>
        <time>2018-02-12T18:54:32Z</time>
      </trkpt>
      <trkpt lat="62.633349945026" lon="17.970423287658">
        <ele>103.2</ele>
        <time>2018-02-12T18:54:33Z</time>
      </trkpt>
      <trkpt lat="62.633347430456" lon="17.970348940205">
        <ele>102.8</ele>
        <time>2018-02-12T18:54:34Z</time>
      </trkpt>
      <trkpt lat="62.63334458061" lon="17.970250620518">
        <ele>102.4</ele>
        <time>2018-02-12T18:54:36Z</time>
      </trkpt>
      <trkpt lat="62.633344161515" lon="17.970224888085">
        <ele>102.4</ele>
        <time>2018-02-12T18:54:37Z</time>
      </trkpt>
      <trkpt lat="62.633343574782" lon="17.97019597053">
        <ele>102.4</ele>
        <time>2018-02-12T18:54:38Z</time>
      </trkpt>
      <trkpt lat="62.633347765732" lon="17.970180212558">
        <ele>102.4</ele>
        <time>2018-02-12T18:54:39Z</time>
      </trkpt>
      <trkpt lat="62.633352627234" lon="17.970165628052">
        <ele>102.4</ele>
        <time>2018-02-12T18:54:40Z</time>
      </trkpt>
      <trkpt lat="62.633358494564" lon="17.970157246152">
        <ele>102.4</ele>
        <time>2018-02-12T18:54:41Z</time>
      </trkpt>
      <trkpt lat="62.633363439885" lon="17.970147020234">
        <ele>102.2</ele>
        <time>2018-02-12T18:54:42Z</time>
      </trkpt>
      <trkpt lat="62.633367714654" lon="17.970133273918">
        <ele>102.2</ele>
        <time>2018-02-12T18:54:43Z</time>
      </trkpt>
      <trkpt lat="62.633373162889" lon="17.970125227294">
        <ele>102.2</ele>
        <time>2018-02-12T18:54:44Z</time>
      </trkpt>
      <trkpt lat="62.633377521477" lon="17.970115588109">
        <ele>102.2</ele>
        <time>2018-02-12T18:54:45Z</time>
      </trkpt>
      <trkpt lat="62.633372492337" lon="17.970111816254">
        <ele>102.2</ele>
        <time>2018-02-12T18:54:46Z</time>
      </trkpt>
      <trkpt lat="62.633410546163" lon="17.969379070556">
        <ele>100.2</ele>
        <time>2018-02-12T18:56:07Z</time>
      </trkpt>
      <trkpt lat="62.633410546163" lon="17.969357277616">
        <ele>100</ele>
        <time>2018-02-12T18:56:08Z</time>
      </trkpt>
      <trkpt lat="62.63341163581" lon="17.969324336749">
        <ele>100</ele>
        <time>2018-02-12T18:56:09Z</time>
      </trkpt>
      <trkpt lat="62.633412893095" lon="17.969300113058">
        <ele>99.8</ele>
        <time>2018-02-12T18:56:10Z</time>
      </trkpt>
      <trkpt lat="62.633414234199" lon="17.969271782236">
        <ele>99.6</ele>
        <time>2018-02-12T18:56:11Z</time>
      </trkpt>
      <trkpt lat="62.633416329674" lon="17.969246636536">
        <ele>99.6</ele>
        <time>2018-02-12T18:56:12Z</time>
      </trkpt>
      <trkpt lat="62.633418592787" lon="17.969222580483">
        <ele>99.6</ele>
        <time>2018-02-12T18:56:13Z</time>
      </trkpt>
      <trkpt lat="62.6334208559" lon="17.969194920213">
        <ele>99.6</ele>
        <time>2018-02-12T18:56:14Z</time>
      </trkpt>
      <trkpt lat="62.63342253228" lon="17.969165248287">
        <ele>99.6</ele>
        <time>2018-02-12T18:56:15Z</time>
      </trkpt>
      <trkpt lat="62.63342504685" lon="17.969136833646">
        <ele>99.6</ele>
        <time>2018-02-12T18:56:16Z</time>
      </trkpt>
      <trkpt lat="62.633427226144" lon="17.96910548534">
        <ele>99.4</ele>
        <time>2018-02-12T18:56:17Z</time>
      </trkpt>
      <trkpt lat="62.633429489257" lon="17.969077405975">
        <ele>99.4</ele>
        <time>2018-02-12T18:56:18Z</time>
      </trkpt>
      <trkpt lat="62.63343175237" lon="17.969045470936">
        <ele>99.4</ele>
        <time>2018-02-12T18:56:19Z</time>
      </trkpt>
      <trkpt lat="62.633434769854" lon="17.969019235589">
        <ele>99.4</ele>
        <time>2018-02-12T18:56:20Z</time>
      </trkpt>
      <trkpt lat="62.633437452062" lon="17.968990318034">
        <ele>99.2</ele>
        <time>2018-02-12T18:56:21Z</time>
      </trkpt>
      <trkpt lat="62.63344013427" lon="17.968961149022">
        <ele>99</ele>
        <time>2018-02-12T18:56:22Z</time>
      </trkpt>
      <trkpt lat="62.633442732659" lon="17.968933572571">
        <ele>98.6</ele>
        <time>2018-02-12T18:56:23Z</time>
      </trkpt>
      <trkpt lat="62.633445750143" lon="17.968904571197">
        <ele>98.4</ele>
        <time>2018-02-12T18:56:24Z</time>
      </trkpt>
      <trkpt lat="62.633448683808" lon="17.96887749766">
        <ele>98.4</ele>
        <time>2018-02-12T18:56:25Z</time>
      </trkpt>
      <trkpt lat="62.633452120387" lon="17.968851346132">
        <ele>98.2</ele>
        <time>2018-02-12T18:56:26Z</time>
      </trkpt>
      <trkpt lat="62.633455556966" lon="17.968822344758">
        <ele>98.2</ele>
        <time>2018-02-12T18:56:27Z</time>
      </trkpt>
      <trkpt lat="62.633458825907" lon="17.968800719456">
        <ele>98.2</ele>
        <time>2018-02-12T18:56:28Z</time>
      </trkpt>
      <trkpt lat="62.633466369617" lon="17.968754367549">
        <ele>98.4</ele>
        <time>2018-02-12T18:56:29Z</time>
      </trkpt>
      <trkpt lat="62.633470476748" lon="17.968719582664">
        <ele>98.2</ele>
        <time>2018-02-12T18:56:30Z</time>
      </trkpt>
      <trkpt lat="62.63347533825" lon="17.968685971245">
        <ele>98.2</ele>
        <time>2018-02-12T18:56:31Z</time>
      </trkpt>
      <trkpt lat="62.633479696838" lon="17.968650599627">
        <ele>98.2</ele>
        <time>2018-02-12T18:56:32Z</time>
      </trkpt>
      <trkpt lat="62.633485228892" lon="17.968615647104">
        <ele>98</ele>
        <time>2018-02-12T18:56:33Z</time>
      </trkpt>
      <trkpt lat="62.633490174213" lon="17.968579688753">
        <ele>98</ele>
        <time>2018-02-12T18:56:34Z</time>
      </trkpt>
      <trkpt lat="62.633496125362" lon="17.968536773425">
        <ele>98</ele>
        <time>2018-02-12T18:56:35Z</time>
      </trkpt>
      <trkpt lat="62.633502495606" lon="17.968490589156">
        <ele>97.8</ele>
        <time>2018-02-12T18:56:36Z</time>
      </trkpt>
      <trkpt lat="62.633507776203" lon="17.968438872833">
        <ele>97.8</ele>
        <time>2018-02-12T18:56:37Z</time>
      </trkpt>
      <trkpt lat="62.633513224438" lon="17.968397717704">
        <ele>97.8</ele>
        <time>2018-02-12T18:56:38Z</time>
      </trkpt>
      <trkpt lat="62.633520181415" lon="17.968345749924">
        <ele>97.6</ele>
        <time>2018-02-12T18:56:39Z</time>
      </trkpt>
      <trkpt lat="62.63352646784" lon="17.968300739121">
        <ele>97.6</ele>
        <time>2018-02-12T18:56:40Z</time>
      </trkpt>
      <trkpt lat="62.633532670446" lon="17.96825304611">
        <ele>97.4</ele>
        <time>2018-02-12T18:56:41Z</time>
      </trkpt>
      <trkpt lat="62.633540968527" lon="17.968205101642">
        <ele>97.2</ele>
        <time>2018-02-12T18:56:42Z</time>
      </trkpt>
      <trkpt lat="62.633549350427" lon="17.968155899889">
        <ele>96.8</ele>
        <time>2018-02-12T18:56:43Z</time>
      </trkpt>
      <trkpt lat="62.633555301576" lon="17.968100914625">
        <ele>96.6</ele>
        <time>2018-02-12T18:56:44Z</time>
      </trkpt>
      <trkpt lat="62.633562929105" lon="17.968049198302">
        <ele>96.2</ele>
        <time>2018-02-12T18:56:45Z</time>
      </trkpt>
      <trkpt lat="62.633570472815" lon="17.968001421472">
        <ele>96.2</ele>
        <time>2018-02-12T18:56:46Z</time>
      </trkpt>
      <trkpt lat="62.633575837231" lon="17.967948196407">
        <ele>95.8</ele>
        <time>2018-02-12T18:56:47Z</time>
      </trkpt>
      <trkpt lat="62.63358095019" lon="17.967897485912">
        <ele>95.6</ele>
        <time>2018-02-12T18:56:48Z</time>
      </trkpt>
      <trkpt lat="62.633590337918" lon="17.967836884775">
        <ele>95.4</ele>
        <time>2018-02-12T18:56:49Z</time>
      </trkpt>
      <trkpt lat="62.633597462533" lon="17.96778952704">
        <ele>95.4</ele>
        <time>2018-02-12T18:56:50Z</time>
      </trkpt>
      <trkpt lat="62.633601988759" lon="17.967735799061">
        <ele>95</ele>
        <time>2018-02-12T18:56:51Z</time>
      </trkpt>
      <trkpt lat="62.633610370659" lon="17.967680227064">
        <ele>95</ele>
        <time>2018-02-12T18:56:52Z</time>
      </trkpt>
      <trkpt lat="62.633617914369" lon="17.967632031139">
        <ele>94.8</ele>
        <time>2018-02-12T18:56:53Z</time>
      </trkpt>
      <trkpt lat="62.633624871346" lon="17.967577045875">
        <ele>94.6</ele>
        <time>2018-02-12T18:56:54Z</time>
      </trkpt>
      <trkpt lat="62.633631493047" lon="17.967522898801">
        <ele>94.2</ele>
        <time>2018-02-12T18:56:55Z</time>
      </trkpt>
      <trkpt lat="62.633635767816" lon="17.967472858858">
        <ele>94.2</ele>
        <time>2018-02-12T18:56:56Z</time>
      </trkpt>
      <trkpt lat="62.633637528015" lon="17.967421729268">
        <ele>94</ele>
        <time>2018-02-12T18:56:57Z</time>
      </trkpt>
      <trkpt lat="62.633642389517" lon="17.967375964094">
        <ele>93.8</ele>
        <time>2018-02-12T18:56:58Z</time>
      </trkpt>
      <trkpt lat="62.633649430313" lon="17.967311172007">
        <ele>93.6</ele>
        <time>2018-02-12T18:56:59Z</time>
      </trkpt>
      <trkpt lat="62.633653705082" lon="17.967255683829">
        <ele>93.6</ele>
        <time>2018-02-12T18:57:00Z</time>
      </trkpt>
      <trkpt lat="62.633660913516" lon="17.967200614746">
        <ele>93.6</ele>
        <time>2018-02-12T18:57:01Z</time>
      </trkpt>
      <trkpt lat="62.63366979833" lon="17.96714998807">
        <ele>93.4</ele>
        <time>2018-02-12T18:57:02Z</time>
      </trkpt>
      <trkpt lat="62.633676336212" lon="17.967102797973">
        <ele>93</ele>
        <time>2018-02-12T18:57:03Z</time>
      </trkpt>
      <trkpt lat="62.633684131379" lon="17.967056446066">
        <ele>92.8</ele>
        <time>2018-02-12T18:57:04Z</time>
      </trkpt>
      <trkpt lat="62.633683628465" lon="17.967009842702">
        <ele>92.6</ele>
        <time>2018-02-12T18:57:05Z</time>
      </trkpt>
      <trkpt lat="62.633682622637" lon="17.966958964569">
        <ele>92.2</ele>
        <time>2018-02-12T18:57:06Z</time>
      </trkpt>
      <trkpt lat="62.633688573786" lon="17.966908505531">
        <ele>91.8</ele>
        <time>2018-02-12T18:57:07Z</time>
      </trkpt>
      <trkpt lat="62.633701230455" lon="17.966857795036">
        <ele>91.6</ele>
        <time>2018-02-12T18:57:08Z</time>
      </trkpt>
      <trkpt lat="62.633710450545" lon="17.966803061229">
        <ele>91.6</ele>
        <time>2018-02-12T18:57:09Z</time>
      </trkpt>
      <trkpt lat="62.633721849929" lon="17.966752853648">
        <ele>91.2</ele>
        <time>2018-02-12T18:57:10Z</time>
      </trkpt>
      <trkpt lat="62.633728723087" lon="17.966694599443">
        <ele>91</ele>
        <time>2018-02-12T18:57:11Z</time>
      </trkpt>
      <trkpt lat="62.633732578761" lon="17.9666445595">
        <ele>91</ele>
        <time>2018-02-12T18:57:12Z</time>
      </trkpt>
      <trkpt lat="62.633740038652" lon="17.966595357747">
        <ele>90.8</ele>
        <time>2018-02-12T18:57:13Z</time>
      </trkpt>
      <trkpt lat="62.633748839647" lon="17.966535510981">
        <ele>90.4</ele>
        <time>2018-02-12T18:57:14Z</time>
      </trkpt>
      <trkpt lat="62.63375445552" lon="17.966484968124">
        <ele>90.4</ele>
        <time>2018-02-12T18:57:15Z</time>
      </trkpt>
      <trkpt lat="62.633762502144" lon="17.96643333562">
        <ele>90.2</ele>
        <time>2018-02-12T18:57:16Z</time>
      </trkpt>
      <trkpt lat="62.633767531284" lon="17.966370219913">
        <ele>90</ele>
        <time>2018-02-12T18:57:17Z</time>
      </trkpt>
      <trkpt lat="62.633771135501" lon="17.966317581581">
        <ele>90</ele>
        <time>2018-02-12T18:57:18Z</time>
      </trkpt>
      <trkpt lat="62.633779182125" lon="17.966254465874">
        <ele>89.8</ele>
        <time>2018-02-12T18:57:19Z</time>
      </trkpt>
      <trkpt lat="62.633786055283" lon="17.966199145334">
        <ele>89.6</ele>
        <time>2018-02-12T18:57:20Z</time>
      </trkpt>
      <trkpt lat="62.633791000604" lon="17.966149105391">
        <ele>89.6</ele>
        <time>2018-02-12T18:57:21Z</time>
      </trkpt>
      <trkpt lat="62.633798376676" lon="17.966095461231">
        <ele>89.4</ele>
        <time>2018-02-12T18:57:22Z</time>
      </trkpt>
      <trkpt lat="62.633803992549" lon="17.966035865922">
        <ele>89</ele>
        <time>2018-02-12T18:57:23Z</time>
      </trkpt>
      <trkpt lat="62.633808351137" lon="17.96598071302">
        <ele>88.8</ele>
        <time>2018-02-12T18:57:24Z</time>
      </trkpt>
      <trkpt lat="62.633811368621" lon="17.965922458815">
        <ele>88.4</ele>
        <time>2018-02-12T18:57:25Z</time>
      </trkpt>
      <trkpt lat="62.633813715553" lon="17.965863534058">
        <ele>88</ele>
        <time>2018-02-12T18:57:26Z</time>
      </trkpt>
      <trkpt lat="62.633813883191" lon="17.965808129699">
        <ele>87.8</ele>
        <time>2018-02-12T18:57:27Z</time>
      </trkpt>
      <trkpt lat="62.633814972838" lon="17.965766723113">
        <ele>87.6</ele>
        <time>2018-02-12T18:57:28Z</time>
      </trkpt>
      <trkpt lat="62.63381731977" lon="17.96569321385">
        <ele>87.4</ele>
        <time>2018-02-12T18:57:29Z</time>
      </trkpt>
      <trkpt lat="62.633814553743" lon="17.965638144767">
        <ele>87.2</ele>
        <time>2018-02-12T18:57:30Z</time>
      </trkpt>
      <trkpt lat="62.633814050829" lon="17.965581902218">
        <ele>87</ele>
        <time>2018-02-12T18:57:31Z</time>
      </trkpt>
      <trkpt lat="62.633812542087" lon="17.965521971633">
        <ele>86.8</ele>
        <time>2018-02-12T18:57:32Z</time>
      </trkpt>
      <trkpt lat="62.633809189327" lon="17.965472602242">
        <ele>86.6</ele>
        <time>2018-02-12T18:57:33Z</time>
      </trkpt>
      <trkpt lat="62.633807764404" lon="17.96541409658">
        <ele>86.4</ele>
        <time>2018-02-12T18:57:34Z</time>
      </trkpt>
      <trkpt lat="62.633805249834" lon="17.965349304493">
        <ele>86.2</ele>
        <time>2018-02-12T18:57:35Z</time>
      </trkpt>
      <trkpt lat="62.633801477979" lon="17.965298258722">
        <ele>86</ele>
        <time>2018-02-12T18:57:36Z</time>
      </trkpt>
      <trkpt lat="62.633798963409" lon="17.965244363105">
        <ele>85.8</ele>
        <time>2018-02-12T18:57:37Z</time>
      </trkpt>
      <trkpt lat="62.633798711952" lon="17.96519281442">
        <ele>85.6</ele>
        <time>2018-02-12T18:57:38Z</time>
      </trkpt>
      <trkpt lat="62.633796867934" lon="17.965145708142">
        <ele>85.4</ele>
        <time>2018-02-12T18:57:39Z</time>
      </trkpt>
      <trkpt lat="62.633790916785" lon="17.965093824181">
        <ele>85.2</ele>
        <time>2018-02-12T18:57:40Z</time>
      </trkpt>
      <trkpt lat="62.633789827138" lon="17.96503439651">
        <ele>85.2</ele>
        <time>2018-02-12T18:57:41Z</time>
      </trkpt>
      <trkpt lat="62.63378882131" lon="17.964985446214">
        <ele>85</ele>
        <time>2018-02-12T18:57:42Z</time>
      </trkpt>
      <trkpt lat="62.6337896595" lon="17.964946218922">
        <ele>85</ele>
        <time>2018-02-12T18:57:43Z</time>
      </trkpt>
      <trkpt lat="62.633794185726" lon="17.964887377984">
        <ele>84.8</ele>
        <time>2018-02-12T18:57:44Z</time>
      </trkpt>
      <trkpt lat="62.633812877363" lon="17.964843540647">
        <ele>84.6</ele>
        <time>2018-02-12T18:57:45Z</time>
      </trkpt>
      <trkpt lat="62.633830227896" lon="17.964811689427">
        <ele>84.6</ele>
        <time>2018-02-12T18:57:46Z</time>
      </trkpt>
      <trkpt lat="62.633858055804" lon="17.964779083836">
        <ele>84.2</ele>
        <time>2018-02-12T18:57:47Z</time>
      </trkpt>
      <trkpt lat="62.633880854572" lon="17.964755027783">
        <ele>84</ele>
        <time>2018-02-12T18:57:48Z</time>
      </trkpt>
      <trkpt lat="62.633905078263" lon="17.964728205703">
        <ele>83.8</ele>
        <time>2018-02-12T18:57:49Z</time>
      </trkpt>
      <trkpt lat="62.633933241447" lon="17.964723176563">
        <ele>83.6</ele>
        <time>2018-02-12T18:57:50Z</time>
      </trkpt>
      <trkpt lat="62.633959895889" lon="17.964723930934">
        <ele>83.4</ele>
        <time>2018-02-12T18:57:51Z</time>
      </trkpt>
      <trkpt lat="62.633985209227" lon="17.964726277866">
        <ele>83.2</ele>
        <time>2018-02-12T18:57:52Z</time>
      </trkpt>
      <trkpt lat="62.634013540049" lon="17.964726445504">
        <ele>83.2</ele>
        <time>2018-02-12T18:57:53Z</time>
      </trkpt>
      <trkpt lat="62.634040529767" lon="17.964718817975">
        <ele>83</ele>
        <time>2018-02-12T18:57:54Z</time>
      </trkpt>
      <trkpt lat="62.63406877677" lon="17.964713202102">
        <ele>83</ele>
        <time>2018-02-12T18:57:55Z</time>
      </trkpt>
      <trkpt lat="62.634096772316" lon="17.964716303405">
        <ele>83</ele>
        <time>2018-02-12T18:57:56Z</time>
      </trkpt>
      <trkpt lat="62.634123091482" lon="17.964716973957">
        <ele>82.8</ele>
        <time>2018-02-12T18:57:57Z</time>
      </trkpt>
      <trkpt lat="62.634143291861" lon="17.964716303405">
        <ele>82.8</ele>
        <time>2018-02-12T18:57:58Z</time>
      </trkpt>
      <trkpt lat="62.634177825289" lon="17.964717979785">
        <ele>82.8</ele>
        <time>2018-02-12T18:57:59Z</time>
      </trkpt>
      <trkpt lat="62.634202300437" lon="17.964718901794">
        <ele>82.6</ele>
        <time>2018-02-12T18:58:00Z</time>
      </trkpt>
      <trkpt lat="62.634230631259" lon="17.964717476871">
        <ele>82.6</ele>
        <time>2018-02-12T18:58:01Z</time>
      </trkpt>
      <trkpt lat="62.634257704796" lon="17.964716973957">
        <ele>82.6</ele>
        <time>2018-02-12T18:58:02Z</time>
      </trkpt>
      <trkpt lat="62.634281174116" lon="17.964713705016">
        <ele>82.4</ele>
        <time>2018-02-12T18:58:03Z</time>
      </trkpt>
      <trkpt lat="62.634309672576" lon="17.964715549034">
        <ele>82.4</ele>
        <time>2018-02-12T18:58:04Z</time>
      </trkpt>
      <trkpt lat="62.63433867395" lon="17.964714627025">
        <ele>82.2</ele>
        <time>2018-02-12T18:58:05Z</time>
      </trkpt>
      <trkpt lat="62.634363484374" lon="17.964708759695">
        <ele>82.2</ele>
        <time>2018-02-12T18:58:06Z</time>
      </trkpt>
      <trkpt lat="62.634394329766" lon="17.964711441903">
        <ele>82.2</ele>
        <time>2018-02-12T18:58:07Z</time>
      </trkpt>
      <trkpt lat="62.634418888733" lon="17.964703982012">
        <ele>82</ele>
        <time>2018-02-12T18:58:08Z</time>
      </trkpt>
      <trkpt lat="62.634444453528" lon="17.964691912076">
        <ele>82</ele>
        <time>2018-02-12T18:58:09Z</time>
      </trkpt>
      <trkpt lat="62.634469599228" lon="17.964690319515">
        <ele>82</ele>
        <time>2018-02-12T18:58:10Z</time>
      </trkpt>
      <trkpt lat="62.634494996385" lon="17.964685122737">
        <ele>82</ele>
        <time>2018-02-12T18:58:11Z</time>
      </trkpt>
      <trkpt lat="62.634520225904" lon="17.964674226267">
        <ele>82</ele>
        <time>2018-02-12T18:58:12Z</time>
      </trkpt>
      <trkpt lat="62.634543779043" lon="17.964673807172">
        <ele>82</ele>
        <time>2018-02-12T18:58:13Z</time>
      </trkpt>
      <trkpt lat="62.634571942227" lon="17.964676070285">
        <ele>82</ele>
        <time>2018-02-12T18:58:14Z</time>
      </trkpt>
      <trkpt lat="62.634596920289" lon="17.964664838539">
        <ele>82</ele>
        <time>2018-02-12T18:58:15Z</time>
      </trkpt>
      <trkpt lat="62.634624077645" lon="17.964666263462">
        <ele>81.8</ele>
        <time>2018-02-12T18:58:16Z</time>
      </trkpt>
      <trkpt lat="62.63464964244" lon="17.964667520747">
        <ele>81.6</ele>
        <time>2018-02-12T18:58:17Z</time>
      </trkpt>
      <trkpt lat="62.634675877787" lon="17.964665844367">
        <ele>81.6</ele>
        <time>2018-02-12T18:58:18Z</time>
      </trkpt>
      <trkpt lat="62.634705968808" lon="17.964667353109">
        <ele>81.6</ele>
        <time>2018-02-12T18:58:19Z</time>
      </trkpt>
      <trkpt lat="62.634732036517" lon="17.964662072512">
        <ele>81.4</ele>
        <time>2018-02-12T18:58:20Z</time>
      </trkpt>
      <trkpt lat="62.634753242724" lon="17.964654947897">
        <ele>81.4</ele>
        <time>2018-02-12T18:58:21Z</time>
      </trkpt>
      <trkpt lat="62.634779813347" lon="17.964654864078">
        <ele>81.2</ele>
        <time>2018-02-12T18:58:22Z</time>
      </trkpt>
      <trkpt lat="62.634802528296" lon="17.964648577653">
        <ele>81.2</ele>
        <time>2018-02-12T18:58:23Z</time>
      </trkpt>
      <trkpt lat="62.634829518014" lon="17.964645392531">
        <ele>81.2</ele>
        <time>2018-02-12T18:58:24Z</time>
      </trkpt>
      <trkpt lat="62.634855920999" lon="17.964641033943">
        <ele>81.4</ele>
        <time>2018-02-12T18:58:25Z</time>
      </trkpt>
      <trkpt lat="62.634880647604" lon="17.964642291228">
        <ele>81.4</ele>
        <time>2018-02-12T18:58:26Z</time>
      </trkpt>
      <trkpt lat="62.634905541847" lon="17.964635753346">
        <ele>81.4</ele>
        <time>2018-02-12T18:58:27Z</time>
      </trkpt>
      <trkpt lat="62.63492373057" lon="17.964630556568">
        <ele>81.4</ele>
        <time>2018-02-12T18:58:28Z</time>
      </trkpt>
      <trkpt lat="62.634952899582" lon="17.964627455265">
        <ele>81.4</ele>
        <time>2018-02-12T18:58:29Z</time>
      </trkpt>
      <trkpt lat="62.634976452721" lon="17.964625275971">
        <ele>81.4</ele>
        <time>2018-02-12T18:58:30Z</time>
      </trkpt>
      <trkpt lat="62.63500335862" lon="17.96461949246">
        <ele>81.2</ele>
        <time>2018-02-12T18:58:31Z</time>
      </trkpt>
      <trkpt lat="62.635031186528" lon="17.964614295682">
        <ele>81</ele>
        <time>2018-02-12T18:58:32Z</time>
      </trkpt>
      <trkpt lat="62.63505784097" lon="17.964611026741">
        <ele>81</ele>
        <time>2018-02-12T18:58:33Z</time>
      </trkpt>
      <trkpt lat="62.635089608371" lon="17.964601471375">
        <ele>80.8</ele>
        <time>2018-02-12T18:58:34Z</time>
      </trkpt>
      <trkpt lat="62.635115508442" lon="17.964591496914">
        <ele>80.8</ele>
        <time>2018-02-12T18:58:35Z</time>
      </trkpt>
      <trkpt lat="62.635144342178" lon="17.964579175521">
        <ele>80.8</ele>
        <time>2018-02-12T18:58:36Z</time>
      </trkpt>
      <trkpt lat="62.635168817326" lon="17.964568781965">
        <ele>80.8</ele>
        <time>2018-02-12T18:58:37Z</time>
      </trkpt>
      <trkpt lat="62.63519111318" lon="17.964559394237">
        <ele>81</ele>
        <time>2018-02-12T18:58:38Z</time>
      </trkpt>
      <trkpt lat="62.635214498681" lon="17.964551850527">
        <ele>80.8</ele>
        <time>2018-02-12T18:58:39Z</time>
      </trkpt>
      <trkpt lat="62.635234363784" lon="17.964542714256">
        <ele>80.8</ele>
        <time>2018-02-12T18:58:40Z</time>
      </trkpt>
      <trkpt lat="62.635262107873" lon="17.964533829442">
        <ele>81</ele>
        <time>2018-02-12T18:58:41Z</time>
      </trkpt>
      <trkpt lat="62.635291612161" lon="17.964525447542">
        <ele>80.8</ele>
        <time>2018-02-12T18:58:42Z</time>
      </trkpt>
      <trkpt lat="62.635312315454" lon="17.964515221624">
        <ele>80.8</ele>
        <time>2018-02-12T18:58:43Z</time>
      </trkpt>
      <trkpt lat="62.635340143362" lon="17.964500050385">
        <ele>80.8</ele>
        <time>2018-02-12T18:58:44Z</time>
      </trkpt>
      <trkpt lat="62.635368893279" lon="17.964496529987">
        <ele>81</ele>
        <time>2018-02-12T18:58:45Z</time>
      </trkpt>
      <trkpt lat="62.635392781694" lon="17.964493596322">
        <ele>80.8</ele>
        <time>2018-02-12T18:58:46Z</time>
      </trkpt>
      <trkpt lat="62.635422118344" lon="17.964495021245">
        <ele>80.8</ele>
        <time>2018-02-12T18:58:47Z</time>
      </trkpt>
      <trkpt lat="62.635447347863" lon="17.964491417028">
        <ele>80.6</ele>
        <time>2018-02-12T18:58:48Z</time>
      </trkpt>
      <trkpt lat="62.6354744214" lon="17.964487226078">
        <ele>80.6</ele>
        <time>2018-02-12T18:58:49Z</time>
      </trkpt>
      <trkpt lat="62.635500908204" lon="17.964477670712">
        <ele>80.2</ele>
        <time>2018-02-12T18:58:50Z</time>
      </trkpt>
      <trkpt lat="62.635527395008" lon="17.964464846405">
        <ele>80.2</ele>
        <time>2018-02-12T18:58:51Z</time>
      </trkpt>
      <trkpt lat="62.635544074989" lon="17.96445604541">
        <ele>80.2</ele>
        <time>2018-02-12T18:58:52Z</time>
      </trkpt>
      <trkpt lat="62.635576177666" lon="17.964446992958">
        <ele>80</ele>
        <time>2018-02-12T18:58:53Z</time>
      </trkpt>
      <trkpt lat="62.63560182628" lon="17.96443089971">
        <ele>80</ele>
        <time>2018-02-12T18:58:54Z</time>
      </trkpt>
      <trkpt lat="62.635624205953" lon="17.964413632996">
        <ele>80</ele>
        <time>2018-02-12T18:58:55Z</time>
      </trkpt>
      <trkpt lat="62.63564960311" lon="17.964393264979">
        <ele>80</ele>
        <time>2018-02-12T18:58:56Z</time>
      </trkpt>
      <trkpt lat="62.635674413534" lon="17.96437474098">
        <ele>80</ele>
        <time>2018-02-12T18:58:57Z</time>
      </trkpt>
      <trkpt lat="62.635692769895" lon="17.964361749035">
        <ele>80</ele>
        <time>2018-02-12T18:58:58Z</time>
      </trkpt>
      <trkpt lat="62.635725459305" lon="17.964343057398">
        <ele>79.8</ele>
        <time>2018-02-12T18:58:59Z</time>
      </trkpt>
      <trkpt lat="62.63575186229" lon="17.9643227732">
        <ele>79.8</ele>
        <time>2018-02-12T18:59:00Z</time>
      </trkpt>
      <trkpt lat="62.635774744877" lon="17.964303578649">
        <ele>79.6</ele>
        <time>2018-02-12T18:59:01Z</time>
      </trkpt>
      <trkpt lat="62.635801818414" lon="17.964286395754">
        <ele>79.6</ele>
        <time>2018-02-12T18:59:02Z</time>
      </trkpt>
      <trkpt lat="62.635825706829" lon="17.964269464316">
        <ele>79.6</ele>
        <time>2018-02-12T18:59:03Z</time>
      </trkpt>
      <trkpt lat="62.63584909233" lon="17.964243815702">
        <ele>79.6</ele>
        <time>2018-02-12T18:59:04Z</time>
      </trkpt>
      <trkpt lat="62.635878093704" lon="17.96422386678">
        <ele>79.4</ele>
        <time>2018-02-12T18:59:05Z</time>
      </trkpt>
      <trkpt lat="62.635901395386" lon="17.964203834039">
        <ele>79.4</ele>
        <time>2018-02-12T18:59:06Z</time>
      </trkpt>
      <trkpt lat="62.635923607421" lon="17.964185142402">
        <ele>79.4</ele>
        <time>2018-02-12T18:59:07Z</time>
      </trkpt>
      <trkpt lat="62.635947412017" lon="17.964168294783">
        <ele>79.4</ele>
        <time>2018-02-12T18:59:08Z</time>
      </trkpt>
      <trkpt lat="62.635971384251" lon="17.964153291182">
        <ele>79.2</ele>
        <time>2018-02-12T18:59:09Z</time>
      </trkpt>
      <trkpt lat="62.635993344829" lon="17.964137197934">
        <ele>79.2</ele>
        <time>2018-02-12T18:59:10Z</time>
      </trkpt>
      <trkpt lat="62.636019663995" lon="17.964130492414">
        <ele>79.2</ele>
        <time>2018-02-12T18:59:11Z</time>
      </trkpt>
      <trkpt lat="62.636045647885" lon="17.964120517953">
        <ele>79</ele>
        <time>2018-02-12T18:59:12Z</time>
      </trkpt>
      <trkpt lat="62.636066854092" lon="17.964110208216">
        <ele>78.8</ele>
        <time>2018-02-12T18:59:13Z</time>
      </trkpt>
      <trkpt lat="62.636098621493" lon="17.964104927619">
        <ele>78.8</ele>
        <time>2018-02-12T18:59:14Z</time>
      </trkpt>
      <trkpt lat="62.63612401865" lon="17.964118338659">
        <ele>78.6</ele>
        <time>2018-02-12T18:59:15Z</time>
      </trkpt>
      <trkpt lat="62.6361449734" lon="17.964131162966">
        <ele>78.6</ele>
        <time>2018-02-12T18:59:16Z</time>
      </trkpt>
      <trkpt lat="62.636169029453" lon="17.964162846548">
        <ele>78.6</ele>
        <time>2018-02-12T18:59:17Z</time>
      </trkpt>
      <trkpt lat="62.636189732746" lon="17.964179358891">
        <ele>78.6</ele>
        <time>2018-02-12T18:59:18Z</time>
      </trkpt>
      <trkpt lat="62.636214626989" lon="17.964191345008">
        <ele>78.8</ele>
        <time>2018-02-12T18:59:19Z</time>
      </trkpt>
      <trkpt lat="62.636239856508" lon="17.964204085496">
        <ele>78.8</ele>
        <time>2018-02-12T18:59:20Z</time>
      </trkpt>
      <trkpt lat="62.636260224525" lon="17.964206348609">
        <ele>78.8</ele>
        <time>2018-02-12T18:59:21Z</time>
      </trkpt>
      <trkpt lat="62.636282268922" lon="17.964204839867">
        <ele>78.6</ele>
        <time>2018-02-12T18:59:22Z</time>
      </trkpt>
      <trkpt lat="62.636303978043" lon="17.964208611722">
        <ele>78.6</ele>
        <time>2018-02-12T18:59:23Z</time>
      </trkpt>
      <trkpt lat="62.636327615001" lon="17.964206767704">
        <ele>78.6</ele>
        <time>2018-02-12T18:59:24Z</time>
      </trkpt>
      <trkpt lat="62.636350581407" lon="17.964192686112">
        <ele>78.6</ele>
        <time>2018-02-12T18:59:25Z</time>
      </trkpt>
      <trkpt lat="62.636377235849" lon="17.964176425226">
        <ele>78.6</ele>
        <time>2018-02-12T18:59:26Z</time>
      </trkpt>
      <trkpt lat="62.636399615522" lon="17.964161589263">
        <ele>78.6</ele>
        <time>2018-02-12T18:59:27Z</time>
      </trkpt>
      <trkpt lat="62.636415122037" lon="17.964148681137">
        <ele>78.6</ele>
        <time>2018-02-12T18:59:28Z</time>
      </trkpt>
      <trkpt lat="62.636446470343" lon="17.964121859057">
        <ele>78.6</ele>
        <time>2018-02-12T18:59:29Z</time>
      </trkpt>
      <trkpt lat="62.63646851474" lon="17.964110878768">
        <ele>78.6</ele>
        <time>2018-02-12T18:59:30Z</time>
      </trkpt>
      <trkpt lat="62.636487625472" lon="17.964093025321">
        <ele>78.6</ele>
        <time>2018-02-12T18:59:31Z</time>
      </trkpt>
      <trkpt lat="62.636514531371" lon="17.964079614281">
        <ele>78.6</ele>
        <time>2018-02-12T18:59:32Z</time>
      </trkpt>
      <trkpt lat="62.636533642103" lon="17.964060587368">
        <ele>78.4</ele>
        <time>2018-02-12T18:59:33Z</time>
      </trkpt>
      <trkpt lat="62.636554932129" lon="17.964040386989">
        <ele>78.2</ele>
        <time>2018-02-12T18:59:34Z</time>
      </trkpt>
      <trkpt lat="62.636575467784" lon="17.964009038683">
        <ele>78.2</ele>
        <time>2018-02-12T18:59:35Z</time>
      </trkpt>
      <trkpt lat="62.636593237412" lon="17.963973080332">
        <ele>78.2</ele>
        <time>2018-02-12T18:59:36Z</time>
      </trkpt>
      <trkpt lat="62.636614192162" lon="17.96394474951">
        <ele>78.2</ele>
        <time>2018-02-12T18:59:37Z</time>
      </trkpt>
      <trkpt lat="62.636639002586" lon="17.963936032334">
        <ele>78.2</ele>
        <time>2018-02-12T18:59:38Z</time>
      </trkpt>
      <trkpt lat="62.636665657028" lon="17.963945671519">
        <ele>78.2</ele>
        <time>2018-02-12T18:59:39Z</time>
      </trkpt>
      <trkpt lat="62.636687449968" lon="17.963965788079">
        <ele>78.2</ele>
        <time>2018-02-12T18:59:40Z</time>
      </trkpt>
      <trkpt lat="62.636712260392" lon="17.964000489145">
        <ele>78.2</ele>
        <time>2018-02-12T18:59:41Z</time>
      </trkpt>
      <trkpt lat="62.636731622581" lon="17.964032927098">
        <ele>78.2</ele>
        <time>2018-02-12T18:59:42Z</time>
      </trkpt>
      <trkpt lat="62.636745033621" lon="17.964060755006">
        <ele>78.2</ele>
        <time>2018-02-12T18:59:43Z</time>
      </trkpt>
      <trkpt lat="62.636763306163" lon="17.964106855456">
        <ele>78</ele>
        <time>2018-02-12T18:59:44Z</time>
      </trkpt>
      <trkpt lat="62.636775124642" lon="17.964144406368">
        <ele>78</ele>
        <time>2018-02-12T18:59:45Z</time>
      </trkpt>
      <trkpt lat="62.636789876786" lon="17.964178353063">
        <ele>78</ele>
        <time>2018-02-12T18:59:46Z</time>
      </trkpt>
      <trkpt lat="62.636807311138" lon="17.964225710798">
        <ele>78</ele>
        <time>2018-02-12T18:59:47Z</time>
      </trkpt>
      <trkpt lat="62.636821811825" lon="17.964256807647">
        <ele>78</ele>
        <time>2018-02-12T18:59:48Z</time>
      </trkpt>
      <trkpt lat="62.636842431299" lon="17.96429511293">
        <ele>78</ele>
        <time>2018-02-12T18:59:49Z</time>
      </trkpt>
      <trkpt lat="62.636859278918" lon="17.964335178412">
        <ele>78</ele>
        <time>2018-02-12T18:59:50Z</time>
      </trkpt>
      <trkpt lat="62.636876126537" lon="17.964366023804">
        <ele>78</ele>
        <time>2018-02-12T18:59:51Z</time>
      </trkpt>
      <trkpt lat="62.636893812346" lon="17.9643982103">
        <ele>78</ele>
        <time>2018-02-12T18:59:52Z</time>
      </trkpt>
      <trkpt lat="62.636913258354" lon="17.964436934678">
        <ele>78</ele>
        <time>2018-02-12T18:59:53Z</time>
      </trkpt>
      <trkpt lat="62.636934380742" lon="17.964472893029">
        <ele>78.2</ele>
        <time>2018-02-12T18:59:54Z</time>
      </trkpt>
      <trkpt lat="62.636951731275" lon="17.964499044557">
        <ele>78.2</ele>
        <time>2018-02-12T18:59:55Z</time>
      </trkpt>
      <trkpt lat="62.636971764016" lon="17.964534499994">
        <ele>78.2</ele>
        <time>2018-02-12T18:59:56Z</time>
      </trkpt>
      <trkpt lat="62.636990874748" lon="17.96456249554">
        <ele>78.2</ele>
        <time>2018-02-12T18:59:57Z</time>
      </trkpt>
      <trkpt lat="62.637004621064" lon="17.964579091702">
        <ele>78.2</ele>
        <time>2018-02-12T18:59:58Z</time>
      </trkpt>
      <trkpt lat="62.637028760936" lon="17.964621252659">
        <ele>78</ele>
        <time>2018-02-12T18:59:59Z</time>
      </trkpt>
      <trkpt lat="62.637047955487" lon="17.964651427499">
        <ele>78</ele>
        <time>2018-02-12T19:00:00Z</time>
      </trkpt>
      <trkpt lat="62.637067317676" lon="17.964672214611">
        <ele>78</ele>
        <time>2018-02-12T19:00:01Z</time>
      </trkpt>
      <trkpt lat="62.637091122272" lon="17.964682272891">
        <ele>78</ele>
        <time>2018-02-12T19:00:02Z</time>
      </trkpt>
      <trkpt lat="62.637109394814" lon="17.964667939842">
        <ele>78.2</ele>
        <time>2018-02-12T19:00:03Z</time>
      </trkpt>
      <trkpt lat="62.637125488062" lon="17.964654277345">
        <ele>78</ele>
        <time>2018-02-12T19:00:04Z</time>
      </trkpt>
      <trkpt lat="62.637147113364" lon="17.964627119989">
        <ele>78</ele>
        <time>2018-02-12T19:00:05Z</time>
      </trkpt>
      <trkpt lat="62.637167984295" lon="17.964611194379">
        <ele>77.8</ele>
        <time>2018-02-12T19:00:06Z</time>
      </trkpt>
      <trkpt lat="62.637185251009" lon="17.96458428848">
        <ele>77.8</ele>
        <time>2018-02-12T19:00:07Z</time>
      </trkpt>
      <trkpt lat="62.637204780836" lon="17.964558891323">
        <ele>77.8</ele>
        <time>2018-02-12T19:00:08Z</time>
      </trkpt>
      <trkpt lat="62.637229088346" lon="17.964525028447">
        <ele>77.6</ele>
        <time>2018-02-12T19:00:09Z</time>
      </trkpt>
      <trkpt lat="62.637246774155" lon="17.964497619634">
        <ele>77.4</ele>
        <time>2018-02-12T19:00:10Z</time>
      </trkpt>
      <trkpt lat="62.637267393629" lon="17.964460403998">
        <ele>77.4</ele>
        <time>2018-02-12T19:00:11Z</time>
      </trkpt>
      <trkpt lat="62.637289605664" lon="17.964424780923">
        <ele>77.4</ele>
        <time>2018-02-12T19:00:12Z</time>
      </trkpt>
      <trkpt lat="62.637305363636" lon="17.964399132309">
        <ele>77.4</ele>
        <time>2018-02-12T19:00:13Z</time>
      </trkpt>
      <trkpt lat="62.637326318386" lon="17.964363760691">
        <ele>77.2</ele>
        <time>2018-02-12T19:00:14Z</time>
      </trkpt>
      <trkpt lat="62.637345596756" lon="17.964335513688">
        <ele>77.4</ele>
        <time>2018-02-12T19:00:15Z</time>
      </trkpt>
      <trkpt lat="62.637361941461" lon="17.964306177038">
        <ele>77.2</ele>
        <time>2018-02-12T19:00:16Z</time>
      </trkpt>
      <trkpt lat="62.637379291994" lon="17.964267620298">
        <ele>77</ele>
        <time>2018-02-12T19:00:17Z</time>
      </trkpt>
      <trkpt lat="62.637395720518" lon="17.964234847069">
        <ele>77</ele>
        <time>2018-02-12T19:00:18Z</time>
      </trkpt>
      <trkpt lat="62.637411729947" lon="17.964206851523">
        <ele>76.8</ele>
        <time>2018-02-12T19:00:19Z</time>
      </trkpt>
      <trkpt lat="62.637422039684" lon="17.964185980592">
        <ele>76.8</ele>
        <time>2018-02-12T19:00:20Z</time>
      </trkpt>
      <trkpt lat="62.637431259774" lon="17.96416938443">
        <ele>76.6</ele>
        <time>2018-02-12T19:00:21Z</time>
      </trkpt>
      <trkpt lat="62.637442323882" lon="17.964159493788">
        <ele>76.6</ele>
        <time>2018-02-12T19:00:22Z</time>
      </trkpt>
      <trkpt lat="62.637453136533" lon="17.96415010606">
        <ele>76.4</ele>
        <time>2018-02-12T19:00:23Z</time>
      </trkpt>
      <trkpt lat="62.637461853709" lon="17.964136611201">
        <ele>76.6</ele>
        <time>2018-02-12T19:00:24Z</time>
      </trkpt>
      <trkpt lat="62.637469062143" lon="17.964123200161">
        <ele>76.2</ele>
        <time>2018-02-12T19:00:25Z</time>
      </trkpt>
      <trkpt lat="62.637481132079" lon="17.964114650623">
        <ele>76.2</ele>
        <time>2018-02-12T19:00:26Z</time>
      </trkpt>
      <trkpt lat="62.637490603626" lon="17.964110208216">
        <ele>76.2</ele>
        <time>2018-02-12T19:00:27Z</time>
      </trkpt>
      <trkpt lat="62.637497392965" lon="17.96411406389">
        <ele>76.2</ele>
        <time>2018-02-12T19:00:28Z</time>
      </trkpt>
      <trkpt lat="62.637506277779" lon="17.964124625084">
        <ele>76.4</ele>
        <time>2018-02-12T19:00:29Z</time>
      </trkpt>
      <trkpt lat="62.637513905308" lon="17.96413250407">
        <ele>76.4</ele>
        <time>2018-02-12T19:00:30Z</time>
      </trkpt>
      <trkpt lat="62.637520527009" lon="17.964142897626">
        <ele>76.6</ele>
        <time>2018-02-12T19:00:31Z</time>
      </trkpt>
      <trkpt lat="62.637524801778" lon="17.964154045553">
        <ele>76.6</ele>
        <time>2018-02-12T19:00:32Z</time>
      </trkpt>
      <trkpt lat="62.637523879769" lon="17.964164522928">
        <ele>76.6</ele>
        <time>2018-02-12T19:00:33Z</time>
      </trkpt>
      <trkpt lat="62.63752379595" lon="17.964174832665">
        <ele>76.6</ele>
        <time>2018-02-12T19:00:34Z</time>
      </trkpt>
      <trkpt lat="62.63752379595" lon="17.964185142402">
        <ele>76.6</ele>
        <time>2018-02-12T19:00:35Z</time>
      </trkpt>
      <trkpt lat="62.637527064891" lon="17.964158739417">
        <ele>76.6</ele>
        <time>2018-02-12T19:00:36Z</time>
      </trkpt>
    </trkseg>
  </trk>
</gpx>